Long, Charles (2015): Radiosonde measurements from station Momote (2010-01) [dataset]. Pacific Northwest National Laboratory, Washington, PANGAEA, https://doi.org/10.1594/PANGAEA.841567
Always quote citation above when using data! You can download the citation in several formats below.
Published: 2015-01-16 • DOI registered: 2015-02-13
Other version:
Long, Charles (2015): BSRN Station-to-archive file for station Momote (2010-01) [dataset]. ftp://ftp.bsrn.awi.de/man/man0110.dat.gz
Project(s):
Coverage:
Latitude: -2.058000 * Longitude: 147.425000
Date/Time Start: 2010-01-01T00:00:00 * Date/Time End: 2010-01-31T23:59:00
Minimum ALTITUDE: 4 m * Maximum ALTITUDE: 30355 m
Event(s):
MAN (Momote) * Latitude: -2.058000 * Longitude: 147.425000 * Date/Time Start: 1996-09-01T00:00:00 * Date/Time End: 2013-10-31T00:00:00 * Elevation: 6.0 m * Location: Papua New Guinea * Method/Device: Monitoring station (MONS) * Comment: BSRN station no: 29; Surface type: grass; Topography type: flat, rural; Latest station scientist: Charles Long. ** Station closed late 2013 **
Comment:
Version 2, 2015-01-16; Launches at irregular time intervals
Parameter(s):
| # | Name | Short Name | Unit | Principal Investigator | Method/Device | Comment |
|---|---|---|---|---|---|---|
| 1 | DATE/TIME | Date/Time | Geocode | |||
| 2 | ALTITUDE | Altitude | m | Geocode | ||
| 3 | Pressure, at given altitude | PPPP | hPa | Long, Charles | Radiosonde, Vaisala, RS80-15GH | |
| 4 | Temperature, air | TTT | °C | Long, Charles | Radiosonde, Vaisala, RS80-15GH | |
| 5 | Dew/frost point | TdTdTd | °C | Long, Charles | Radiosonde, Vaisala, RS80-15GH | |
| 6 | Wind direction | dd | deg | Long, Charles | Radiosonde, Vaisala, RS80-15GH | |
| 7 | Wind speed | ff | m/s | Long, Charles | Radiosonde, Vaisala, RS80-15GH |
License:
Size:
156715 data points
Data
| 1 Date/Time | 2 Altitude [m] | 3 PPPP [hPa] | 4 TTT [°C] | 5 TdTdTd [°C] | 6 dd [deg] | 7 ff [m/s] |
|---|---|---|---|---|---|---|
| 2010-01-01T00:00 | 1316 | 867 | 20.3 | 17.4 | 303 | 4 |
| 2010-01-01T00:00 | 1324 | 867 | 20.2 | 17.4 | 302 | 4 |
| 2010-01-01T00:00 | 1331 | 866 | 20.1 | 17.3 | 301 | 4 |
| 2010-01-01T00:00 | 1338 | 865 | 20.1 | 17.1 | 300 | 4 |
| 2010-01-01T00:00 | 1345 | 864 | 20.0 | 17.1 | 299 | 4 |
| 2010-01-01T00:00 | 1352 | 864 | 20.0 | 17.1 | 298 | 4 |
| 2010-01-01T00:00 | 1360 | 863 | 19.9 | 17.0 | 297 | 4 |
| 2010-01-01T00:00 | 1367 | 862 | 19.9 | 17.0 | 296 | 4 |
| 2010-01-01T00:00 | 1374 | 862 | 19.8 | 17.0 | 295 | 4 |
| 2010-01-01T00:00 | 1381 | 861 | 19.7 | 17.0 | 295 | 4 |
| 2010-01-01T00:00 | 1389 | 860 | 19.7 | 17.0 | 294 | 4 |
| 2010-01-01T00:00 | 1396 | 859 | 19.6 | 17.0 | 294 | 4 |
| 2010-01-01T00:00 | 1405 | 858 | 19.6 | 17.0 | 293 | 4 |
| 2010-01-01T00:00 | 1413 | 858 | 19.5 | 17.0 | 293 | 4 |
| 2010-01-01T00:00 | 1421 | 857 | 19.5 | 17.0 | 293 | 4 |
| 2010-01-01T00:00 | 1431 | 856 | 19.4 | 16.9 | 293 | 4 |
| 2010-01-01T00:00 | 1441 | 855 | 19.3 | 16.9 | 293 | 5 |
| 2010-01-01T00:00 | 1451 | 854 | 19.2 | 16.7 | 292 | 5 |
| 2010-01-01T00:00 | 1460 | 853 | 19.1 | 16.6 | 292 | 5 |
| 2010-01-01T00:00 | 1468 | 852 | 19.1 | 16.6 | 291 | 5 |
| 2010-01-01T00:00 | 1476 | 851 | 19.0 | 16.6 | 291 | 5 |
| 2010-01-01T00:00 | 1483 | 851 | 18.9 | 16.6 | 291 | 5 |
| 2010-01-01T00:00 | 1491 | 850 | 18.9 | 16.6 | 291 | 5 |
| 2010-01-01T00:00 | 1498 | 849 | 18.8 | 16.6 | 291 | 5 |
| 2010-01-01T00:00 | 1506 | 848 | 18.7 | 16.4 | 291 | 5 |
| 2010-01-01T00:00 | 1514 | 848 | 18.7 | 16.3 | 291 | 5 |
| 2010-01-01T00:00 | 1521 | 847 | 18.6 | 16.3 | 291 | 5 |
| 2010-01-01T00:00 | 1529 | 846 | 18.5 | 16.4 | 292 | 5 |
| 2010-01-01T00:00 | 1537 | 845 | 18.5 | 16.4 | 292 | 5 |
| 2010-01-01T00:00 | 1544 | 845 | 18.4 | 16.4 | 292 | 5 |
| 2010-01-01T00:01 | 1551 | 844 | 18.4 | 16.4 | 293 | 5 |
| 2010-01-01T00:01 | 1558 | 843 | 18.3 | 16.4 | 293 | 5 |
| 2010-01-01T00:01 | 1567 | 842 | 18.2 | 16.4 | 293 | 5 |
| 2010-01-01T00:01 | 1574 | 842 | 18.2 | 16.4 | 294 | 5 |
| 2010-01-01T00:01 | 1581 | 841 | 18.1 | 16.3 | 294 | 5 |
| 2010-01-01T00:01 | 1589 | 840 | 18.0 | 16.3 | 294 | 5 |
| 2010-01-01T00:01 | 1595 | 840 | 18.0 | 16.3 | 294 | 5 |
| 2010-01-01T00:01 | 1603 | 839 | 17.9 | 16.3 | 294 | 5 |
| 2010-01-01T00:01 | 1611 | 838 | 17.9 | 16.2 | 295 | 5 |
| 2010-01-01T00:01 | 1618 | 837 | 17.9 | 16.2 | 295 | 5 |
| 2010-01-01T00:01 | 1626 | 837 | 17.8 | 16.2 | 296 | 5 |
| 2010-01-01T00:01 | 1634 | 836 | 17.8 | 16.2 | 297 | 5 |
| 2010-01-01T00:01 | 1641 | 835 | 17.7 | 16.2 | 297 | 5 |
| 2010-01-01T00:01 | 1650 | 834 | 17.7 | 16.1 | 298 | 4 |
| 2010-01-01T00:01 | 1660 | 833 | 17.6 | 16.1 | 299 | 4 |
| 2010-01-01T00:01 | 1671 | 832 | 17.5 | 16.0 | 299 | 4 |
| 2010-01-01T00:01 | 1682 | 831 | 17.5 | 16.0 | 300 | 4 |
| 2010-01-01T00:01 | 1690 | 830 | 17.4 | 15.9 | 300 | 4 |
| 2010-01-01T00:01 | 1697 | 830 | 17.3 | 15.9 | 301 | 4 |
| 2010-01-01T00:01 | 1704 | 829 | 17.2 | 15.9 | 301 | 4 |
| 2010-01-01T00:01 | 1712 | 828 | 17.2 | 15.8 | 301 | 4 |
| 2010-01-01T00:01 | 1720 | 828 | 17.1 | 15.8 | 300 | 5 |
| 2010-01-01T00:01 | 1728 | 827 | 17.0 | 15.7 | 300 | 5 |
| 2010-01-01T00:01 | 1736 | 826 | 17.0 | 15.6 | 300 | 5 |
| 2010-01-01T00:01 | 1745 | 825 | 16.9 | 15.6 | 299 | 5 |
| 2010-01-01T00:01 | 1754 | 824 | 16.9 | 15.5 | 299 | 5 |
| 2010-01-01T00:01 | 1762 | 824 | 16.8 | 15.4 | 298 | 5 |
| 2010-01-01T00:01 | 1771 | 823 | 16.8 | 15.4 | 298 | 5 |
| 2010-01-01T00:01 | 1779 | 822 | 16.7 | 15.4 | 298 | 5 |
| 2010-01-01T00:01 | 1787 | 821 | 16.7 | 15.4 | 298 | 5 |
| 2010-01-01T00:02 | 1795 | 820 | 16.6 | 15.4 | 298 | 5 |
| 2010-01-01T00:02 | 1803 | 820 | 16.5 | 15.4 | 298 | 5 |
| 2010-01-01T00:02 | 1811 | 819 | 16.5 | 15.3 | 298 | 5 |
| 2010-01-01T00:02 | 1819 | 818 | 16.5 | 15.3 | 298 | 5 |
| 2010-01-01T00:02 | 1827 | 817 | 16.4 | 15.2 | 298 | 5 |
| 2010-01-01T00:02 | 1836 | 816 | 16.3 | 15.2 | 299 | 5 |
| 2010-01-01T00:02 | 1843 | 816 | 16.3 | 15.2 | 299 | 5 |
| 2010-01-01T00:02 | 1851 | 815 | 16.2 | 15.1 | 299 | 5 |
| 2010-01-01T00:02 | 1859 | 814 | 16.1 | 15.1 | 299 | 5 |
| 2010-01-01T00:02 | 1867 | 814 | 16.1 | 15.0 | 299 | 5 |
| 2010-01-01T00:02 | 1874 | 813 | 16.0 | 15.0 | 299 | 5 |
| 2010-01-01T00:02 | 1883 | 812 | 16.0 | 15.0 | 299 | 5 |
| 2010-01-01T00:02 | 1891 | 811 | 15.9 | 15.0 | 299 | 5 |
| 2010-01-01T00:02 | 1899 | 810 | 15.9 | 14.9 | 299 | 5 |
| 2010-01-01T00:02 | 1907 | 810 | 15.8 | 14.8 | 299 | 5 |
| 2010-01-01T00:02 | 1914 | 809 | 15.8 | 14.8 | 299 | 5 |
| 2010-01-01T00:02 | 1922 | 808 | 15.7 | 14.8 | 299 | 5 |
| 2010-01-01T00:02 | 1930 | 807 | 15.7 | 14.7 | 299 | 5 |
| 2010-01-01T00:02 | 1938 | 807 | 15.6 | 14.7 | 299 | 5 |
| 2010-01-01T00:02 | 1946 | 806 | 15.5 | 14.6 | 299 | 5 |
| 2010-01-01T00:02 | 1955 | 805 | 15.5 | 14.4 | 299 | 5 |
| 2010-01-01T00:02 | 1964 | 804 | 15.4 | 14.4 | 299 | 5 |
| 2010-01-01T00:02 | 1973 | 803 | 15.4 | 14.4 | 299 | 5 |
| 2010-01-01T00:02 | 1982 | 803 | 15.3 | 14.4 | 299 | 5 |
| 2010-01-01T00:02 | 1990 | 802 | 15.2 | 14.4 | 299 | 5 |
| 2010-01-01T00:02 | 1998 | 801 | 15.2 | 14.4 | 299 | 5 |
| 2010-01-01T00:03 | 2035 | 798 | 14.9 | 14.2 | 298 | 5 |
| 2010-01-01T00:03 | 2074 | 794 | 14.8 | 13.8 | 295 | 5 |
| 2010-01-01T00:03 | 2111 | 790 | 14.5 | 13.6 | 292 | 5 |
| 2010-01-01T00:03 | 2157 | 786 | 14.4 | 13.0 | 291 | 5 |
| 2010-01-01T00:03 | 2208 | 781 | 13.9 | 12.9 | 292 | 5 |
| 2010-01-01T00:03 | 2245 | 778 | 13.6 | 13.1 | 294 | 5 |
| 2010-01-01T00:04 | 2282 | 775 | 13.5 | 13.0 | 296 | 5 |
| 2010-01-01T00:04 | 2317 | 771 | 13.4 | 12.5 | 296 | 5 |
| 2010-01-01T00:04 | 2349 | 769 | 13.3 | 12.4 | 298 | 5 |
| 2010-01-01T00:04 | 2382 | 766 | 13.6 | 11.0 | 300 | 5 |
| 2010-01-01T00:04 | 2416 | 762 | 13.4 | 10.8 | 300 | 5 |
| 2010-01-01T00:04 | 2471 | 758 | 13.0 | 11.0 | 297 | 5 |
| 2010-01-01T00:05 | 2506 | 754 | 12.8 | 12.0 | 293 | 4 |
| 2010-01-01T00:05 | 2540 | 751 | 13.0 | 11.2 | 290 | 4 |
| 2010-01-01T00:05 | 2576 | 748 | 13.0 | 10.2 | 284 | 4 |
| 2010-01-01T00:05 | 2611 | 745 | 13.2 | 7.8 | 279 | 3 |
| 2010-01-01T00:05 | 2647 | 742 | 12.9 | 7.7 | 280 | 3 |
| 2010-01-01T00:05 | 2684 | 739 | 12.8 | 6.2 | 284 | 3 |
| 2010-01-01T00:06 | 2721 | 735 | 12.7 | 5.0 | 285 | 3 |
| 2010-01-01T00:06 | 2759 | 732 | 12.4 | 5.1 | 281 | 3 |
| 2010-01-01T00:06 | 2796 | 729 | 12.3 | 4.3 | 277 | 3 |
| 2010-01-01T00:06 | 2836 | 725 | 12.1 | 5.2 | 277 | 3 |
| 2010-01-01T00:06 | 2874 | 722 | 11.9 | 5.6 | 279 | 3 |
| 2010-01-01T00:06 | 2913 | 719 | 11.8 | 3.8 | 283 | 2 |
| 2010-01-01T00:07 | 2953 | 715 | 11.8 | 4.4 | 292 | 2 |
| 2010-01-01T00:07 | 2993 | 712 | 11.7 | 2.1 | 306 | 1 |
| 2010-01-01T00:07 | 3035 | 708 | 11.6 | -0.3 | 325 | 1 |
| 2010-01-01T00:07 | 3075 | 705 | 11.3 | 0.6 | 346 | 1 |
| 2010-01-01T00:07 | 3115 | 702 | 11.0 | 1.2 | 358 | 1 |
| 2010-01-01T00:07 | 3153 | 698 | 10.5 | 3.7 | 356 | 2 |
| 2010-01-01T00:08 | 3195 | 695 | 10.4 | 5.5 | 349 | 2 |
| 2010-01-01T00:08 | 3233 | 692 | 10.4 | 3.7 | 345 | 3 |
| 2010-01-01T00:08 | 3272 | 689 | 10.2 | 3.8 | 343 | 3 |
| 2010-01-01T00:08 | 3310 | 685 | 10.2 | 2.5 | 343 | 3 |
| 2010-01-01T00:08 | 3354 | 682 | 10.0 | 2.0 | 345 | 3 |
| 2010-01-01T00:08 | 3408 | 677 | 9.6 | 2.3 | 350 | 4 |
| 2010-01-01T00:09 | 3445 | 674 | 9.5 | 0.7 | 352 | 4 |
| 2010-01-01T00:09 | 3483 | 671 | 9.1 | 1.5 | 352 | 4 |
| 2010-01-01T00:09 | 3521 | 668 | 9.1 | 0.7 | 349 | 4 |
| 2010-01-01T00:09 | 3560 | 665 | 8.7 | 0.4 | 348 | 4 |
| 2010-01-01T00:09 | 3598 | 662 | 8.4 | 0.4 | 350 | 4 |
| 2010-01-01T00:09 | 3635 | 659 | 8.3 | -1.4 | 354 | 5 |
| 2010-01-01T00:10 | 3681 | 655 | 8.0 | -2.1 | 356 | 6 |
| 2010-01-01T00:10 | 3737 | 651 | 7.5 | -0.2 | 356 | 7 |
| 2010-01-01T00:10 | 3785 | 647 | 7.1 | 0.5 | 354 | 7 |
| 2010-01-01T00:10 | 3826 | 644 | 6.7 | 0.8 | 352 | 8 |
| 2010-01-01T00:10 | 3865 | 641 | 6.3 | 0.7 | 352 | 8 |
| 2010-01-01T00:10 | 3908 | 638 | 6.0 | 0.5 | 354 | 9 |
| 2010-01-01T00:11 | 3961 | 633 | 5.5 | 0.2 | 357 | 9 |
| 2010-01-01T00:11 | 4006 | 630 | 5.1 | 0.0 | 356 | 9 |
| 2010-01-01T00:11 | 4042 | 627 | 4.8 | -0.3 | 353 | 8 |
| 2010-01-01T00:11 | 4080 | 624 | 4.7 | -0.4 | 351 | 8 |
| 2010-01-01T00:11 | 4126 | 621 | 4.4 | -0.5 | 350 | 8 |
| 2010-01-01T00:11 | 4162 | 618 | 4.2 | -0.8 | 349 | 7 |
| 2010-01-01T00:12 | 4199 | 615 | 3.9 | -0.7 | 350 | 7 |
| 2010-01-01T00:12 | 4241 | 612 | 3.5 | -0.8 | 351 | 6 |
| 2010-01-01T00:12 | 4283 | 609 | 3.3 | -0.4 | 352 | 5 |
| 2010-01-01T00:12 | 4324 | 606 | 3.2 | -0.2 | 352 | 5 |
| 2010-01-01T00:12 | 4361 | 603 | 3.0 | -0.4 | 351 | 4 |
| 2010-01-01T00:12 | 4398 | 600 | 2.8 | -0.1 | 351 | 4 |
| 2010-01-01T00:13 | 4437 | 597 | 2.8 | -1.4 | 353 | 4 |
| 2010-01-01T00:13 | 4478 | 594 | 2.4 | -1.0 | 353 | 4 |
| 2010-01-01T00:13 | 4514 | 592 | 2.2 | -2.1 | 352 | 4 |
| 2010-01-01T00:13 | 4550 | 589 | 1.9 | -1.9 | 351 | 4 |
| 2010-01-01T00:13 | 4588 | 586 | 1.6 | -1.7 | 352 | 4 |
| 2010-01-01T00:13 | 4626 | 584 | 1.7 | -0.1 | 355 | 4 |
| 2010-01-01T00:14 | 4667 | 581 | 1.8 | -0.6 | 360 | 4 |
| 2010-01-01T00:14 | 4707 | 578 | 1.5 | -0.1 | 4 | 5 |
| 2010-01-01T00:14 | 4745 | 575 | 1.1 | -0.4 | 8 | 5 |
| 2010-01-01T00:14 | 4783 | 572 | 0.8 | -0.6 | 9 | 5 |
| 2010-01-01T00:14 | 4821 | 570 | 0.6 | -0.8 | 7 | 5 |
| 2010-01-01T00:14 | 4860 | 567 | 0.3 | -0.7 | 2 | 5 |
| 2010-01-01T00:15 | 4898 | 564 | 0.1 | -1.0 | 359 | 4 |
| 2010-01-01T00:15 | 4936 | 562 | -0.2 | -1.2 | 358 | 4 |
| 2010-01-01T00:15 | 4972 | 559 | -0.4 | -1.4 | 358 | 4 |
| 2010-01-01T00:15 | 5009 | 557 | -0.6 | -1.9 | 359 | 4 |
| 2010-01-01T00:15 | 5048 | 554 | -0.9 | -2.8 | 1 | 4 |
| 2010-01-01T00:15 | 5086 | 551 | -1.1 | -3.6 | 4 | 4 |
| 2010-01-01T00:16 | 5123 | 549 | -1.3 | -3.6 | 8 | 4 |
| 2010-01-01T00:16 | 5161 | 546 | -1.4 | -3.1 | 12 | 5 |
| 2010-01-01T00:16 | 5198 | 543 | -1.4 | -3.3 | 13 | 5 |
| 2010-01-01T00:16 | 5237 | 541 | -1.4 | -3.4 | 13 | 4 |
| 2010-01-01T00:16 | 5274 | 538 | -1.5 | -3.0 | 12 | 4 |
| 2010-01-01T00:16 | 5312 | 536 | -1.7 | -3.3 | 13 | 3 |
| 2010-01-01T00:17 | 5348 | 533 | -1.8 | -3.0 | 17 | 3 |
| 2010-01-01T00:17 | 5384 | 531 | -2.0 | -3.2 | 18 | 3 |
| 2010-01-01T00:17 | 5420 | 529 | -2.2 | -3.8 | 15 | 3 |
| 2010-01-01T00:17 | 5457 | 526 | -2.4 | -3.7 | 14 | 3 |
| 2010-01-01T00:17 | 5493 | 524 | -2.6 | -3.7 | 14 | 3 |
| 2010-01-01T00:17 | 5530 | 521 | -2.8 | -3.9 | 15 | 3 |
| 2010-01-01T00:18 | 5566 | 519 | -3.0 | -4.1 | 20 | 3 |
| 2010-01-01T00:18 | 5603 | 517 | -3.0 | -4.1 | 31 | 3 |
| 2010-01-01T00:18 | 5640 | 514 | -3.2 | -4.5 | 43 | 3 |
| 2010-01-01T00:18 | 5681 | 512 | -3.2 | -4.6 | 51 | 3 |
| 2010-01-01T00:18 | 5720 | 509 | -3.5 | -4.9 | 56 | 4 |
| 2010-01-01T00:18 | 5758 | 507 | -3.7 | -5.1 | 58 | 4 |
| 2010-01-01T00:19 | 5796 | 504 | -3.9 | -5.3 | 58 | 4 |
| 2010-01-01T00:19 | 5832 | 502 | -4.1 | -5.9 | 58 | 4 |
| 2010-01-01T00:19 | 5870 | 499 | -4.3 | -5.8 | 60 | 4 |
| 2010-01-01T00:19 | 5907 | 497 | -4.6 | -5.9 | 62 | 4 |
| 2010-01-01T00:19 | 5944 | 495 | -4.8 | -6.0 | 63 | 3 |
| 2010-01-01T00:19 | 5984 | 492 | -5.1 | -6.2 | 66 | 3 |
| 2010-01-01T00:20 | 6030 | 489 | -5.3 | -6.4 | 69 | 2 |
| 2010-01-01T00:20 | 6083 | 486 | -5.6 | -6.7 | 63 | 1 |
| 2010-01-01T00:20 | 6147 | 482 | -5.7 | -7.2 | 50 | 1 |
| 2010-01-01T00:20 | 6203 | 479 | -6.0 | -7.7 | 61 | 1 |
| 2010-01-01T00:20 | 6261 | 475 | -6.4 | -7.8 | 107 | 0 |
| 2010-01-01T00:20 | 6320 | 472 | -6.6 | -8.0 | 127 | 1 |
| 2010-01-01T00:21 | 6378 | 468 | -7.0 | -8.3 | 125 | 1 |
| 2010-01-01T00:21 | 6438 | 465 | -7.3 | -8.5 | 111 | 1 |
| 2010-01-01T00:21 | 6498 | 461 | -7.6 | -8.9 | 93 | 2 |
| 2010-01-01T00:21 | 6561 | 457 | -7.9 | -9.3 | 90 | 3 |
| 2010-01-01T00:21 | 6613 | 454 | -8.1 | -9.3 | 92 | 4 |
| 2010-01-01T00:21 | 6670 | 451 | -8.4 | -9.6 | 91 | 5 |
| 2010-01-01T00:22 | 6729 | 448 | -8.7 | -10.0 | 89 | 6 |
| 2010-01-01T00:22 | 6783 | 444 | -9.0 | -10.5 | 87 | 6 |
| 2010-01-01T00:22 | 6842 | 441 | -9.5 | -10.9 | 88 | 7 |
| 2010-01-01T00:22 | 6905 | 437 | -9.9 | -11.4 | 91 | 7 |
| 2010-01-01T00:22 | 6957 | 435 | -10.3 | -12.0 | 95 | 8 |
| 2010-01-01T00:22 | 7018 | 431 | -10.6 | -12.2 | 96 | 9 |
| 2010-01-01T00:23 | 7075 | 428 | -11.0 | -12.6 | 95 | 9 |
| 2010-01-01T00:23 | 7129 | 425 | -11.3 | -12.8 | 92 | 9 |
| 2010-01-01T00:23 | 7185 | 422 | -11.4 | -13.0 | 90 | 9 |
| 2010-01-01T00:23 | 7242 | 419 | -11.8 | -13.6 | 89 | 10 |
| 2010-01-01T00:23 | 7301 | 415 | -12.1 | -14.1 | 88 | 10 |
| 2010-01-01T00:23 | 7366 | 412 | -12.4 | -14.4 | 88 | 9 |
| 2010-01-01T00:24 | 7433 | 408 | -12.8 | -14.9 | 89 | 8 |
| 2010-01-01T00:24 | 7496 | 405 | -13.2 | -15.6 | 92 | 8 |
| 2010-01-01T00:24 | 7550 | 402 | -13.6 | -16.0 | 95 | 8 |
| 2010-01-01T00:24 | 7613 | 399 | -13.8 | -16.4 | 99 | 9 |
| 2010-01-01T00:24 | 7676 | 396 | -14.1 | -17.0 | 101 | 10 |
| 2010-01-01T00:24 | 7738 | 392 | -14.5 | -17.3 | 99 | 12 |
| 2010-01-01T00:25 | 7805 | 389 | -15.0 | -17.9 | 98 | 12 |
| 2010-01-01T00:25 | 7863 | 386 | -15.5 | -18.6 | 99 | 12 |
| 2010-01-01T00:25 | 7921 | 383 | -15.8 | -18.9 | 99 | 12 |
| 2010-01-01T00:25 | 7973 | 380 | -16.1 | -19.3 | 99 | 12 |
| 2010-01-01T00:25 | 8031 | 377 | -16.6 | -19.6 | 98 | 12 |
| 2010-01-01T00:25 | 8092 | 374 | -17.0 | -19.8 | 96 | 12 |
| 2010-01-01T00:26 | 8150 | 371 | -17.3 | -20.2 | 96 | 13 |
| 2010-01-01T00:26 | 8207 | 369 | -17.7 | -20.6 | 99 | 13 |
| 2010-01-01T00:26 | 8263 | 366 | -18.1 | -21.1 | 100 | 13 |
| 2010-01-01T00:26 | 8329 | 363 | -18.5 | -21.4 | 99 | 13 |
| 2010-01-01T00:26 | 8396 | 359 | -19.1 | -21.8 | 97 | 13 |
| 2010-01-01T00:26 | 8451 | 357 | -19.4 | -22.3 | 96 | 13 |
| 2010-01-01T00:27 | 8511 | 354 | -19.7 | -22.6 | 95 | 13 |
| 2010-01-01T00:27 | 8573 | 351 | -20.1 | -23.1 | 92 | 13 |
| 2010-01-01T00:27 | 8631 | 348 | -20.5 | -23.5 | 89 | 12 |
| 2010-01-01T00:27 | 8696 | 345 | -20.9 | -24.0 | 87 | 13 |
| 2010-01-01T00:27 | 8752 | 343 | -21.3 | -24.4 | 86 | 13 |
| 2010-01-01T00:27 | 8807 | 340 | -21.6 | -24.6 | 86 | 13 |
| 2010-01-01T00:28 | 8861 | 338 | -22.0 | -25.0 | 85 | 13 |
| 2010-01-01T00:28 | 8913 | 335 | -22.4 | -25.5 | 85 | 13 |
| 2010-01-01T00:28 | 8975 | 332 | -22.8 | -26.1 | 85 | 13 |
| 2010-01-01T00:28 | 9035 | 330 | -23.3 | -26.7 | 86 | 12 |
| 2010-01-01T00:28 | 9092 | 327 | -23.7 | -27.1 | 84 | 12 |
| 2010-01-01T00:28 | 9148 | 325 | -24.0 | -27.6 | 81 | 13 |
| 2010-01-01T00:29 | 9213 | 322 | -24.6 | -28.1 | 81 | 12 |
| 2010-01-01T00:29 | 9269 | 319 | -25.0 | -28.5 | 84 | 12 |
| 2010-01-01T00:29 | 9331 | 317 | -25.5 | -29.1 | 86 | 12 |
| 2010-01-01T00:29 | 9388 | 314 | -25.9 | -29.4 | 88 | 13 |
| 2010-01-01T00:29 | 9452 | 311 | -26.4 | -29.9 | 89 | 13 |
| 2010-01-01T00:29 | 9517 | 309 | -26.8 | -30.5 | 92 | 12 |
| 2010-01-01T00:30 | 9587 | 306 | -27.3 | -31.0 | 95 | 12 |
| 2010-01-01T00:30 | 9650 | 303 | -27.7 | -31.8 | 99 | 12 |
| 2010-01-01T00:30 | 9697 | 301 | -28.0 | -32.5 | 101 | 12 |
| 2010-01-01T00:30 | 9756 | 298 | -28.5 | -32.9 | 101 | 12 |
| 2010-01-01T00:30 | 9807 | 296 | -28.9 | -33.6 | 101 | 13 |
| 2010-01-01T00:30 | 9871 | 294 | -29.3 | -33.8 | 102 | 14 |
| 2010-01-01T00:31 | 9923 | 292 | -29.6 | -34.1 | 102 | 14 |
| 2010-01-01T00:31 | 9969 | 290 | -30.0 | -34.7 | 102 | 14 |
| 2010-01-01T00:31 | 10015 | 288 | -30.4 | -35.2 | 102 | 14 |
| 2010-01-01T00:31 | 10067 | 286 | -30.9 | -35.5 | 103 | 15 |
| 2010-01-01T00:31 | 10129 | 283 | -31.4 | -36.2 | 106 | 14 |
| 2010-01-01T00:31 | 10185 | 281 | -31.8 | -36.4 | 108 | 13 |
| 2010-01-01T00:32 | 10242 | 279 | -32.3 | -36.6 | 108 | 12 |
| 2010-01-01T00:32 | 10309 | 276 | -32.9 | -37.0 | 109 | 11 |
| 2010-01-01T00:32 | 10356 | 274 | -33.3 | -38.0 | 109 | 11 |
| 2010-01-01T00:32 | 10408 | 272 | -33.8 | -38.7 | 110 | 12 |
| 2010-01-01T00:32 | 10462 | 270 | -34.2 | -39.1 | 112 | 12 |
| 2010-01-01T00:32 | 10509 | 268 | -34.5 | -39.7 | 112 | 12 |
| 2010-01-01T00:33 | 10555 | 267 | -34.9 | -40.0 | 111 | 13 |
| 2010-01-01T00:33 | 10600 | 265 | -35.3 | -40.4 | 110 | 13 |
| 2010-01-01T00:33 | 10644 | 263 | -35.6 | -40.8 | 109 | 13 |
| 2010-01-01T00:33 | 10690 | 261 | -36.0 | -41.5 | 107 | 14 |
| 2010-01-01T00:33 | 10751 | 259 | -36.5 | -41.7 | 106 | 14 |
| 2010-01-01T00:33 | 10800 | 257 | -36.9 | -42.2 | 105 | 14 |
| 2010-01-01T00:34 | 10844 | 256 | -37.3 | -42.8 | 104 | 15 |
| 2010-01-01T00:34 | 10891 | 254 | -37.7 | -43.2 | 103 | 15 |
| 2010-01-01T00:34 | 10938 | 252 | -38.1 | -43.6 | 101 | 15 |
| 2010-01-01T00:34 | 10983 | 251 | -38.5 | -43.9 | 100 | 15 |
| 2010-01-01T00:34 | 11027 | 249 | -38.9 | -44.3 | 98 | 15 |
| 2010-01-01T00:34 | 11072 | 247 | -39.3 | -44.8 | 97 | 16 |
| 2010-01-01T00:35 | 11115 | 246 | -39.7 | -45.1 | 96 | 16 |
| 2010-01-01T00:35 | 11159 | 244 | -40.0 | -45.5 | 95 | 16 |
| 2010-01-01T00:35 | 11203 | 243 | -40.4 | -46.0 | 94 | 16 |
| 2010-01-01T00:35 | 11248 | 241 | -40.8 | -46.3 | 94 | 17 |
| 2010-01-01T00:35 | 11293 | 239 | -41.2 | -46.6 | 94 | 17 |
| 2010-01-01T00:35 | 11337 | 238 | -41.6 | -47.3 | 94 | 17 |
| 2010-01-01T00:36 | 11380 | 236 | -42.0 | -48.1 | 95 | 17 |
| 2010-01-01T00:36 | 11424 | 235 | -42.4 | -48.7 | 95 | 17 |
| 2010-01-01T00:36 | 11467 | 233 | -42.7 | -49.1 | 96 | 17 |
| 2010-01-01T00:36 | 11511 | 232 | -43.1 | -49.5 | 97 | 17 |
| 2010-01-01T00:36 | 11555 | 230 | -43.5 | -49.9 | 97 | 17 |
| 2010-01-01T00:36 | 11599 | 229 | -43.9 | -50.5 | 98 | 17 |
| 2010-01-01T00:37 | 11644 | 227 | -44.3 | -50.8 | 99 | 17 |
| 2010-01-01T00:37 | 11688 | 226 | -44.6 | -51.1 | 99 | 17 |
| 2010-01-01T00:37 | 11732 | 224 | -45.0 | -51.4 | 100 | 17 |
| 2010-01-01T00:37 | 11774 | 223 | -45.4 | -51.8 | 100 | 18 |
| 2010-01-01T00:37 | 11819 | 221 | -45.8 | -52.2 | 100 | 18 |
| 2010-01-01T00:37 | 11863 | 220 | -46.2 | -52.8 | 101 | 18 |
| 2010-01-01T00:38 | 11907 | 218 | -46.6 | -53.3 | 103 | 19 |
| 2010-01-01T00:38 | 11951 | 217 | -46.9 | -53.6 | 104 | 19 |
| 2010-01-01T00:38 | 11994 | 216 | -47.3 | -54.0 | 104 | 19 |
| 2010-01-01T00:38 | 12036 | 214 | -47.6 | -54.5 | 103 | 19 |
| 2010-01-01T00:38 | 12079 | 213 | -48.0 | -55.0 | 103 | 19 |
| 2010-01-01T00:38 | 12121 | 212 | -48.5 | -55.6 | 104 | 19 |
| 2010-01-01T00:39 | 12165 | 210 | -48.9 | -55.9 | 104 | 19 |
| 2010-01-01T00:39 | 12205 | 209 | -49.2 | -56.1 | 104 | 20 |
| 2010-01-01T00:39 | 12247 | 208 | -49.6 | -56.5 | 104 | 20 |
| 2010-01-01T00:39 | 12288 | 206 | -50.0 | -56.9 | 104 | 20 |
| 2010-01-01T00:39 | 12330 | 205 | -50.4 | -57.3 | 104 | 20 |
| 2010-01-01T00:39 | 12371 | 204 | -50.7 | -57.6 | 105 | 20 |
| 2010-01-01T00:40 | 12412 | 202 | -51.0 | -58.0 | 105 | 20 |
| 2010-01-01T00:40 | 12452 | 201 | -51.4 | -58.4 | 105 | 20 |
| 2010-01-01T00:40 | 12495 | 200 | -51.8 | -58.8 | 106 | 20 |
| 2010-01-01T00:40 | 12535 | 199 | -52.1 | -59.3 | 106 | 20 |
| 2010-01-01T00:40 | 12576 | 197 | -52.5 | -59.8 | 107 | 20 |
| 2010-01-01T00:40 | 12618 | 196 | -52.8 | -60.3 | 107 | 21 |
| 2010-01-01T00:41 | 12660 | 195 | -53.2 | -60.8 | 108 | 21 |
| 2010-01-01T00:41 | 12702 | 193 | -53.6 | -61.2 | 109 | 21 |
| 2010-01-01T00:41 | 12743 | 192 | -54.0 | -61.6 | 109 | 21 |
| 2010-01-01T00:41 | 12786 | 191 | -54.3 | -62.1 | 109 | 21 |
| 2010-01-01T00:41 | 12828 | 190 | -54.8 | -62.4 | 110 | 21 |
| 2010-01-01T00:41 | 12869 | 188 | -55.2 | -62.8 | 110 | 21 |
| 2010-01-01T00:42 | 12913 | 187 | -55.5 | -63.2 | 110 | 21 |
| 2010-01-01T00:42 | 12956 | 186 | -55.9 | -63.6 | 109 | 21 |
| 2010-01-01T00:42 | 12997 | 185 | -56.3 | -64.0 | 110 | 21 |
| 2010-01-01T00:42 | 13040 | 183 | -56.7 | -64.5 | 110 | 21 |
| 2010-01-01T00:42 | 13085 | 182 | -56.9 | -64.8 | 111 | 21 |
| 2010-01-01T00:42 | 13127 | 181 | -57.4 | -65.3 | 113 | 22 |
| 2010-01-01T00:43 | 13167 | 180 | -57.7 | -65.8 | 115 | 21 |
| 2010-01-01T00:43 | 13211 | 179 | -58.2 | -66.3 | 116 | 21 |
| 2010-01-01T00:43 | 13251 | 177 | -58.3 | -66.4 | 117 | 21 |
| 2010-01-01T00:43 | 13298 | 176 | -59.0 | -67.1 | 118 | 21 |
| 2010-01-01T00:43 | 13339 | 175 | -59.4 | -67.5 | 119 | 21 |
| 2010-01-01T00:43 | 13383 | 174 | -59.8 | -68.1 | 120 | 21 |
| 2010-01-01T00:44 | 13430 | 172 | -60.1 | -68.5 | 121 | 21 |
| 2010-01-01T00:44 | 13479 | 171 | -60.6 | -69.0 | 122 | 21 |
| 2010-01-01T00:44 | 13523 | 170 | -61.0 | -69.4 | 123 | 21 |
| 2010-01-01T00:44 | 13565 | 169 | -61.4 | -69.9 | 123 | 21 |
| 2010-01-01T00:44 | 13608 | 168 | -61.8 | -70.2 | 124 | 21 |
| 2010-01-01T00:44 | 13656 | 166 | -62.3 | -70.6 | 124 | 21 |
| 2010-01-01T00:45 | 13702 | 165 | -62.6 | -70.8 | 125 | 22 |
| 2010-01-01T00:45 | 13747 | 164 | -63.1 | -71.3 | 125 | 22 |
| 2010-01-01T00:45 | 13793 | 163 | -63.5 | -71.8 | 126 | 22 |
| 2010-01-01T00:45 | 13838 | 161 | -63.9 | -72.1 | 126 | 22 |
| 2010-01-01T00:45 | 13881 | 160 | -64.4 | -72.7 | 127 | 22 |
| 2010-01-01T00:45 | 13927 | 159 | -65.0 | -73.0 | 128 | 22 |
| 2010-01-01T00:46 | 13970 | 158 | -65.4 | -73.3 | 128 | 22 |
| 2010-01-01T00:46 | 14012 | 157 | -65.7 | -73.5 | 129 | 22 |
| 2010-01-01T00:46 | 14055 | 156 | -66.0 | -73.7 | 129 | 22 |
| 2010-01-01T00:46 | 14099 | 155 | -66.6 | -74.4 | 130 | 22 |
| 2010-01-01T00:46 | 14143 | 154 | -66.9 | -74.8 | 130 | 23 |
| 2010-01-01T00:46 | 14188 | 152 | -67.3 | -75.3 | 129 | 23 |
| 2010-01-01T00:47 | 14236 | 151 | -67.6 | -75.8 | 128 | 24 |
| 2010-01-01T00:47 | 14285 | 150 | -67.9 | -76.3 | 126 | 24 |
| 2010-01-01T00:47 | 14330 | 149 | -68.2 | -76.8 | 125 | 24 |
| 2010-01-01T00:47 | 14372 | 148 | -68.6 | -77.5 | 124 | 24 |
| 2010-01-01T00:47 | 14415 | 147 | -68.9 | -78.0 | 122 | 25 |
| 2010-01-01T00:47 | 14462 | 146 | -68.7 | -78.2 | 120 | 26 |
| 2010-01-01T00:48 | 14505 | 145 | -69.2 | -79.1 | 118 | 27 |
| 2010-01-01T00:48 | 14544 | 144 | -69.4 | -79.5 | 116 | 27 |
| 2010-01-01T00:48 | 14584 | 143 | -69.6 | -79.8 | 115 | 27 |
| 2010-01-01T00:48 | 14624 | 142 | -69.9 | -80.2 | 114 | 26 |
| 2010-01-01T00:48 | 14664 | 141 | -70.2 | -80.6 | 113 | 26 |
| 2010-01-01T00:48 | 14704 | 140 | -70.3 | -80.8 | 114 | 26 |
| 2010-01-01T00:49 | 14745 | 139 | -70.8 | -81.4 | 115 | 26 |
| 2010-01-01T00:49 | 14785 | 138 | -71.1 | -81.7 | 116 | 26 |
| 2010-01-01T00:49 | 14823 | 137 | -71.3 | -81.9 | 117 | 27 |
| 2010-01-01T00:49 | 14861 | 136 | -71.6 | -82.3 | 118 | 27 |
| 2010-01-01T00:49 | 14900 | 135 | -71.9 | -82.7 | 118 | 27 |
| 2010-01-01T00:49 | 14941 | 134 | -72.3 | -83.3 | 119 | 26 |
| 2010-01-01T00:50 | 14981 | 133 | -72.6 | -83.8 | 120 | 25 |
| 2010-01-01T00:50 | 15028 | 132 | -72.7 | -84.1 | 120 | 24 |
| 2010-01-01T00:50 | 15068 | 131 | -72.8 | -84.3 | 120 | 24 |
| 2010-01-01T00:50 | 15108 | 131 | -72.8 | -84.6 | 119 | 23 |
| 2010-01-01T00:50 | 15146 | 130 | -73.3 | -85.2 | 119 | 23 |
| 2010-01-01T00:50 | 15187 | 129 | -73.8 | -85.8 | 120 | 23 |
| 2010-01-01T00:51 | 15227 | 128 | -74.2 | -86.3 | 120 | 22 |
| 2010-01-01T00:51 | 15267 | 127 | -74.3 | -86.5 | 120 | 22 |
| 2010-01-01T00:51 | 15309 | 126 | -74.6 | -86.8 | 119 | 22 |
| 2010-01-01T00:51 | 15351 | 125 | -74.9 | -87.2 | 118 | 22 |
| 2010-01-01T00:51 | 15390 | 124 | -75.4 | -87.7 | 116 | 22 |
| 2010-01-01T00:51 | 15431 | 123 | -75.6 | -87.8 | 114 | 22 |
| 2010-01-01T00:52 | 15471 | 123 | -75.7 | -88.0 | 111 | 22 |
| 2010-01-01T00:52 | 15513 | 122 | -75.9 | -88.2 | 109 | 22 |
| 2010-01-01T00:52 | 15555 | 121 | -76.2 | -88.5 | 106 | 22 |
| 2010-01-01T00:52 | 15601 | 120 | -76.7 | -88.9 | 104 | 22 |
| 2010-01-01T00:52 | 15645 | 119 | -77.0 | -89.2 | 103 | 22 |
| 2010-01-01T00:52 | 15690 | 118 | -77.4 | -89.5 | 102 | 22 |
| 2010-01-01T00:53 | 15736 | 117 | -77.8 | -89.9 | 100 | 21 |
| 2010-01-01T00:53 | 15781 | 116 | -78.2 | -90.2 | 97 | 21 |
| 2010-01-01T00:53 | 15831 | 115 | -78.4 | -90.4 | 94 | 21 |
| 2010-01-01T00:53 | 15879 | 114 | -78.9 | -90.8 | 92 | 22 |
| 2010-01-01T00:53 | 15931 | 113 | -79.3 | -91.1 | 91 | 22 |
| 2010-01-01T00:53 | 15974 | 112 | -79.7 | -91.3 | 89 | 22 |
| 2010-01-01T00:54 | 16017 | 111 | -80.0 | -91.4 | 88 | 22 |
| 2010-01-01T00:54 | 16059 | 111 | -80.4 | -91.8 | 88 | 23 |
| 2010-01-01T00:54 | 16102 | 110 | -80.8 | -92.1 | 88 | 23 |
| 2010-01-01T00:54 | 16142 | 109 | -81.0 | -92.2 | 87 | 23 |
| 2010-01-01T00:54 | 16183 | 108 | -81.3 | -92.4 | 87 | 23 |
| 2010-01-01T00:54 | 16226 | 107 | -81.2 | -92.4 | 85 | 24 |
| 2010-01-01T00:55 | 16270 | 107 | -80.9 | -92.3 | 82 | 24 |
| 2010-01-01T00:55 | 16312 | 106 | -81.1 | -92.4 | 80 | 24 |
| 2010-01-01T00:55 | 16358 | 105 | -81.6 | -93.0 | 78 | 23 |
| 2010-01-01T00:55 | 16406 | 104 | -81.8 | -93.2 | 76 | 23 |
| 2010-01-01T00:55 | 16450 | 103 | -82.2 | -93.7 | 75 | 22 |
| 2010-01-01T00:55 | 16498 | 102 | -82.6 | -94.1 | 75 | 22 |
| 2010-01-01T00:56 | 16543 | 101 | -82.9 | -94.4 | 75 | 21 |
| 2010-01-01T00:56 | 16589 | 101 | -83.2 | -94.7 | 75 | 22 |
| 2010-01-01T00:56 | 16633 | 100 | -83.3 | -94.8 | 76 | 22 |
| 2010-01-01T00:56 | 16678 | 99 | -83.2 | -94.8 | 77 | 23 |
| 2010-01-01T00:56 | 16723 | 98 | -83.5 | -95.0 | 78 | 23 |
| 2010-01-01T00:56 | 16768 | 97 | -83.5 | -95.1 | 79 | 23 |
| 2010-01-01T00:57 | 16814 | 97 | -83.7 | -95.3 | 80 | 23 |
| 2010-01-01T00:57 | 16862 | 96 | -83.9 | -95.5 | 82 | 23 |
| 2010-01-01T00:57 | 16908 | 95 | -84.0 | -95.6 | 84 | 23 |
| 2010-01-01T00:57 | 16958 | 94 | -83.7 | -95.4 | 86 | 23 |
| 2010-01-01T00:57 | 17006 | 93 | -83.9 | -95.5 | 86 | 22 |
| 2010-01-01T00:57 | 17052 | 93 | -84.0 | -95.7 | 87 | 21 |
| 2010-01-01T00:58 | 17099 | 92 | -84.0 | -95.7 | 87 | 20 |
| 2010-01-01T00:58 | 17144 | 91 | -84.0 | -95.7 | 89 | 19 |
| 2010-01-01T00:58 | 17189 | 90 | -83.7 | -95.5 | 90 | 18 |
| 2010-01-01T00:58 | 17236 | 90 | -83.7 | -95.5 | 91 | 16 |
| 2010-01-01T00:58 | 17281 | 89 | -83.8 | -95.6 | 92 | 16 |
| 2010-01-01T00:58 | 17326 | 88 | -84.1 | -95.9 | 94 | 16 |
| 2010-01-01T00:59 | 17369 | 87 | -83.4 | -95.3 | 97 | 17 |
| 2010-01-01T00:59 | 17412 | 87 | -83.2 | -95.1 | 100 | 18 |
| 2010-01-01T00:59 | 17454 | 86 | -83.1 | -95.0 | 101 | 18 |
| 2010-01-01T00:59 | 17494 | 86 | -82.3 | -94.3 | 100 | 16 |
| 2010-01-01T00:59 | 17539 | 85 | -80.6 | -93.1 | 100 | 13 |
| 2010-01-01T00:59 | 17583 | 84 | -78.1 | -91.0 | 101 | 10 |
| 2010-01-01T01:00 | 17631 | 83 | -77.1 | -90.1 | 103 | 7 |
| 2010-01-01T01:00 | 17682 | 83 | -77.0 | -90.1 | 99 | 5 |
| 2010-01-01T01:00 | 17728 | 82 | -76.1 | -89.4 | 87 | 4 |
| 2010-01-01T01:00 | 17773 | 81 | -75.7 | -89.2 | 69 | 3 |
| 2010-01-01T01:00 | 17819 | 81 | -75.7 | -89.3 | 49 | 2 |
| 2010-01-01T01:00 | 17867 | 80 | -75.9 | -89.7 | 22 | 2 |
| 2010-01-01T01:01 | 17912 | 80 | -76.0 | -89.9 | 346 | 3 |
| 2010-01-01T01:01 | 17959 | 79 | -75.6 | -89.8 | 319 | 4 |
| 2010-01-01T01:01 | 18006 | 78 | -75.3 | -89.6 | 305 | 6 |
| 2010-01-01T01:01 | 18052 | 78 | -74.8 | -89.4 | 299 | 7 |
| 2010-01-01T01:01 | 18096 | 77 | -74.8 | -89.5 | 294 | 9 |
| 2010-01-01T01:01 | 18144 | 76 | -74.9 | -89.7 | 291 | 10 |
| 2010-01-01T01:02 | 18189 | 76 | -74.9 | -89.9 | 289 | 11 |
| 2010-01-01T01:02 | 18233 | 75 | -75.3 | -90.3 | 287 | 11 |
| 2010-01-01T01:02 | 18277 | 75 | -75.7 | -90.8 | 284 | 12 |
| 2010-01-01T01:02 | 18322 | 74 | -76.0 | -91.1 | 281 | 12 |
| 2010-01-01T01:02 | 18366 | 74 | -76.3 | -91.5 | 279 | 13 |
| 2010-01-01T01:02 | 18408 | 73 | -76.7 | -91.8 | 274 | 13 |
| 2010-01-01T01:03 | 18461 | 72 | -76.5 | -91.7 | 268 | 14 |
| 2010-01-01T01:03 | 18508 | 72 | -76.3 | -91.6 | 263 | 15 |
| 2010-01-01T01:03 | 18552 | 71 | -76.2 | -91.5 | 261 | 15 |
| 2010-01-01T01:03 | 18597 | 71 | -76.4 | -91.6 | 259 | 14 |
| 2010-01-01T01:03 | 18643 | 70 | -77.0 | -92.1 | 257 | 13 |
| 2010-01-01T01:03 | 18689 | 69 | -77.1 | -92.2 | 255 | 12 |
| 2010-01-01T01:04 | 18736 | 69 | -76.6 | -91.8 | 257 | 13 |
| 2010-01-01T01:04 | 18783 | 68 | -76.7 | -91.8 | 260 | 13 |
| 2010-01-01T01:04 | 18828 | 68 | -77.2 | -92.1 | 263 | 13 |
| 2010-01-01T01:04 | 18873 | 67 | -77.4 | -92.3 | 265 | 13 |
| 2010-01-01T01:04 | 18918 | 67 | -77.6 | -92.4 | 268 | 13 |
| 2010-01-01T01:04 | 18961 | 66 | -77.7 | -92.5 | 270 | 12 |
| 2010-01-01T01:05 | 19005 | 66 | -78.0 | -92.7 | 272 | 12 |
| 2010-01-01T01:05 | 19049 | 65 | -78.1 | -92.8 | 274 | 11 |
| 2010-01-01T01:05 | 19095 | 65 | -78.2 | -92.9 | 275 | 11 |
| 2010-01-01T01:05 | 19137 | 64 | -78.0 | -92.7 | 275 | 12 |
| 2010-01-01T01:05 | 19179 | 64 | -78.2 | -92.9 | 275 | 14 |
| 2010-01-01T01:05 | 19222 | 63 | -78.2 | -92.8 | 276 | 15 |
| 2010-01-01T01:06 | 19265 | 63 | -78.1 | -92.7 | 278 | 16 |
| 2010-01-01T01:06 | 19309 | 62 | -78.2 | -92.7 | 279 | 16 |
| 2010-01-01T01:06 | 19353 | 62 | -78.3 | -92.8 | 280 | 16 |
| 2010-01-01T01:06 | 19396 | 61 | -78.5 | -93.0 | 282 | 16 |
| 2010-01-01T01:06 | 19440 | 61 | -78.1 | -92.6 | 284 | 16 |
| 2010-01-01T01:06 | 19485 | 60 | -78.2 | -92.7 | 286 | 16 |
| 2010-01-01T01:07 | 19529 | 60 | -78.4 | -92.8 | 289 | 16 |
| 2010-01-01T01:07 | 19574 | 60 | -78.3 | -92.7 | 291 | 16 |
| 2010-01-01T01:07 | 19619 | 59 | -78.1 | -92.5 | 292 | 16 |
| 2010-01-01T01:07 | 19665 | 59 | -77.7 | -92.2 | 294 | 16 |
| 2010-01-01T01:07 | 19711 | 58 | -76.6 | -91.3 | 295 | 16 |
| 2010-01-01T01:07 | 19756 | 58 | -75.6 | -90.6 | 296 | 16 |
| 2010-01-01T01:08 | 19800 | 57 | -75.4 | -90.5 | 297 | 16 |
| 2010-01-01T01:08 | 19845 | 57 | -75.5 | -90.7 | 297 | 17 |
| 2010-01-01T01:08 | 19889 | 56 | -75.5 | -90.8 | 296 | 16 |
| 2010-01-01T01:08 | 19933 | 56 | -75.4 | -90.8 | 293 | 15 |
| 2010-01-01T01:08 | 19979 | 55 | -75.0 | -90.7 | 288 | 15 |
| 2010-01-01T01:08 | 20022 | 55 | -74.4 | -90.4 | 285 | 14 |
| 2010-01-01T01:09 | 20067 | 55 | -74.2 | -90.3 | 284 | 13 |
| 2010-01-01T01:09 | 20112 | 54 | -74.1 | -90.4 | 282 | 13 |
| 2010-01-01T01:09 | 20158 | 54 | -73.7 | -90.2 | 279 | 13 |
| 2010-01-01T01:09 | 20202 | 53 | -73.5 | -90.2 | 275 | 13 |
| 2010-01-01T01:09 | 20247 | 53 | -73.3 | -90.2 | 270 | 12 |
| 2010-01-01T01:09 | 20293 | 53 | -71.5 | -89.2 | 264 | 12 |
| 2010-01-01T01:10 | 20337 | 52 | -70.9 | -88.9 | 260 | 11 |
| 2010-01-01T01:10 | 20382 | 52 | -70.4 | -88.8 | 258 | 11 |
| 2010-01-01T01:10 | 20427 | 51 | -69.6 | -88.5 | 257 | 11 |
| 2010-01-01T01:10 | 20473 | 51 | -69.2 | -88.5 | 255 | 10 |
| 2010-01-01T01:10 | 20519 | 51 | -69.0 | -88.7 | 254 | 10 |
| 2010-01-01T01:10 | 20565 | 50 | -68.8 | -88.9 | 255 | 9 |
| 2010-01-01T01:11 | 20610 | 50 | -68.6 | -89.2 | 256 | 8 |
| 2010-01-01T01:11 | 20655 | 49 | -68.3 | -89.3 | 255 | 7 |
| 2010-01-01T01:11 | 20701 | 49 | -68.3 | -89.6 | 252 | 7 |
| 2010-01-01T01:11 | 20748 | 49 | -68.5 | -90.0 | 250 | 7 |
| 2010-01-01T01:11 | 20794 | 48 | -68.6 | -90.4 | 250 | 7 |
| 2010-01-01T01:11 | 20843 | 48 | -68.7 | -90.7 | 250 | 7 |
| 2010-01-01T01:12 | 20890 | 48 | -68.7 | -90.9 | 250 | 8 |
| 2010-01-01T01:12 | 20937 | 47 | -68.8 | -91.1 | 249 | 8 |
| 2010-01-01T01:12 | 20986 | 47 | -69.2 | -91.5 | 247 | 8 |
| 2010-01-01T01:12 | 21035 | 46 | -69.4 | -91.8 | 244 | 8 |
| 2010-01-01T01:12 | 21083 | 46 | -69.8 | -92.2 | 239 | 8 |
| 2010-01-01T01:12 | 21130 | 46 | -70.2 | -92.5 | 234 | 9 |
| 2010-01-01T01:13 | 21179 | 45 | -70.4 | -92.8 | 229 | 9 |
| 2010-01-01T01:13 | 21228 | 45 | -70.6 | -93.0 | 226 | 9 |
| 2010-01-01T01:13 | 21277 | 45 | -71.0 | -93.3 | 225 | 8 |
| 2010-01-01T01:13 | 21326 | 44 | -71.3 | -93.5 | 224 | 7 |
| 2010-01-01T01:13 | 21375 | 44 | -71.3 | -93.6 | 221 | 6 |
| 2010-01-01T01:13 | 21424 | 43 | -71.5 | -93.7 | 218 | 5 |
| 2010-01-01T01:14 | 21472 | 43 | -71.7 | -93.8 | 218 | 4 |
| 2010-01-01T01:14 | 21520 | 43 | -71.9 | -93.9 | 218 | 3 |
| 2010-01-01T01:14 | 21568 | 42 | -71.6 | -93.8 | 215 | 1 |
| 2010-01-01T01:14 | 21613 | 42 | -70.7 | -93.3 | 226 | 0 |
| 2010-01-01T01:14 | 21659 | 42 | -70.1 | -93.0 | 284 | 0 |
| 2010-01-01T01:14 | 21704 | 41 | -70.4 | -93.2 | 307 | 1 |
| 2010-01-01T01:15 | 21749 | 41 | -70.6 | -93.1 | 315 | 2 |
| 2010-01-01T01:15 | 21795 | 41 | -70.7 | -93.3 | 318 | 3 |
| 2010-01-01T01:15 | 21840 | 41 | -71.1 | -93.6 | 318 | 3 |
| 2010-01-01T01:15 | 21885 | 40 | -71.2 | -93.8 | 310 | 2 |
| 2010-01-01T01:15 | 21931 | 40 | -70.0 | -93.2 | 285 | 1 |
| 2010-01-01T01:15 | 21978 | 40 | -70.4 | -93.3 | 254 | 1 |
| 2010-01-01T01:16 | 22024 | 39 | -70.6 | -93.3 | 208 | 1 |
| 2010-01-01T01:16 | 22071 | 39 | -70.3 | -93.3 | 154 | 2 |
| 2010-01-01T01:16 | 22118 | 39 | -70.4 | -93.4 | 129 | 3 |
| 2010-01-01T01:16 | 22162 | 38 | -70.3 | -93.3 | 116 | 5 |
| 2010-01-01T01:16 | 22210 | 38 | -69.4 | -92.9 | 107 | 6 |
| 2010-01-01T01:16 | 22258 | 38 | -69.3 | -92.8 | 100 | 8 |
| 2010-01-01T01:17 | 22305 | 37 | -69.4 | -93.0 | 97 | 10 |
| 2010-01-01T01:17 | 22354 | 37 | -68.9 | -92.7 | 98 | 11 |
| 2010-01-01T01:17 | 22402 | 37 | -68.6 | -92.6 | 102 | 13 |
| 2010-01-01T01:17 | 22448 | 37 | -68.4 | -92.5 | 106 | 14 |
| 2010-01-01T01:17 | 22497 | 36 | -68.2 | -92.4 | 109 | 15 |
| 2010-01-01T01:17 | 22547 | 36 | -68.1 | -92.3 | 108 | 17 |
| 2010-01-01T01:18 | 22597 | 36 | -67.0 | -91.8 | 105 | 19 |
| 2010-01-01T01:18 | 22641 | 35 | -66.5 | -91.5 | 102 | 21 |
| 2010-01-01T01:18 | 22691 | 35 | -66.2 | -91.4 | 101 | 23 |
| 2010-01-01T01:18 | 22738 | 35 | -66.2 | -91.3 | 100 | 25 |
| 2010-01-01T01:18 | 22784 | 35 | -66.1 | -91.3 | 98 | 26 |
| 2010-01-01T01:18 | 22833 | 34 | -65.7 | -91.2 | 95 | 27 |
| 2010-01-01T01:19 | 22879 | 34 | -65.1 | -90.9 | 92 | 27 |
| 2010-01-01T01:19 | 22925 | 34 | -64.9 | -90.8 | 89 | 27 |
| 2010-01-01T01:19 | 22972 | 34 | -63.7 | -90.2 | 87 | 27 |
| 2010-01-01T01:19 | 23017 | 33 | -63.1 | -89.9 | 86 | 27 |
| 2010-01-01T01:19 | 23064 | 33 | -63.0 | -89.7 | 85 | 27 |
| 2010-01-01T01:19 | 23111 | 33 | -63.2 | -89.8 | 85 | 27 |
| 2010-01-01T01:20 | 23160 | 33 | -63.5 | -89.9 | 85 | 27 |
| 2010-01-01T01:20 | 23205 | 32 | -63.7 | -90.1 | 86 | 28 |
| 2010-01-01T01:20 | 23257 | 32 | -64.0 | -90.3 | 88 | 28 |
| 2010-01-01T01:20 | 23304 | 32 | -63.8 | -90.3 | 91 | 28 |
| 2010-01-01T01:20 | 23352 | 32 | -63.7 | -90.3 | 93 | 29 |
| 2010-01-01T01:20 | 23401 | 31 | -63.5 | -90.2 | 96 | 29 |
| 2010-01-01T01:21 | 23446 | 31 | -63.4 | -90.1 | 97 | 30 |
| 2010-01-01T01:21 | 23496 | 31 | -63.6 | -90.2 | 97 | 31 |
| 2010-01-01T01:21 | 23543 | 31 | -63.9 | -90.3 | 96 | 31 |
| 2010-01-01T01:21 | 23592 | 30 | -63.5 | -90.2 | 94 | 31 |
| 2010-01-01T01:21 | 23638 | 30 | -62.5 | -89.7 | 92 | 31 |
| 2010-01-01T01:21 | 23684 | 30 | -61.4 | -89.1 | 89 | 31 |
| 2010-01-01T01:22 | 23734 | 30 | -60.4 | -88.6 | 86 | 30 |
| 2010-01-01T01:22 | 23781 | 29 | -59.9 | -88.2 | 83 | 30 |
| 2010-01-01T01:22 | 23829 | 29 | -59.7 | -87.9 | 80 | 30 |
| 2010-01-01T01:22 | 23878 | 29 | -59.2 | -87.6 | 79 | 29 |
| 2010-01-01T01:22 | 23925 | 29 | -59.3 | -87.5 | 79 | 29 |
| 2010-01-01T01:22 | 23973 | 29 | -58.9 | -87.3 | 82 | 29 |
| 2010-01-01T01:23 | 24022 | 28 | -58.5 | -87.1 | 84 | 28 |
| 2010-01-01T01:23 | 24068 | 28 | -58.2 | -86.8 | 85 | 28 |
| 2010-01-01T01:23 | 24117 | 28 | -58.2 | -86.8 | 86 | 28 |
| 2010-01-01T01:23 | 24167 | 28 | -58.3 | -86.7 | 86 | 28 |
| 2010-01-01T01:23 | 24217 | 27 | -58.3 | -86.7 | 86 | 29 |
| 2010-01-01T01:23 | 24268 | 27 | -58.5 | -86.7 | 85 | 30 |
| 2010-01-01T01:24 | 24318 | 27 | -58.4 | -86.7 | 84 | 31 |
| 2010-01-01T01:24 | 24370 | 27 | -58.4 | -86.7 | 83 | 31 |
| 2010-01-01T01:24 | 24423 | 27 | -58.0 | -86.5 | 82 | 31 |
| 2010-01-01T01:24 | 24475 | 26 | -57.9 | -86.4 | 82 | 30 |
| 2010-01-01T01:24 | 24525 | 26 | -57.2 | -86.1 | 82 | 29 |
| 2010-01-01T01:24 | 24576 | 26 | -57.0 | -85.9 | 83 | 29 |
| 2010-01-01T01:25 | 24627 | 26 | -56.5 | -85.7 | 85 | 28 |
| 2010-01-01T01:25 | 24677 | 26 | -56.2 | -85.4 | 86 | 28 |
| 2010-01-01T01:25 | 24726 | 25 | -55.3 | -85.0 | 87 | 28 |
| 2010-01-01T01:25 | 24776 | 25 | -54.8 | -84.6 | 88 | 28 |
| 2010-01-01T01:25 | 24826 | 25 | -54.6 | -84.4 | 89 | 28 |
| 2010-01-01T01:25 | 24875 | 25 | -54.4 | -84.2 | 91 | 27 |
| 2010-01-01T01:26 | 24925 | 25 | -54.1 | -84.0 | 92 | 27 |
| 2010-01-01T01:26 | 24972 | 24 | -54.1 | -83.9 | 92 | 27 |
| 2010-01-01T01:26 | 25022 | 24 | -54.2 | -83.8 | 93 | 26 |
| 2010-01-01T01:26 | 25070 | 24 | -54.3 | -83.8 | 94 | 26 |
| 2010-01-01T01:26 | 25113 | 24 | -54.5 | -83.9 | 95 | 26 |
| 2010-01-01T01:26 | 25163 | 24 | -54.4 | -83.8 | 97 | 27 |
| 2010-01-01T01:27 | 25208 | 23 | -54.4 | -83.8 | 99 | 27 |
| 2010-01-01T01:27 | 25257 | 23 | -54.3 | -83.8 | 101 | 27 |
| 2010-01-01T01:27 | 25303 | 23 | -54.2 | -83.7 | 103 | 27 |
| 2010-01-01T01:27 | 25349 | 23 | -54.0 | -83.6 | 105 | 27 |
| 2010-01-01T01:27 | 25401 | 23 | -54.0 | -83.6 | 108 | 27 |
| 2010-01-01T01:27 | 25449 | 23 | -54.2 | -83.7 | 110 | 28 |
| 2010-01-01T01:28 | 25499 | 22 | -54.2 | -83.7 | 111 | 28 |
| 2010-01-01T01:28 | 25549 | 22 | -54.2 | -83.7 | 109 | 29 |
| 2010-01-01T01:28 | 25600 | 22 | -54.3 | -83.7 | 105 | 30 |
| 2010-01-01T01:28 | 25652 | 22 | -53.9 | -83.6 | 101 | 31 |
| 2010-01-01T01:28 | 25700 | 22 | -51.9 | -82.7 | 98 | 32 |
| 2010-01-01T01:28 | 25753 | 22 | -51.8 | -82.5 | 96 | 33 |
| 2010-01-01T01:29 | 25805 | 21 | -51.5 | -82.3 | 95 | 33 |
| 2010-01-01T01:29 | 25856 | 21 | -51.2 | -82.0 | 95 | 34 |
| 2010-01-01T01:29 | 25912 | 21 | -51.2 | -81.8 | 94 | 34 |
| 2010-01-01T01:29 | 25963 | 21 | -51.0 | -81.8 | 93 | 34 |
| 2010-01-01T01:29 | 26018 | 21 | -51.0 | -81.6 | 92 | 34 |
| 2010-01-01T01:29 | 26075 | 21 | -51.1 | -81.6 | 91 | 34 |
| 2010-01-01T01:30 | 26122 | 20 | -51.1 | -81.6 | 91 | 34 |
| 2010-01-01T01:30 | 26178 | 20 | -50.8 | -81.4 | 92 | 34 |
| 2010-01-01T01:30 | 26228 | 20 | -50.5 | -81.3 | 92 | 34 |
| 2010-01-01T01:30 | 26279 | 20 | -50.6 | -81.3 | 93 | 34 |
| 2010-01-01T01:30 | 26330 | 20 | -50.6 | -81.3 | 93 | 35 |
| 2010-01-01T01:30 | 26376 | 20 | -50.7 | -81.3 | 94 | 35 |
| 2010-01-01T01:31 | 26427 | 19 | -50.7 | -81.3 | 95 | 36 |
| 2010-01-01T01:31 | 26472 | 19 | -51.0 | -81.4 | 96 | 36 |
| 2010-01-01T01:31 | 26519 | 19 | -51.3 | -81.6 | 97 | 37 |
| 2010-01-01T01:31 | 26571 | 19 | -51.5 | -81.7 | 98 | 37 |
| 2010-01-01T01:31 | 26614 | 19 | -51.5 | -81.7 | 99 | 37 |
| 2010-01-01T01:31 | 26661 | 19 | -51.7 | -81.9 | 100 | 38 |
| 2010-01-01T01:32 | 26709 | 19 | -52.0 | -82.0 | 100 | 38 |
| 2010-01-01T01:32 | 26750 | 19 | -52.3 | -82.1 | 100 | 39 |
| 2010-01-01T01:32 | 26799 | 18 | -52.1 | -82.1 | 100 | 39 |
| 2010-01-01T01:32 | 26842 | 18 | -52.3 | -82.3 | 99 | 38 |
| 2010-01-01T01:32 | 26888 | 18 | -52.1 | -82.1 | 98 | 38 |
| 2010-01-01T01:32 | 26935 | 18 | -51.9 | -82.0 | 97 | 38 |
| 2010-01-03T23:41 | 4 | 1006 | 31.3 | 25.4 | 200 | 3 |
| 2010-01-03T23:41 | 14 | 1005 | 29.9 | 25.4 | 211 | 1 |
| 2010-01-03T23:41 | 24 | 1004 | 28.3 | 24.3 | 212 | 1 |
| 2010-01-03T23:41 | 35 | 1003 | 28.3 | 24.6 | 211 | 1 |
| 2010-01-03T23:41 | 46 | 1001 | 28.2 | 24.9 | 212 | 2 |
| 2010-01-03T23:41 | 58 | 1000 | 28.1 | 24.9 | 212 | 2 |
| 2010-01-03T23:41 | 69 | 999 | 27.8 | 24.8 | 213 | 2 |
| 2010-01-03T23:41 | 80 | 998 | 27.6 | 24.6 | 214 | 2 |
| 2010-01-03T23:41 | 87 | 997 | 27.4 | 24.6 | 215 | 2 |
| 2010-01-03T23:41 | 96 | 996 | 27.3 | 24.7 | 216 | 2 |
| 2010-01-03T23:41 | 105 | 995 | 27.2 | 24.7 | 217 | 2 |
| 2010-01-03T23:41 | 114 | 994 | 27.1 | 24.7 | 218 | 2 |
| 2010-01-03T23:41 | 123 | 993 | 27.0 | 24.7 | 219 | 2 |
| 2010-01-03T23:41 | 133 | 992 | 27.0 | 24.7 | 221 | 2 |
| 2010-01-03T23:41 | 143 | 991 | 27.1 | 24.3 | 222 | 2 |
| 2010-01-03T23:41 | 152 | 990 | 27.1 | 24.1 | 223 | 2 |
| 2010-01-03T23:41 | 160 | 989 | 27.1 | 24.0 | 225 | 2 |
| 2010-01-03T23:41 | 168 | 988 | 27.0 | 24.0 | 226 | 2 |
| 2010-01-03T23:41 | 177 | 987 | 26.9 | 23.9 | 228 | 2 |
| 2010-01-03T23:41 | 186 | 986 | 26.8 | 23.8 | 230 | 2 |
| 2010-01-03T23:41 | 195 | 985 | 26.8 | 23.9 | 231 | 2 |
| 2010-01-03T23:41 | 205 | 984 | 26.7 | 23.8 | 233 | 2 |
| 2010-01-03T23:41 | 214 | 983 | 26.6 | 23.8 | 235 | 2 |
| 2010-01-03T23:41 | 223 | 982 | 26.5 | 23.7 | 237 | 2 |
| 2010-01-03T23:41 | 230 | 981 | 26.5 | 23.7 | 239 | 2 |
| 2010-01-03T23:41 | 238 | 980 | 26.4 | 23.6 | 241 | 2 |
| 2010-01-03T23:41 | 245 | 979 | 26.4 | 23.6 | 243 | 2 |
| 2010-01-03T23:41 | 252 | 978 | 26.3 | 23.7 | 245 | 2 |
| 2010-01-03T23:41 | 259 | 978 | 26.3 | 23.8 | 247 | 2 |
| 2010-01-03T23:41 | 265 | 977 | 26.2 | 23.8 | 249 | 2 |
| 2010-01-03T23:42 | 271 | 976 | 26.2 | 23.7 | 250 | 2 |
| 2010-01-03T23:42 | 278 | 976 | 26.1 | 23.7 | 252 | 2 |
| 2010-01-03T23:42 | 284 | 975 | 26.1 | 23.6 | 253 | 2 |
| 2010-01-03T23:42 | 289 | 974 | 26.1 | 23.6 | 254 | 2 |
| 2010-01-03T23:42 | 293 | 974 | 26.0 | 23.5 | 255 | 2 |
| 2010-01-03T23:42 | 298 | 973 | 26.0 | 23.4 | 256 | 2 |
| 2010-01-03T23:42 | 304 | 973 | 26.0 | 23.4 | 257 | 2 |
| 2010-01-03T23:42 | 308 | 972 | 26.0 | 23.4 | 257 | 2 |
| 2010-01-03T23:42 | 313 | 972 | 25.9 | 23.3 | 258 | 2 |
| 2010-01-03T23:42 | 318 | 971 | 25.9 | 23.1 | 258 | 2 |
| 2010-01-03T23:42 | 323 | 971 | 25.9 | 22.8 | 259 | 2 |
| 2010-01-03T23:42 | 328 | 970 | 25.9 | 22.8 | 259 | 2 |
| 2010-01-03T23:42 | 333 | 970 | 25.9 | 22.8 | 259 | 2 |
| 2010-01-03T23:42 | 339 | 969 | 25.9 | 22.7 | 260 | 2 |
| 2010-01-03T23:42 | 344 | 968 | 25.8 | 22.7 | 260 | 2 |
| 2010-01-03T23:42 | 349 | 968 | 25.8 | 22.7 | 260 | 2 |
| 2010-01-03T23:42 | 354 | 967 | 25.7 | 22.7 | 261 | 2 |
| 2010-01-03T23:42 | 359 | 967 | 25.7 | 22.6 | 261 | 2 |
| 2010-01-03T23:42 | 365 | 966 | 25.7 | 22.4 | 262 | 2 |
| 2010-01-03T23:42 | 371 | 965 | 25.7 | 22.3 | 262 | 2 |
| 2010-01-03T23:42 | 376 | 965 | 25.7 | 22.3 | 262 | 2 |
| 2010-01-03T23:42 | 381 | 964 | 25.6 | 22.2 | 263 | 2 |
| 2010-01-03T23:42 | 385 | 964 | 25.6 | 22.2 | 263 | 2 |
| 2010-01-03T23:42 | 390 | 963 | 25.6 | 22.2 | 263 | 2 |
| 2010-01-03T23:42 | 395 | 963 | 25.5 | 22.4 | 264 | 2 |
| 2010-01-03T23:42 | 400 | 962 | 25.5 | 22.3 | 264 | 2 |
| 2010-01-03T23:42 | 406 | 962 | 25.5 | 22.2 | 264 | 2 |
| 2010-01-03T23:42 | 411 | 961 | 25.4 | 22.2 | 264 | 2 |
| 2010-01-03T23:42 | 416 | 961 | 25.4 | 22.2 | 265 | 2 |
| 2010-01-03T23:42 | 421 | 960 | 25.3 | 22.2 | 265 | 2 |
| 2010-01-03T23:43 | 426 | 959 | 25.3 | 22.2 | 265 | 2 |
| 2010-01-03T23:43 | 432 | 959 | 25.2 | 22.2 | 266 | 2 |
| 2010-01-03T23:43 | 437 | 958 | 25.2 | 22.3 | 266 | 2 |
| 2010-01-03T23:43 | 443 | 958 | 25.1 | 22.1 | 267 | 2 |
| 2010-01-03T23:43 | 449 | 957 | 25.1 | 22.0 | 268 | 2 |
| 2010-01-03T23:43 | 454 | 956 | 25.1 | 21.9 | 268 | 2 |
| 2010-01-03T23:43 | 460 | 956 | 25.1 | 21.8 | 269 | 2 |
| 2010-01-03T23:43 | 465 | 955 | 25.0 | 21.5 | 270 | 2 |
| 2010-01-03T23:43 | 472 | 954 | 25.0 | 21.4 | 270 | 2 |
| 2010-01-03T23:43 | 478 | 954 | 24.9 | 21.4 | 271 | 2 |
| 2010-01-03T23:43 | 484 | 953 | 24.9 | 21.5 | 271 | 2 |
| 2010-01-03T23:43 | 490 | 953 | 24.8 | 21.5 | 272 | 2 |
| 2010-01-03T23:43 | 495 | 952 | 24.8 | 21.5 | 272 | 2 |
| 2010-01-03T23:43 | 500 | 951 | 24.7 | 21.5 | 272 | 2 |
| 2010-01-03T23:43 | 505 | 951 | 24.7 | 21.5 | 272 | 2 |
| 2010-01-03T23:43 | 511 | 950 | 24.6 | 21.5 | 272 | 2 |
| 2010-01-03T23:43 | 516 | 950 | 24.6 | 21.5 | 272 | 2 |
| 2010-01-03T23:43 | 521 | 949 | 24.6 | 21.4 | 272 | 2 |
| 2010-01-03T23:43 | 526 | 949 | 24.5 | 21.3 | 271 | 2 |
| 2010-01-03T23:43 | 532 | 948 | 24.5 | 21.3 | 271 | 2 |
| 2010-01-03T23:43 | 537 | 947 | 24.5 | 21.2 | 271 | 2 |
| 2010-01-03T23:43 | 542 | 947 | 24.4 | 21.3 | 271 | 2 |
| 2010-01-03T23:43 | 547 | 946 | 24.4 | 21.1 | 271 | 2 |
| 2010-01-03T23:43 | 553 | 946 | 24.4 | 21.0 | 271 | 2 |
| 2010-01-03T23:43 | 558 | 945 | 24.4 | 20.9 | 270 | 2 |
| 2010-01-03T23:43 | 563 | 945 | 24.4 | 20.8 | 270 | 2 |
| 2010-01-03T23:43 | 569 | 944 | 24.4 | 20.7 | 270 | 2 |
| 2010-01-03T23:43 | 574 | 943 | 24.4 | 20.7 | 270 | 2 |
| 2010-01-03T23:43 | 579 | 943 | 24.3 | 20.8 | 270 | 2 |
| 2010-01-03T23:43 | 585 | 942 | 24.3 | 20.9 | 270 | 2 |
| 2010-01-03T23:44 | 590 | 942 | 24.2 | 21.1 | 270 | 2 |
| 2010-01-03T23:44 | 596 | 941 | 24.1 | 21.1 | 270 | 2 |
| 2010-01-03T23:44 | 601 | 941 | 24.1 | 21.0 | 270 | 2 |
| 2010-01-03T23:44 | 606 | 940 | 24.1 | 20.8 | 270 | 2 |
| 2010-01-03T23:44 | 611 | 939 | 24.1 | 20.5 | 270 | 2 |
| 2010-01-03T23:44 | 617 | 939 | 24.1 | 20.2 | 270 | 2 |
| 2010-01-03T23:44 | 622 | 938 | 24.0 | 20.4 | 271 | 2 |
| 2010-01-03T23:44 | 628 | 938 | 23.9 | 20.6 | 271 | 2 |
| 2010-01-03T23:44 | 634 | 937 | 23.9 | 20.7 | 271 | 2 |
| 2010-01-03T23:44 | 639 | 936 | 23.8 | 20.8 | 272 | 2 |
| 2010-01-03T23:44 | 645 | 936 | 23.8 | 20.7 | 273 | 2 |
| 2010-01-03T23:44 | 650 | 935 | 23.8 | 20.7 | 273 | 2 |
| 2010-01-03T23:44 | 655 | 935 | 23.8 | 20.7 | 274 | 2 |
| 2010-01-03T23:44 | 661 | 934 | 23.8 | 20.6 | 275 | 2 |
| 2010-01-03T23:44 | 666 | 934 | 23.7 | 20.5 | 275 | 2 |
| 2010-01-03T23:44 | 672 | 933 | 23.7 | 20.5 | 276 | 2 |
| 2010-01-03T23:44 | 677 | 932 | 23.7 | 20.5 | 277 | 2 |
| 2010-01-03T23:44 | 683 | 932 | 23.7 | 20.4 | 278 | 2 |
| 2010-01-03T23:44 | 688 | 931 | 23.6 | 20.4 | 279 | 2 |
| 2010-01-03T23:44 | 693 | 931 | 23.6 | 20.4 | 280 | 2 |
| 2010-01-03T23:44 | 699 | 930 | 23.6 | 20.4 | 280 | 2 |
| 2010-01-03T23:44 | 704 | 930 | 23.6 | 20.3 | 281 | 2 |
| 2010-01-03T23:44 | 709 | 929 | 23.5 | 20.3 | 282 | 2 |
| 2010-01-03T23:44 | 714 | 928 | 23.5 | 20.2 | 283 | 2 |
| 2010-01-03T23:44 | 719 | 928 | 23.5 | 20.3 | 284 | 2 |
| 2010-01-03T23:44 | 725 | 927 | 23.4 | 20.2 | 285 | 2 |
| 2010-01-03T23:44 | 730 | 927 | 23.4 | 20.1 | 285 | 2 |
| 2010-01-03T23:44 | 735 | 926 | 23.5 | 20.0 | 286 | 2 |
| 2010-01-03T23:44 | 740 | 926 | 23.4 | 19.9 | 287 | 2 |
| 2010-01-03T23:44 | 746 | 925 | 23.4 | 19.9 | 288 | 2 |
| 2010-01-03T23:45 | 751 | 925 | 23.4 | 19.8 | 289 | 2 |
| 2010-01-03T23:45 | 756 | 924 | 23.4 | 19.7 | 290 | 2 |
| 2010-01-03T23:45 | 761 | 924 | 23.4 | 19.4 | 291 | 2 |
| 2010-01-03T23:45 | 766 | 923 | 23.3 | 19.3 | 292 | 2 |
| 2010-01-03T23:45 | 771 | 922 | 23.3 | 19.3 | 293 | 2 |
| 2010-01-03T23:45 | 777 | 922 | 23.3 | 19.4 | 293 | 2 |
| 2010-01-03T23:45 | 781 | 921 | 23.2 | 19.4 | 294 | 2 |
| 2010-01-03T23:45 | 786 | 921 | 23.2 | 19.3 | 294 | 2 |
| 2010-01-03T23:45 | 792 | 920 | 23.2 | 19.2 | 295 | 2 |
| 2010-01-03T23:45 | 797 | 920 | 23.2 | 19.2 | 295 | 2 |
| 2010-01-03T23:45 | 802 | 919 | 23.2 | 19.1 | 295 | 2 |
| 2010-01-03T23:45 | 807 | 919 | 23.2 | 19.1 | 295 | 2 |
| 2010-01-03T23:45 | 813 | 918 | 23.2 | 19.1 | 295 | 2 |
| 2010-01-03T23:45 | 818 | 918 | 23.1 | 19.0 | 295 | 2 |
| 2010-01-03T23:45 | 824 | 917 | 23.1 | 18.8 | 294 | 2 |
| 2010-01-03T23:45 | 829 | 916 | 23.1 | 18.7 | 294 | 2 |
| 2010-01-03T23:45 | 834 | 916 | 23.1 | 18.8 | 294 | 2 |
| 2010-01-03T23:45 | 839 | 915 | 23.0 | 18.9 | 294 | 2 |
| 2010-01-03T23:45 | 844 | 915 | 23.0 | 18.9 | 294 | 2 |
| 2010-01-03T23:45 | 850 | 914 | 22.9 | 18.8 | 294 | 2 |
| 2010-01-03T23:45 | 855 | 914 | 22.9 | 18.7 | 294 | 2 |
| 2010-01-03T23:45 | 859 | 913 | 22.9 | 18.7 | 294 | 2 |
| 2010-01-03T23:45 | 865 | 913 | 22.8 | 18.7 | 295 | 2 |
| 2010-01-03T23:45 | 870 | 912 | 22.8 | 18.8 | 295 | 2 |
| 2010-01-03T23:45 | 875 | 912 | 22.7 | 18.7 | 295 | 2 |
| 2010-01-03T23:45 | 880 | 911 | 22.7 | 18.8 | 295 | 2 |
| 2010-01-03T23:45 | 886 | 910 | 22.6 | 18.8 | 296 | 2 |
| 2010-01-03T23:45 | 891 | 910 | 22.6 | 18.7 | 296 | 2 |
| 2010-01-03T23:45 | 897 | 909 | 22.6 | 18.7 | 296 | 2 |
| 2010-01-03T23:45 | 902 | 909 | 22.6 | 18.4 | 296 | 2 |
| 2010-01-03T23:46 | 907 | 908 | 22.6 | 18.0 | 296 | 2 |
| 2010-01-03T23:46 | 912 | 908 | 22.6 | 17.9 | 296 | 2 |
| 2010-01-03T23:46 | 916 | 907 | 22.6 | 18.0 | 295 | 2 |
| 2010-01-03T23:46 | 921 | 907 | 22.5 | 18.0 | 295 | 2 |
| 2010-01-03T23:46 | 927 | 906 | 22.5 | 17.9 | 294 | 2 |
| 2010-01-03T23:46 | 931 | 906 | 22.5 | 17.9 | 293 | 3 |
| 2010-01-03T23:46 | 936 | 905 | 22.5 | 17.9 | 292 | 3 |
| 2010-01-03T23:46 | 941 | 905 | 22.5 | 17.9 | 291 | 3 |
| 2010-01-03T23:46 | 946 | 904 | 22.4 | 17.9 | 290 | 3 |
| 2010-01-03T23:46 | 952 | 904 | 22.4 | 17.9 | 289 | 3 |
| 2010-01-03T23:46 | 956 | 903 | 22.4 | 18.0 | 288 | 3 |
| 2010-01-03T23:46 | 962 | 903 | 22.3 | 18.0 | 286 | 3 |
| 2010-01-03T23:46 | 967 | 902 | 22.3 | 18.0 | 285 | 3 |
| 2010-01-03T23:46 | 973 | 901 | 22.3 | 18.1 | 284 | 3 |
| 2010-01-03T23:46 | 978 | 901 | 22.2 | 18.1 | 283 | 3 |
| 2010-01-03T23:46 | 983 | 900 | 22.2 | 18.0 | 282 | 3 |
| 2010-01-03T23:46 | 988 | 900 | 22.2 | 18.0 | 281 | 3 |
| 2010-01-03T23:46 | 993 | 899 | 22.1 | 18.0 | 281 | 3 |
| 2010-01-03T23:46 | 999 | 899 | 22.1 | 18.0 | 280 | 3 |
| 2010-01-03T23:46 | 1004 | 898 | 22.0 | 18.2 | 279 | 3 |
| 2010-01-03T23:46 | 1009 | 898 | 21.9 | 18.3 | 278 | 3 |
| 2010-01-03T23:46 | 1014 | 897 | 21.9 | 18.5 | 278 | 3 |
| 2010-01-03T23:46 | 1019 | 897 | 21.8 | 18.5 | 277 | 3 |
| 2010-01-03T23:46 | 1024 | 896 | 21.8 | 18.6 | 277 | 3 |
| 2010-01-03T23:46 | 1030 | 896 | 21.8 | 18.6 | 276 | 3 |
| 2010-01-03T23:46 | 1035 | 895 | 21.7 | 18.6 | 276 | 3 |
| 2010-01-03T23:46 | 1040 | 894 | 21.7 | 18.5 | 275 | 3 |
| 2010-01-03T23:46 | 1046 | 894 | 21.6 | 18.2 | 275 | 3 |
| 2010-01-03T23:46 | 1051 | 893 | 21.6 | 18.1 | 275 | 3 |
| 2010-01-03T23:46 | 1056 | 893 | 21.6 | 18.0 | 275 | 3 |
| 2010-01-03T23:47 | 1061 | 892 | 21.5 | 18.0 | 275 | 3 |
| 2010-01-03T23:47 | 1067 | 892 | 21.5 | 18.0 | 275 | 3 |
| 2010-01-03T23:47 | 1072 | 891 | 21.4 | 18.0 | 275 | 3 |
| 2010-01-03T23:47 | 1077 | 891 | 21.4 | 17.9 | 275 | 3 |
| 2010-01-03T23:47 | 1083 | 890 | 21.4 | 17.9 | 275 | 3 |
| 2010-01-03T23:47 | 1087 | 890 | 21.4 | 17.8 | 276 | 3 |
| 2010-01-03T23:47 | 1093 | 889 | 21.3 | 17.7 | 276 | 3 |
| 2010-01-03T23:47 | 1099 | 888 | 21.3 | 17.6 | 276 | 3 |
| 2010-01-03T23:47 | 1104 | 888 | 21.2 | 17.5 | 277 | 3 |
| 2010-01-03T23:47 | 1109 | 887 | 21.2 | 17.5 | 277 | 3 |
| 2010-01-03T23:47 | 1114 | 887 | 21.1 | 17.5 | 277 | 3 |
| 2010-01-03T23:47 | 1119 | 886 | 21.1 | 17.5 | 278 | 3 |
| 2010-01-03T23:47 | 1125 | 886 | 21.1 | 17.5 | 278 | 3 |
| 2010-01-03T23:47 | 1130 | 885 | 21.1 | 17.4 | 278 | 3 |
| 2010-01-03T23:47 | 1136 | 885 | 21.0 | 17.3 | 279 | 3 |
| 2010-01-03T23:47 | 1141 | 884 | 21.0 | 17.3 | 279 | 3 |
| 2010-01-03T23:47 | 1146 | 884 | 21.0 | 17.2 | 279 | 3 |
| 2010-01-03T23:47 | 1151 | 883 | 20.9 | 17.2 | 279 | 3 |
| 2010-01-03T23:47 | 1156 | 883 | 20.9 | 17.1 | 279 | 3 |
| 2010-01-03T23:47 | 1161 | 882 | 20.8 | 17.1 | 279 | 3 |
| 2010-01-03T23:47 | 1167 | 882 | 20.8 | 17.1 | 279 | 3 |
| 2010-01-03T23:47 | 1173 | 881 | 20.7 | 17.0 | 279 | 3 |
| 2010-01-03T23:47 | 1178 | 880 | 20.7 | 17.0 | 279 | 3 |
| 2010-01-03T23:47 | 1183 | 880 | 20.7 | 17.0 | 279 | 3 |
| 2010-01-03T23:47 | 1188 | 879 | 20.6 | 16.9 | 279 | 3 |
| 2010-01-03T23:47 | 1194 | 879 | 20.6 | 16.5 | 279 | 3 |
| 2010-01-03T23:47 | 1199 | 878 | 20.6 | 16.6 | 279 | 3 |
| 2010-01-03T23:47 | 1204 | 878 | 20.5 | 16.6 | 279 | 3 |
| 2010-01-03T23:47 | 1209 | 877 | 20.5 | 16.7 | 278 | 3 |
| 2010-01-03T23:47 | 1215 | 877 | 20.4 | 16.8 | 278 | 3 |
| 2010-01-03T23:48 | 1220 | 876 | 20.4 | 16.8 | 277 | 3 |
| 2010-01-03T23:48 | 1226 | 876 | 20.4 | 16.9 | 277 | 3 |
| 2010-01-03T23:48 | 1231 | 875 | 20.3 | 16.9 | 276 | 3 |
| 2010-01-03T23:48 | 1237 | 874 | 20.3 | 16.9 | 275 | 3 |
| 2010-01-03T23:48 | 1242 | 874 | 20.3 | 16.9 | 274 | 3 |
| 2010-01-03T23:48 | 1248 | 873 | 20.3 | 16.8 | 273 | 3 |
| 2010-01-03T23:48 | 1253 | 873 | 20.3 | 16.7 | 272 | 3 |
| 2010-01-03T23:48 | 1258 | 872 | 20.3 | 16.6 | 271 | 3 |
| 2010-01-03T23:48 | 1263 | 872 | 20.3 | 16.5 | 271 | 3 |
| 2010-01-03T23:48 | 1269 | 871 | 20.2 | 16.4 | 270 | 3 |
| 2010-01-03T23:48 | 1274 | 871 | 20.2 | 16.4 | 269 | 3 |
| 2010-01-03T23:48 | 1279 | 870 | 20.2 | 16.4 | 268 | 3 |
| 2010-01-03T23:48 | 1285 | 870 | 20.1 | 16.4 | 268 | 3 |
| 2010-01-03T23:48 | 1290 | 869 | 20.1 | 16.4 | 267 | 3 |
| 2010-01-03T23:48 | 1296 | 869 | 20.1 | 16.4 | 267 | 3 |
| 2010-01-03T23:48 | 1301 | 868 | 20.0 | 16.4 | 267 | 3 |
| 2010-01-03T23:48 | 1307 | 867 | 20.0 | 16.5 | 266 | 3 |
| 2010-01-03T23:48 | 1313 | 867 | 19.9 | 16.5 | 266 | 3 |
| 2010-01-03T23:48 | 1319 | 866 | 19.9 | 16.5 | 266 | 3 |
| 2010-01-03T23:48 | 1324 | 866 | 19.8 | 16.5 | 266 | 3 |
| 2010-01-03T23:48 | 1330 | 865 | 19.7 | 16.5 | 265 | 3 |
| 2010-01-03T23:48 | 1335 | 865 | 19.7 | 16.5 | 265 | 3 |
| 2010-01-03T23:48 | 1340 | 864 | 19.6 | 16.3 | 265 | 3 |
| 2010-01-03T23:48 | 1346 | 864 | 19.6 | 16.2 | 265 | 3 |
| 2010-01-03T23:48 | 1351 | 863 | 19.6 | 16.3 | 264 | 3 |
| 2010-01-03T23:48 | 1357 | 862 | 19.5 | 16.4 | 264 | 3 |
| 2010-01-03T23:48 | 1363 | 862 | 19.5 | 16.3 | 264 | 3 |
| 2010-01-03T23:48 | 1369 | 861 | 19.4 | 16.3 | 263 | 3 |
| 2010-01-03T23:48 | 1376 | 861 | 19.4 | 16.3 | 263 | 3 |
| 2010-01-03T23:48 | 1382 | 860 | 19.4 | 16.3 | 262 | 3 |
| 2010-01-03T23:49 | 1388 | 859 | 19.3 | 16.2 | 262 | 3 |
| 2010-01-03T23:49 | 1394 | 859 | 19.3 | 16.2 | 262 | 3 |
| 2010-01-03T23:49 | 1399 | 858 | 19.3 | 16.1 | 261 | 3 |
| 2010-01-03T23:49 | 1405 | 858 | 19.2 | 16.3 | 261 | 3 |
| 2010-01-03T23:49 | 1411 | 857 | 19.2 | 16.3 | 261 | 3 |
| 2010-01-03T23:49 | 1416 | 856 | 19.2 | 16.2 | 261 | 3 |
| 2010-01-03T23:49 | 1422 | 856 | 19.2 | 16.1 | 260 | 3 |
| 2010-01-03T23:49 | 1428 | 855 | 19.2 | 15.9 | 260 | 3 |
| 2010-01-03T23:49 | 1434 | 855 | 19.2 | 15.8 | 260 | 3 |
| 2010-01-03T23:49 | 1440 | 854 | 19.1 | 15.6 | 260 | 3 |
| 2010-01-03T23:49 | 1445 | 854 | 19.1 | 15.4 | 259 | 3 |
| 2010-01-03T23:49 | 1451 | 853 | 19.1 | 15.2 | 259 | 3 |
| 2010-01-03T23:49 | 1457 | 852 | 19.1 | 15.1 | 258 | 3 |
| 2010-01-03T23:49 | 1463 | 852 | 19.1 | 15.2 | 258 | 3 |
| 2010-01-03T23:49 | 1470 | 851 | 19.1 | 15.2 | 258 | 3 |
| 2010-01-03T23:49 | 1476 | 851 | 19.0 | 15.3 | 258 | 3 |
| 2010-01-03T23:49 | 1481 | 850 | 19.0 | 15.4 | 258 | 3 |
| 2010-01-03T23:49 | 1488 | 849 | 18.9 | 15.5 | 258 | 3 |
| 2010-01-03T23:49 | 1494 | 849 | 18.9 | 15.7 | 258 | 3 |
| 2010-01-03T23:49 | 1500 | 848 | 18.8 | 15.5 | 258 | 3 |
| 2010-01-03T23:49 | 1507 | 848 | 18.8 | 15.2 | 258 | 3 |
| 2010-01-03T23:49 | 1513 | 847 | 18.7 | 15.2 | 259 | 4 |
| 2010-01-03T23:49 | 1519 | 846 | 18.7 | 15.2 | 260 | 4 |
| 2010-01-03T23:49 | 1525 | 846 | 18.7 | 15.1 | 261 | 4 |
| 2010-01-03T23:49 | 1531 | 845 | 18.7 | 15.0 | 261 | 4 |
| 2010-01-03T23:49 | 1538 | 844 | 18.7 | 14.8 | 262 | 4 |
| 2010-01-03T23:49 | 1545 | 844 | 18.7 | 14.8 | 263 | 4 |
| 2010-01-03T23:49 | 1551 | 843 | 18.6 | 14.4 | 264 | 4 |
| 2010-01-03T23:49 | 1558 | 843 | 18.7 | 14.2 | 265 | 4 |
| 2010-01-03T23:49 | 1564 | 842 | 18.7 | 14.2 | 265 | 4 |
| 2010-01-03T23:50 | 1571 | 841 | 18.6 | 14.2 | 266 | 4 |
| 2010-01-03T23:50 | 1579 | 840 | 18.6 | 14.2 | 267 | 4 |
| 2010-01-03T23:50 | 1586 | 840 | 18.5 | 14.1 | 267 | 5 |
| 2010-01-03T23:50 | 1593 | 839 | 18.5 | 14.1 | 267 | 5 |
| 2010-01-03T23:50 | 1598 | 839 | 18.4 | 14.1 | 267 | 5 |
| 2010-01-03T23:50 | 1604 | 838 | 18.4 | 14.0 | 267 | 5 |
| 2010-01-03T23:50 | 1610 | 837 | 18.3 | 14.0 | 267 | 5 |
| 2010-01-03T23:50 | 1616 | 837 | 18.3 | 14.0 | 267 | 5 |
| 2010-01-03T23:50 | 1621 | 836 | 18.2 | 14.0 | 267 | 5 |
| 2010-01-03T23:50 | 1627 | 836 | 18.2 | 14.2 | 267 | 5 |
| 2010-01-03T23:50 | 1633 | 835 | 18.1 | 14.2 | 266 | 5 |
| 2010-01-03T23:50 | 1639 | 835 | 18.0 | 14.1 | 266 | 5 |
| 2010-01-03T23:50 | 1645 | 834 | 18.0 | 14.1 | 266 | 5 |
| 2010-01-03T23:50 | 1651 | 833 | 18.0 | 14.1 | 265 | 5 |
| 2010-01-03T23:50 | 1658 | 833 | 17.9 | 14.1 | 265 | 5 |
| 2010-01-03T23:50 | 1663 | 832 | 17.9 | 14.1 | 265 | 5 |
| 2010-01-03T23:50 | 1669 | 832 | 17.8 | 14.2 | 264 | 5 |
| 2010-01-03T23:50 | 1675 | 831 | 17.8 | 14.1 | 264 | 5 |
| 2010-01-03T23:50 | 1681 | 831 | 17.7 | 14.2 | 264 | 5 |
| 2010-01-03T23:50 | 1687 | 830 | 17.7 | 14.4 | 263 | 5 |
| 2010-01-03T23:50 | 1692 | 830 | 17.7 | 14.5 | 263 | 5 |
| 2010-01-03T23:50 | 1698 | 829 | 17.6 | 14.5 | 263 | 5 |
| 2010-01-03T23:50 | 1703 | 828 | 17.6 | 14.4 | 263 | 5 |
| 2010-01-03T23:50 | 1709 | 828 | 17.6 | 14.3 | 263 | 5 |
| 2010-01-03T23:50 | 1714 | 827 | 17.5 | 14.4 | 263 | 5 |
| 2010-01-03T23:50 | 1720 | 827 | 17.5 | 14.4 | 263 | 5 |
| 2010-01-03T23:50 | 1727 | 826 | 17.4 | 14.5 | 263 | 5 |
| 2010-01-03T23:50 | 1733 | 826 | 17.4 | 14.4 | 263 | 5 |
| 2010-01-03T23:50 | 1739 | 825 | 17.3 | 14.4 | 264 | 5 |
| 2010-01-03T23:50 | 1744 | 824 | 17.3 | 14.3 | 264 | 5 |
| 2010-01-03T23:51 | 1750 | 824 | 17.4 | 14.1 | 264 | 5 |
| 2010-01-03T23:51 | 1756 | 823 | 17.3 | 13.8 | 264 | 5 |
| 2010-01-03T23:51 | 1762 | 823 | 17.3 | 13.7 | 265 | 5 |
| 2010-01-03T23:51 | 1768 | 822 | 17.3 | 13.7 | 265 | 5 |
| 2010-01-03T23:51 | 1774 | 822 | 17.3 | 13.7 | 265 | 5 |
| 2010-01-03T23:51 | 1780 | 821 | 17.3 | 13.7 | 265 | 5 |
| 2010-01-03T23:51 | 1786 | 820 | 17.2 | 13.7 | 265 | 5 |
| 2010-01-03T23:51 | 1792 | 820 | 17.2 | 13.8 | 265 | 5 |
| 2010-01-03T23:51 | 1798 | 819 | 17.2 | 13.7 | 265 | 5 |
| 2010-01-03T23:51 | 1804 | 819 | 17.2 | 13.3 | 265 | 5 |
| 2010-01-03T23:51 | 1810 | 818 | 17.3 | 12.7 | 265 | 5 |
| 2010-01-03T23:51 | 1816 | 818 | 17.3 | 12.3 | 264 | 5 |
| 2010-01-03T23:51 | 1821 | 817 | 17.3 | 12.1 | 264 | 5 |
| 2010-01-03T23:51 | 1827 | 817 | 17.3 | 12.0 | 263 | 5 |
| 2010-01-03T23:51 | 1832 | 816 | 17.3 | 11.8 | 263 | 5 |
| 2010-01-03T23:51 | 1838 | 815 | 17.3 | 11.7 | 262 | 5 |
| 2010-01-03T23:51 | 1844 | 815 | 17.2 | 12.0 | 262 | 5 |
| 2010-01-03T23:51 | 1849 | 814 | 17.1 | 12.2 | 261 | 5 |
| 2010-01-03T23:51 | 1855 | 814 | 17.1 | 12.4 | 261 | 5 |
| 2010-01-03T23:51 | 1861 | 813 | 17.0 | 12.6 | 261 | 5 |
| 2010-01-03T23:51 | 1867 | 813 | 17.0 | 12.8 | 261 | 5 |
| 2010-01-03T23:51 | 1873 | 812 | 17.0 | 12.9 | 261 | 5 |
| 2010-01-03T23:51 | 1878 | 812 | 17.0 | 13.0 | 260 | 5 |
| 2010-01-03T23:51 | 1884 | 811 | 16.9 | 13.0 | 261 | 5 |
| 2010-01-03T23:51 | 1890 | 811 | 16.8 | 13.1 | 261 | 6 |
| 2010-01-03T23:51 | 1896 | 810 | 16.8 | 13.2 | 261 | 6 |
| 2010-01-03T23:51 | 1902 | 809 | 16.8 | 13.2 | 261 | 6 |
| 2010-01-03T23:51 | 1907 | 809 | 16.7 | 13.3 | 261 | 6 |
| 2010-01-03T23:51 | 1913 | 808 | 16.7 | 13.4 | 261 | 6 |
| 2010-01-03T23:51 | 1919 | 808 | 16.6 | 13.5 | 261 | 6 |
| 2010-01-03T23:52 | 1924 | 807 | 16.6 | 13.6 | 261 | 6 |
| 2010-01-03T23:52 | 1930 | 807 | 16.6 | 13.6 | 260 | 6 |
| 2010-01-03T23:52 | 1937 | 806 | 16.5 | 13.6 | 260 | 6 |
| 2010-01-03T23:52 | 1943 | 806 | 16.5 | 13.6 | 260 | 6 |
| 2010-01-03T23:52 | 1949 | 805 | 16.4 | 13.6 | 260 | 6 |
| 2010-01-03T23:52 | 1956 | 804 | 16.4 | 13.6 | 260 | 6 |
| 2010-01-03T23:52 | 1963 | 804 | 16.3 | 13.6 | 260 | 6 |
| 2010-01-03T23:52 | 1969 | 803 | 16.3 | 13.6 | 260 | 5 |
| 2010-01-03T23:52 | 1975 | 803 | 16.3 | 13.5 | 260 | 5 |
| 2010-01-03T23:52 | 1980 | 802 | 16.3 | 13.5 | 260 | 5 |
| 2010-01-03T23:52 | 1986 | 802 | 16.3 | 13.5 | 259 | 5 |
| 2010-01-03T23:52 | 1991 | 801 | 16.2 | 13.4 | 259 | 5 |
| 2010-01-03T23:52 | 1996 | 800 | 16.2 | 13.2 | 259 | 5 |
| 2010-01-03T23:52 | 2015 | 799 | 16.1 | 13.3 | 260 | 5 |
| 2010-01-03T23:52 | 2046 | 796 | 15.8 | 13.4 | 261 | 6 |
| 2010-01-03T23:52 | 2077 | 793 | 15.7 | 13.3 | 263 | 6 |
| 2010-01-03T23:53 | 2104 | 790 | 15.5 | 13.2 | 264 | 6 |
| 2010-01-03T23:53 | 2132 | 788 | 15.4 | 12.9 | 263 | 6 |
| 2010-01-03T23:53 | 2159 | 785 | 15.4 | 12.4 | 262 | 6 |
| 2010-01-03T23:53 | 2187 | 783 | 15.3 | 12.5 | 261 | 6 |
| 2010-01-03T23:53 | 2214 | 780 | 15.3 | 11.9 | 260 | 6 |
| 2010-01-03T23:53 | 2242 | 778 | 15.1 | 11.8 | 261 | 5 |
| 2010-01-03T23:54 | 2269 | 775 | 14.9 | 11.8 | 262 | 5 |
| 2010-01-03T23:54 | 2296 | 773 | 14.7 | 11.7 | 265 | 5 |
| 2010-01-03T23:54 | 2325 | 770 | 14.5 | 11.3 | 267 | 5 |
| 2010-01-03T23:54 | 2353 | 768 | 14.3 | 11.4 | 268 | 4 |
| 2010-01-03T23:54 | 2383 | 765 | 14.1 | 11.0 | 268 | 4 |
| 2010-01-03T23:54 | 2410 | 762 | 14.0 | 11.3 | 269 | 4 |
| 2010-01-03T23:55 | 2438 | 760 | 13.8 | 11.3 | 271 | 3 |
| 2010-01-03T23:55 | 2465 | 758 | 13.6 | 10.7 | 272 | 3 |
| 2010-01-03T23:55 | 2493 | 755 | 13.4 | 10.9 | 269 | 3 |
| 2010-01-03T23:55 | 2519 | 753 | 13.2 | 10.9 | 266 | 3 |
| 2010-01-03T23:55 | 2546 | 750 | 13.2 | 10.4 | 268 | 2 |
| 2010-01-03T23:55 | 2571 | 748 | 13.2 | 10.0 | 273 | 2 |
| 2010-01-03T23:56 | 2595 | 746 | 13.1 | 10.3 | 275 | 2 |
| 2010-01-03T23:56 | 2623 | 744 | 13.0 | 10.0 | 271 | 3 |
| 2010-01-03T23:56 | 2649 | 741 | 12.8 | 10.0 | 266 | 3 |
| 2010-01-03T23:56 | 2677 | 739 | 12.7 | 10.0 | 262 | 3 |
| 2010-01-03T23:56 | 2703 | 736 | 12.6 | 9.7 | 261 | 3 |
| 2010-01-03T23:56 | 2728 | 734 | 12.6 | 9.1 | 259 | 3 |
| 2010-01-03T23:57 | 2754 | 732 | 12.6 | 8.1 | 255 | 2 |
| 2010-01-03T23:57 | 2782 | 730 | 12.5 | 8.1 | 250 | 3 |
| 2010-01-03T23:57 | 2809 | 727 | 12.4 | 8.3 | 244 | 3 |
| 2010-01-03T23:57 | 2836 | 725 | 12.3 | 7.9 | 239 | 3 |
| 2010-01-03T23:57 | 2862 | 723 | 12.3 | 7.6 | 235 | 3 |
| 2010-01-03T23:57 | 2889 | 720 | 12.2 | 7.6 | 232 | 3 |
| 2010-01-03T23:58 | 2916 | 718 | 12.0 | 7.1 | 230 | 3 |
| 2010-01-03T23:58 | 2944 | 716 | 11.8 | 7.2 | 230 | 3 |
| 2010-01-03T23:58 | 2972 | 713 | 11.6 | 7.1 | 232 | 3 |
| 2010-01-03T23:58 | 2999 | 711 | 11.5 | 7.1 | 235 | 3 |
| 2010-01-03T23:58 | 3026 | 709 | 11.3 | 6.9 | 240 | 3 |
| 2010-01-03T23:58 | 3054 | 706 | 11.2 | 6.1 | 243 | 3 |
| 2010-01-03T23:59 | 3083 | 704 | 11.0 | 6.7 | 245 | 3 |
| 2010-01-03T23:59 | 3112 | 701 | 10.9 | 6.4 | 247 | 3 |
| 2010-01-03T23:59 | 3139 | 699 | 10.9 | 6.0 | 249 | 3 |
| 2010-01-03T23:59 | 3166 | 697 | 10.8 | 5.9 | 249 | 4 |
| 2010-01-03T23:59 | 3193 | 695 | 10.8 | 5.7 | 249 | 4 |
| 2010-01-03T23:59 | 3219 | 692 | 10.7 | 5.2 | 248 | 4 |
| 2010-01-04T00:00 | 3247 | 690 | 10.6 | 5.6 | 248 | 4 |
| 2010-01-04T00:00 | 3274 | 688 | 10.3 | 5.8 | 249 | 4 |
| 2010-01-04T00:00 | 3301 | 686 | 10.0 | 5.9 | 249 | 4 |
| 2010-01-04T00:00 | 3328 | 683 | 9.8 | 6.0 | 248 | 4 |
| 2010-01-04T00:00 | 3356 | 681 | 9.6 | 5.4 | 245 | 4 |
| 2010-01-04T00:00 | 3384 | 679 | 9.5 | 5.6 | 243 | 4 |
| 2010-01-04T00:01 | 3410 | 677 | 9.4 | 5.5 | 244 | 4 |
| 2010-01-04T00:01 | 3438 | 675 | 9.4 | 5.3 | 249 | 4 |
| 2010-01-04T00:01 | 3466 | 672 | 9.3 | 4.9 | 254 | 4 |
| 2010-01-04T00:01 | 3494 | 670 | 9.2 | 5.0 | 257 | 4 |
| 2010-01-04T00:01 | 3521 | 668 | 9.0 | 4.6 | 258 | 4 |
| 2010-01-04T00:01 | 3549 | 666 | 8.8 | 4.8 | 259 | 4 |
| 2010-01-04T00:02 | 3576 | 663 | 8.6 | 4.2 | 259 | 4 |
| 2010-01-04T00:02 | 3605 | 661 | 8.4 | 4.4 | 258 | 4 |
| 2010-01-04T00:02 | 3632 | 659 | 8.1 | 4.6 | 256 | 4 |
| 2010-01-04T00:02 | 3662 | 657 | 7.9 | 4.1 | 254 | 4 |
| 2010-01-04T00:02 | 3692 | 654 | 7.7 | 3.8 | 251 | 4 |
| 2010-01-04T00:02 | 3725 | 652 | 7.5 | 3.7 | 247 | 4 |
| 2010-01-04T00:03 | 3769 | 648 | 7.3 | 4.1 | 243 | 4 |
| 2010-01-04T00:03 | 3817 | 644 | 7.1 | 3.7 | 242 | 3 |
| 2010-01-04T00:03 | 3867 | 640 | 7.0 | 3.3 | 244 | 3 |
| 2010-01-04T00:03 | 3915 | 637 | 6.9 | 2.6 | 248 | 3 |
| 2010-01-04T00:03 | 3965 | 633 | 6.6 | 2.6 | 250 | 3 |
| 2010-01-04T00:03 | 4016 | 629 | 6.3 | 2.4 | 253 | 3 |
| 2010-01-04T00:04 | 4063 | 625 | 5.9 | 2.4 | 257 | 3 |
| 2010-01-04T00:04 | 4111 | 622 | 5.7 | 2.5 | 261 | 3 |
| 2010-01-04T00:04 | 4165 | 618 | 5.5 | 2.0 | 261 | 2 |
| 2010-01-04T00:04 | 4216 | 614 | 5.2 | 1.7 | 256 | 1 |
| 2010-01-04T00:04 | 4273 | 609 | 4.7 | 1.5 | 247 | 0 |
| 2010-01-04T00:04 | 4323 | 606 | 4.3 | 1.3 | 81 | 0 |
| 2010-01-04T00:05 | 4369 | 602 | 4.2 | 0.9 | 73 | 1 |
| 2010-01-04T00:05 | 4413 | 599 | 4.1 | 0.4 | 68 | 1 |
| 2010-01-04T00:05 | 4455 | 596 | 3.7 | 0.1 | 61 | 1 |
| 2010-01-04T00:05 | 4502 | 593 | 3.3 | -0.1 | 53 | 1 |
| 2010-01-04T00:05 | 4547 | 589 | 2.9 | -0.2 | 44 | 1 |
| 2010-01-04T00:05 | 4590 | 586 | 2.5 | -0.3 | 36 | 1 |
| 2010-01-04T00:06 | 4634 | 583 | 2.1 | -0.4 | 35 | 1 |
| 2010-01-04T00:06 | 4674 | 580 | 1.7 | -0.7 | 39 | 2 |
| 2010-01-04T00:06 | 4716 | 577 | 1.4 | -0.6 | 46 | 2 |
| 2010-01-04T00:06 | 4759 | 574 | 1.0 | -0.5 | 56 | 2 |
| 2010-01-04T00:06 | 4801 | 571 | 0.7 | -0.5 | 67 | 2 |
| 2010-01-04T00:06 | 4848 | 568 | 0.5 | -0.3 | 74 | 2 |
| 2010-01-04T00:07 | 4899 | 564 | 0.3 | -0.4 | 79 | 2 |
| 2010-01-04T00:07 | 4946 | 561 | 0.1 | -0.6 | 82 | 2 |
| 2010-01-04T00:07 | 4995 | 557 | -0.2 | -1.0 | 82 | 3 |
| 2010-01-04T00:07 | 5048 | 554 | -0.5 | -1.3 | 78 | 3 |
| 2010-01-04T00:07 | 5107 | 550 | -0.8 | -1.5 | 73 | 4 |
| 2010-01-04T00:07 | 5157 | 546 | -1.3 | -2.3 | 68 | 4 |
| 2010-01-04T00:08 | 5204 | 543 | -1.3 | -2.3 | 61 | 3 |
| 2010-01-04T00:08 | 5251 | 540 | -1.4 | -2.4 | 52 | 4 |
| 2010-01-04T00:08 | 5304 | 536 | -1.6 | -2.7 | 48 | 5 |
| 2010-01-04T00:08 | 5357 | 533 | -1.9 | -3.0 | 48 | 6 |
| 2010-01-04T00:08 | 5408 | 529 | -2.1 | -3.2 | 50 | 6 |
| 2010-01-04T00:08 | 5463 | 526 | -2.4 | -3.6 | 53 | 7 |
| 2010-01-04T00:09 | 5503 | 523 | -2.6 | -3.8 | 55 | 7 |
| 2010-01-04T00:09 | 5535 | 521 | -2.8 | -4.1 | 55 | 8 |
| 2010-01-04T00:09 | 5566 | 519 | -3.0 | -4.4 | 54 | 8 |
| 2010-01-04T00:09 | 5597 | 517 | -3.2 | -4.5 | 53 | 8 |
| 2010-01-04T00:09 | 5622 | 515 | -3.3 | -5.2 | 53 | 8 |
| 2010-01-04T00:09 | 5648 | 514 | -3.5 | -6.3 | 53 | 8 |
| 2010-01-04T00:10 | 5673 | 512 | -3.7 | -6.1 | 52 | 8 |
| 2010-01-04T00:10 | 5700 | 510 | -3.8 | -6.1 | 52 | 8 |
| 2010-01-04T00:10 | 5728 | 508 | -4.0 | -6.2 | 53 | 8 |
| 2010-01-04T00:10 | 5756 | 507 | -4.2 | -6.3 | 53 | 8 |
| 2010-01-04T00:10 | 5789 | 505 | -4.3 | -6.2 | 54 | 9 |
| 2010-01-04T00:10 | 5817 | 503 | -4.5 | -6.6 | 53 | 9 |
| 2010-01-04T00:11 | 5846 | 501 | -4.6 | -6.5 | 52 | 9 |
| 2010-01-04T00:11 | 5874 | 499 | -4.7 | -6.6 | 52 | 9 |
| 2010-01-04T00:11 | 5903 | 497 | -4.9 | -6.7 | 52 | 9 |
| 2010-01-04T00:11 | 5931 | 496 | -5.1 | -6.8 | 53 | 9 |
| 2010-01-04T00:11 | 5960 | 494 | -5.2 | -7.6 | 53 | 10 |
| 2010-01-04T00:11 | 5988 | 492 | -5.3 | -7.3 | 52 | 10 |
| 2010-01-04T00:12 | 6017 | 490 | -5.5 | -7.3 | 51 | 10 |
| 2010-01-04T00:12 | 6048 | 488 | -5.7 | -7.3 | 52 | 10 |
| 2010-01-04T00:12 | 6075 | 487 | -5.9 | -7.5 | 53 | 10 |
| 2010-01-04T00:12 | 6102 | 485 | -6.0 | -7.6 | 54 | 10 |
| 2010-01-04T00:12 | 6131 | 483 | -6.2 | -7.7 | 57 | 10 |
| 2010-01-04T00:12 | 6159 | 481 | -6.3 | -7.7 | 58 | 10 |
| 2010-01-04T00:13 | 6189 | 480 | -6.5 | -8.1 | 60 | 10 |
| 2010-01-04T00:13 | 6217 | 478 | -6.7 | -8.5 | 62 | 10 |
| 2010-01-04T00:13 | 6245 | 476 | -6.7 | -9.2 | 64 | 10 |
| 2010-01-04T00:13 | 6273 | 474 | -6.8 | -9.5 | 64 | 10 |
| 2010-01-04T00:13 | 6301 | 473 | -7.0 | -10.1 | 64 | 9 |
| 2010-01-04T00:13 | 6327 | 471 | -7.2 | -10.0 | 64 | 9 |
| 2010-01-04T00:14 | 6352 | 470 | -7.3 | -9.7 | 64 | 10 |
| 2010-01-04T00:14 | 6378 | 468 | -7.4 | -9.8 | 62 | 10 |
| 2010-01-04T00:14 | 6404 | 467 | -7.5 | -10.0 | 59 | 10 |
| 2010-01-04T00:14 | 6432 | 465 | -7.4 | -10.1 | 58 | 11 |
| 2010-01-04T00:14 | 6466 | 463 | -7.5 | -10.7 | 59 | 11 |
| 2010-01-04T00:14 | 6504 | 461 | -7.9 | -10.6 | 59 | 11 |
| 2010-01-04T00:15 | 6539 | 458 | -8.2 | -10.7 | 59 | 11 |
| 2010-01-04T00:15 | 6570 | 457 | -8.4 | -10.9 | 61 | 12 |
| 2010-01-04T00:15 | 6602 | 455 | -8.7 | -10.8 | 63 | 12 |
| 2010-01-04T00:15 | 6643 | 452 | -9.0 | -10.8 | 66 | 12 |
| 2010-01-04T00:15 | 6673 | 451 | -9.3 | -11.2 | 68 | 12 |
| 2010-01-04T00:15 | 6703 | 449 | -9.4 | -11.2 | 69 | 12 |
| 2010-01-04T00:16 | 6734 | 447 | -9.6 | -11.4 | 69 | 12 |
| 2010-01-04T00:16 | 6765 | 445 | -9.9 | -11.6 | 69 | 12 |
| 2010-01-04T00:16 | 6793 | 444 | -10.0 | -12.0 | 70 | 13 |
| 2010-01-04T00:16 | 6822 | 442 | -10.2 | -12.1 | 70 | 13 |
| 2010-01-04T00:16 | 6851 | 440 | -10.4 | -12.4 | 71 | 13 |
| 2010-01-04T00:16 | 6887 | 438 | -10.5 | -11.9 | 73 | 13 |
| 2010-01-04T00:17 | 6921 | 436 | -10.7 | -12.2 | 74 | 14 |
| 2010-01-04T00:17 | 6952 | 435 | -10.9 | -12.4 | 74 | 14 |
| 2010-01-04T00:17 | 6983 | 433 | -11.1 | -12.4 | 73 | 14 |
| 2010-01-04T00:17 | 7017 | 431 | -11.3 | -12.5 | 72 | 14 |
| 2010-01-04T00:17 | 7050 | 429 | -11.4 | -13.1 | 71 | 14 |
| 2010-01-04T00:17 | 7081 | 427 | -11.6 | -13.2 | 71 | 14 |
| 2010-01-04T00:18 | 7115 | 425 | -11.8 | -13.3 | 72 | 13 |
| 2010-01-04T00:18 | 7148 | 424 | -12.0 | -13.6 | 74 | 13 |
| 2010-01-04T00:18 | 7179 | 422 | -12.1 | -13.6 | 75 | 12 |
| 2010-01-04T00:18 | 7206 | 420 | -12.3 | -13.8 | 75 | 11 |
| 2010-01-04T00:18 | 7232 | 419 | -12.4 | -14.3 | 75 | 11 |
| 2010-01-04T00:18 | 7259 | 418 | -12.6 | -14.3 | 76 | 10 |
| 2010-01-04T00:19 | 7285 | 416 | -12.6 | -14.4 | 78 | 10 |
| 2010-01-04T00:19 | 7311 | 415 | -12.7 | -14.8 | 81 | 10 |
| 2010-01-04T00:19 | 7338 | 413 | -12.9 | -15.3 | 83 | 9 |
| 2010-01-04T00:19 | 7365 | 412 | -13.0 | -15.7 | 86 | 8 |
| 2010-01-04T00:19 | 7393 | 410 | -12.9 | -17.0 | 90 | 8 |
| 2010-01-04T00:19 | 7423 | 409 | -13.0 | -17.2 | 95 | 7 |
| 2010-01-04T00:20 | 7454 | 407 | -13.1 | -17.4 | 102 | 7 |
| 2010-01-04T00:20 | 7482 | 406 | -13.2 | -17.6 | 108 | 7 |
| 2010-01-04T00:20 | 7520 | 404 | -13.5 | -17.7 | 111 | 8 |
| 2010-01-04T00:20 | 7555 | 402 | -13.7 | -17.8 | 113 | 8 |
| 2010-01-04T00:20 | 7585 | 400 | -13.8 | -18.3 | 116 | 9 |
| 2010-01-04T00:20 | 7613 | 399 | -14.0 | -18.5 | 118 | 9 |
| 2010-01-04T00:21 | 7641 | 397 | -14.2 | -18.7 | 119 | 9 |
| 2010-01-04T00:21 | 7669 | 396 | -14.4 | -18.6 | 120 | 10 |
| 2010-01-04T00:21 | 7697 | 394 | -14.5 | -19.1 | 121 | 10 |
| 2010-01-04T00:21 | 7725 | 393 | -14.8 | -19.1 | 121 | 10 |
| 2010-01-04T00:21 | 7753 | 391 | -15.0 | -19.6 | 121 | 10 |
| 2010-01-04T00:21 | 7784 | 390 | -15.2 | -19.4 | 122 | 10 |
| 2010-01-04T00:22 | 7815 | 388 | -15.4 | -19.4 | 122 | 10 |
| 2010-01-04T00:22 | 7848 | 386 | -15.7 | -19.5 | 123 | 10 |
| 2010-01-04T00:22 | 7881 | 385 | -15.9 | -19.5 | 124 | 10 |
| 2010-01-04T00:22 | 7914 | 383 | -16.2 | -19.8 | 125 | 10 |
| 2010-01-04T00:22 | 7947 | 381 | -16.5 | -20.3 | 124 | 10 |
| 2010-01-04T00:22 | 7982 | 380 | -16.8 | -20.4 | 124 | 10 |
| 2010-01-04T00:23 | 8018 | 378 | -17.0 | -20.7 | 123 | 10 |
| 2010-01-04T00:23 | 8055 | 376 | -17.3 | -20.9 | 122 | 10 |
| 2010-01-04T00:23 | 8095 | 374 | -17.7 | -21.4 | 123 | 10 |
| 2010-01-04T00:23 | 8131 | 372 | -18.0 | -21.3 | 125 | 10 |
| 2010-01-04T00:23 | 8166 | 370 | -18.3 | -21.7 | 127 | 10 |
| 2010-01-04T00:23 | 8207 | 368 | -18.6 | -21.2 | 127 | 10 |
| 2010-01-04T00:24 | 8252 | 366 | -19.0 | -21.5 | 128 | 10 |
| 2010-01-04T00:24 | 8287 | 364 | -19.3 | -21.3 | 130 | 10 |
| 2010-01-04T00:24 | 8321 | 363 | -19.5 | -21.2 | 129 | 9 |
| 2010-01-04T00:24 | 8357 | 361 | -19.8 | -21.4 | 129 | 9 |
| 2010-01-04T00:24 | 8396 | 359 | -20.2 | -21.6 | 130 | 10 |
| 2010-01-04T00:24 | 8438 | 357 | -20.6 | -22.0 | 130 | 10 |
| 2010-01-04T00:25 | 8474 | 355 | -20.6 | -22.5 | 127 | 11 |
| 2010-01-04T00:25 | 8513 | 354 | -20.9 | -23.1 | 123 | 11 |
| 2010-01-04T00:25 | 8551 | 352 | -21.0 | -23.6 | 118 | 11 |
| 2010-01-04T00:25 | 8580 | 350 | -21.0 | -24.4 | 115 | 11 |
| 2010-01-04T00:25 | 8610 | 349 | -21.2 | -25.7 | 116 | 11 |
| 2010-01-04T00:25 | 8640 | 347 | -21.4 | -27.5 | 117 | 11 |
| 2010-01-04T00:26 | 8671 | 346 | -21.6 | -27.2 | 118 | 11 |
| 2010-01-04T00:26 | 8702 | 345 | -21.8 | -27.1 | 119 | 11 |
| 2010-01-04T00:26 | 8734 | 343 | -22.0 | -27.3 | 121 | 11 |
| 2010-01-04T00:26 | 8767 | 342 | -22.2 | -27.4 | 124 | 10 |
| 2010-01-04T00:26 | 8800 | 340 | -22.4 | -27.6 | 127 | 10 |
| 2010-01-04T00:26 | 8833 | 338 | -22.5 | -28.9 | 129 | 9 |
| 2010-01-04T00:27 | 8863 | 337 | -22.5 | -28.1 | 130 | 10 |
| 2010-01-04T00:27 | 8895 | 336 | -22.6 | -27.8 | 131 | 10 |
| 2010-01-04T00:27 | 8926 | 334 | -22.8 | -28.3 | 131 | 10 |
| 2010-01-04T00:27 | 8956 | 333 | -23.1 | -29.4 | 132 | 10 |
| 2010-01-04T00:27 | 8989 | 331 | -23.5 | -30.0 | 133 | 10 |
| 2010-01-04T00:27 | 9021 | 330 | -23.7 | -30.0 | 134 | 11 |
| 2010-01-04T00:28 | 9053 | 328 | -23.9 | -30.9 | 134 | 11 |
| 2010-01-04T00:28 | 9085 | 327 | -24.1 | -30.8 | 134 | 11 |
| 2010-01-04T00:28 | 9116 | 326 | -24.4 | -31.7 | 133 | 11 |
| 2010-01-04T00:28 | 9146 | 324 | -24.6 | -32.0 | 133 | 12 |
| 2010-01-04T00:28 | 9177 | 323 | -25.0 | -33.8 | 133 | 12 |
| 2010-01-04T00:28 | 9208 | 322 | -25.0 | -31.9 | 133 | 12 |
| 2010-01-04T00:29 | 9237 | 320 | -25.2 | -31.5 | 134 | 12 |
| 2010-01-04T00:29 | 9267 | 319 | -25.3 | -31.2 | 135 | 13 |
| 2010-01-04T00:29 | 9297 | 318 | -25.5 | -31.0 | 136 | 13 |
| 2010-01-04T00:29 | 9327 | 316 | -25.7 | -31.0 | 138 | 13 |
| 2010-01-04T00:29 | 9356 | 315 | -25.9 | -31.1 | 138 | 13 |
| 2010-01-04T00:29 | 9386 | 314 | -26.1 | -31.3 | 139 | 13 |
| 2010-01-04T00:30 | 9417 | 312 | -26.4 | -31.4 | 139 | 13 |
| 2010-01-04T00:30 | 9447 | 311 | -26.6 | -31.9 | 140 | 13 |
| 2010-01-04T00:30 | 9477 | 310 | -26.9 | -31.8 | 141 | 13 |
| 2010-01-04T00:30 | 9506 | 309 | -27.1 | -32.0 | 141 | 13 |
| 2010-01-04T00:30 | 9536 | 307 | -27.3 | -32.4 | 141 | 14 |
| 2010-01-04T00:30 | 9562 | 306 | -27.5 | -32.6 | 141 | 14 |
| 2010-01-04T00:31 | 9587 | 305 | -27.7 | -32.7 | 142 | 14 |
| 2010-01-04T00:31 | 9615 | 304 | -27.9 | -32.8 | 143 | 14 |
| 2010-01-04T00:31 | 9641 | 303 | -28.1 | -32.4 | 144 | 14 |
| 2010-01-04T00:31 | 9667 | 302 | -28.2 | -32.4 | 145 | 14 |
| 2010-01-04T00:31 | 9692 | 301 | -28.5 | -32.3 | 146 | 14 |
| 2010-01-04T00:31 | 9717 | 300 | -28.7 | -32.5 | 147 | 14 |
| 2010-01-04T00:32 | 9740 | 299 | -28.9 | -32.5 | 148 | 14 |
| 2010-01-04T00:32 | 9765 | 298 | -29.1 | -32.5 | 150 | 14 |
| 2010-01-04T00:32 | 9788 | 297 | -29.1 | -33.7 | 151 | 14 |
| 2010-01-04T00:32 | 9811 | 296 | -29.3 | -33.8 | 151 | 14 |
| 2010-01-04T00:32 | 9833 | 295 | -29.4 | -33.9 | 152 | 14 |
| 2010-01-04T00:32 | 9856 | 294 | -29.6 | -33.8 | 152 | 14 |
| 2010-01-04T00:33 | 9879 | 293 | -29.8 | -33.7 | 153 | 14 |
| 2010-01-04T00:33 | 9902 | 292 | -30.0 | -33.8 | 153 | 14 |
| 2010-01-04T00:33 | 9926 | 291 | -30.2 | -34.5 | 154 | 14 |
| 2010-01-04T00:33 | 9949 | 290 | -30.3 | -34.7 | 155 | 14 |
| 2010-01-04T00:33 | 9974 | 289 | -30.5 | -35.4 | 156 | 14 |
| 2010-01-04T00:33 | 9997 | 288 | -30.7 | -35.9 | 157 | 14 |
| 2010-01-04T00:34 | 10020 | 287 | -30.9 | -36.0 | 158 | 14 |
| 2010-01-04T00:34 | 10044 | 286 | -31.0 | -36.0 | 158 | 14 |
| 2010-01-04T00:34 | 10068 | 285 | -31.2 | -36.4 | 158 | 14 |
| 2010-01-04T00:34 | 10092 | 284 | -31.4 | -37.0 | 158 | 14 |
| 2010-01-04T00:34 | 10115 | 283 | -31.6 | -37.0 | 158 | 14 |
| 2010-01-04T00:34 | 10139 | 282 | -31.8 | -36.9 | 157 | 14 |
| 2010-01-04T00:35 | 10163 | 281 | -32.0 | -37.2 | 157 | 14 |
| 2010-01-04T00:35 | 10188 | 280 | -32.2 | -37.7 | 157 | 14 |
| 2010-01-04T00:35 | 10212 | 279 | -32.4 | -38.1 | 156 | 14 |
| 2010-01-04T00:35 | 10235 | 279 | -32.6 | -38.4 | 154 | 14 |
| 2010-01-04T00:35 | 10259 | 278 | -32.8 | -38.8 | 153 | 14 |
| 2010-01-04T00:35 | 10284 | 277 | -32.9 | -39.7 | 152 | 14 |
| 2010-01-04T00:36 | 10308 | 276 | -33.1 | -40.2 | 151 | 15 |
| 2010-01-04T00:36 | 10336 | 275 | -33.4 | -40.5 | 150 | 15 |
| 2010-01-04T00:36 | 10368 | 273 | -33.7 | -41.5 | 149 | 15 |
| 2010-01-04T00:36 | 10396 | 272 | -34.0 | -41.9 | 148 | 15 |
| 2010-01-04T00:36 | 10421 | 271 | -34.2 | -42.2 | 148 | 14 |
| 2010-01-04T00:36 | 10447 | 270 | -34.3 | -42.4 | 148 | 14 |
| 2010-01-04T00:37 | 10473 | 269 | -34.6 | -42.2 | 148 | 14 |
| 2010-01-04T00:37 | 10500 | 268 | -34.9 | -42.2 | 148 | 14 |
| 2010-01-04T00:37 | 10526 | 267 | -35.2 | -42.3 | 148 | 14 |
| 2010-01-04T00:37 | 10553 | 266 | -35.3 | -42.3 | 149 | 14 |
| 2010-01-04T00:37 | 10579 | 265 | -35.6 | -42.6 | 149 | 14 |
| 2010-01-04T00:37 | 10607 | 264 | -35.9 | -42.7 | 149 | 15 |
| 2010-01-04T00:38 | 10636 | 263 | -36.1 | -43.0 | 148 | 15 |
| 2010-01-04T00:38 | 10663 | 262 | -36.4 | -43.1 | 148 | 15 |
| 2010-01-04T00:38 | 10689 | 261 | -36.5 | -43.4 | 147 | 15 |
| 2010-01-04T00:38 | 10716 | 260 | -36.8 | -43.9 | 147 | 15 |
| 2010-01-04T00:38 | 10744 | 259 | -37.0 | -44.2 | 146 | 15 |
| 2010-01-04T00:38 | 10773 | 258 | -37.3 | -44.1 | 146 | 15 |
| 2010-01-04T00:39 | 10801 | 257 | -37.5 | -44.3 | 146 | 15 |
| 2010-01-04T00:39 | 10829 | 256 | -37.8 | -45.1 | 145 | 15 |
| 2010-01-04T00:39 | 10856 | 255 | -38.1 | -45.0 | 145 | 15 |
| 2010-01-04T00:39 | 10883 | 254 | -38.3 | -45.1 | 146 | 15 |
| 2010-01-04T00:39 | 10910 | 253 | -38.5 | -45.1 | 146 | 15 |
| 2010-01-04T00:39 | 10935 | 252 | -38.8 | -45.0 | 146 | 15 |
| 2010-01-04T00:40 | 10959 | 251 | -39.0 | -45.3 | 146 | 15 |
| 2010-01-04T00:40 | 10982 | 250 | -39.2 | -45.6 | 146 | 14 |
| 2010-01-04T00:40 | 11006 | 249 | -39.4 | -46.5 | 146 | 14 |
| 2010-01-04T00:40 | 11032 | 248 | -39.5 | -46.9 | 147 | 15 |
| 2010-01-04T00:40 | 11057 | 247 | -39.7 | -47.2 | 147 | 15 |
| 2010-01-04T00:40 | 11081 | 247 | -39.8 | -48.1 | 147 | 15 |
| 2010-01-04T00:41 | 11105 | 246 | -40.1 | -48.3 | 147 | 15 |
| 2010-01-04T00:41 | 11130 | 245 | -40.3 | -48.0 | 148 | 15 |
| 2010-01-04T00:41 | 11156 | 244 | -40.4 | -46.7 | 149 | 15 |
| 2010-01-04T00:41 | 11182 | 243 | -40.5 | -47.3 | 150 | 15 |
| 2010-01-04T00:41 | 11208 | 242 | -40.8 | -47.5 | 150 | 15 |
| 2010-01-04T00:41 | 11235 | 241 | -41.1 | -47.8 | 150 | 15 |
| 2010-01-04T00:42 | 11263 | 240 | -41.3 | -47.8 | 150 | 15 |
| 2010-01-04T00:42 | 11291 | 239 | -41.6 | -48.1 | 150 | 15 |
| 2010-01-04T00:42 | 11319 | 238 | -41.8 | -48.4 | 149 | 15 |
| 2010-01-04T00:42 | 11349 | 237 | -42.0 | -48.2 | 149 | 15 |
| 2010-01-04T00:42 | 11378 | 236 | -42.2 | -48.4 | 148 | 15 |
| 2010-01-04T00:42 | 11405 | 235 | -42.5 | -49.6 | 148 | 15 |
| 2010-01-04T00:43 | 11433 | 234 | -42.7 | -50.0 | 148 | 15 |
| 2010-01-04T00:43 | 11459 | 233 | -42.9 | -50.3 | 148 | 16 |
| 2010-01-04T00:43 | 11486 | 232 | -43.1 | -50.6 | 147 | 16 |
| 2010-01-04T00:43 | 11515 | 231 | -43.4 | -50.8 | 146 | 16 |
| 2010-01-04T00:43 | 11543 | 230 | -43.8 | -51.3 | 145 | 16 |
| 2010-01-04T00:43 | 11571 | 229 | -44.0 | -51.5 | 144 | 16 |
| 2010-01-04T00:44 | 11600 | 228 | -44.2 | -52.1 | 143 | 16 |
| 2010-01-04T00:44 | 11631 | 227 | -44.5 | -52.3 | 143 | 17 |
| 2010-01-04T00:44 | 11659 | 226 | -44.8 | -52.5 | 142 | 17 |
| 2010-01-04T00:44 | 11688 | 225 | -45.0 | -52.6 | 141 | 17 |
| 2010-01-04T00:44 | 11715 | 224 | -45.2 | -52.8 | 140 | 17 |
| 2010-01-04T00:44 | 11742 | 224 | -45.4 | -52.8 | 139 | 17 |
| 2010-01-04T00:45 | 11769 | 223 | -45.7 | -53.6 | 139 | 17 |
| 2010-01-04T00:45 | 11796 | 222 | -45.9 | -54.2 | 139 | 17 |
| 2010-01-04T00:45 | 11822 | 221 | -46.2 | -54.5 | 139 | 17 |
| 2010-01-04T00:45 | 11850 | 220 | -46.4 | -54.7 | 140 | 17 |
| 2010-01-04T00:45 | 11879 | 219 | -46.6 | -54.7 | 141 | 17 |
| 2010-01-04T00:45 | 11906 | 218 | -46.7 | -54.8 | 141 | 17 |
| 2010-01-04T00:46 | 11933 | 217 | -47.1 | -55.4 | 142 | 17 |
| 2010-01-04T00:46 | 11961 | 216 | -47.3 | -55.5 | 142 | 17 |
| 2010-01-04T00:46 | 11991 | 215 | -47.6 | -55.6 | 143 | 17 |
| 2010-01-04T00:46 | 12019 | 214 | -47.8 | -55.4 | 143 | 17 |
| 2010-01-04T00:46 | 12045 | 214 | -48.0 | -55.7 | 143 | 17 |
| 2010-01-04T00:46 | 12072 | 213 | -48.4 | -56.0 | 143 | 17 |
| 2010-01-04T00:47 | 12100 | 212 | -48.6 | -56.1 | 142 | 17 |
| 2010-01-04T00:47 | 12131 | 211 | -48.9 | -56.5 | 142 | 17 |
| 2010-01-04T00:47 | 12161 | 210 | -49.1 | -56.6 | 142 | 17 |
| 2010-01-04T00:47 | 12192 | 209 | -49.5 | -57.2 | 142 | 17 |
| 2010-01-04T00:47 | 12220 | 208 | -49.7 | -57.4 | 141 | 17 |
| 2010-01-04T00:47 | 12250 | 207 | -49.9 | -57.7 | 141 | 17 |
| 2010-01-04T00:48 | 12280 | 206 | -50.2 | -57.9 | 140 | 17 |
| 2010-01-04T00:48 | 12307 | 205 | -50.5 | -58.3 | 140 | 17 |
| 2010-01-04T00:48 | 12333 | 204 | -50.8 | -58.8 | 139 | 17 |
| 2010-01-04T00:48 | 12359 | 204 | -51.0 | -59.1 | 139 | 17 |
| 2010-01-04T00:48 | 12386 | 203 | -51.3 | -58.9 | 138 | 17 |
| 2010-01-04T00:48 | 12413 | 202 | -51.5 | -59.0 | 138 | 17 |
| 2010-01-04T00:49 | 12440 | 201 | -51.8 | -59.6 | 138 | 17 |
| 2010-01-04T00:49 | 12469 | 200 | -51.9 | -59.9 | 137 | 17 |
| 2010-01-04T00:49 | 12499 | 199 | -52.3 | -60.5 | 137 | 17 |
| 2010-01-04T00:49 | 12529 | 198 | -52.6 | -60.6 | 137 | 17 |
| 2010-01-04T00:49 | 12559 | 197 | -52.9 | -60.7 | 137 | 17 |
| 2010-01-04T00:49 | 12590 | 196 | -53.2 | -60.9 | 137 | 17 |
| 2010-01-04T00:50 | 12619 | 196 | -53.5 | -61.1 | 137 | 17 |
| 2010-01-04T00:50 | 12648 | 195 | -53.7 | -61.4 | 138 | 17 |
| 2010-01-04T00:50 | 12677 | 194 | -54.1 | -61.8 | 138 | 17 |
| 2010-01-04T00:50 | 12706 | 193 | -54.3 | -62.2 | 138 | 17 |
| 2010-01-04T00:50 | 12736 | 192 | -54.5 | -62.3 | 137 | 17 |
| 2010-01-04T00:50 | 12765 | 191 | -54.9 | -62.6 | 137 | 17 |
| 2010-01-04T00:51 | 12796 | 190 | -55.1 | -62.7 | 137 | 17 |
| 2010-01-04T00:51 | 12824 | 189 | -55.5 | -63.0 | 136 | 17 |
| 2010-01-04T00:51 | 12852 | 189 | -55.7 | -63.3 | 135 | 17 |
| 2010-01-04T00:51 | 12881 | 188 | -55.9 | -64.2 | 135 | 18 |
| 2010-01-04T00:51 | 12909 | 187 | -56.2 | -65.2 | 135 | 18 |
| 2010-01-04T00:51 | 12937 | 186 | -56.5 | -65.9 | 135 | 18 |
| 2010-01-04T00:52 | 12965 | 185 | -56.8 | -66.4 | 135 | 18 |
| 2010-01-04T00:52 | 12992 | 184 | -57.0 | -66.6 | 135 | 18 |
| 2010-01-04T00:52 | 13021 | 184 | -57.3 | -66.8 | 134 | 18 |
| 2010-01-04T00:52 | 13048 | 183 | -57.6 | -67.2 | 134 | 18 |
| 2010-01-04T00:52 | 13075 | 182 | -57.8 | -67.5 | 134 | 18 |
| 2010-01-04T00:52 | 13102 | 181 | -58.0 | -67.8 | 134 | 18 |
| 2010-01-04T00:53 | 13129 | 180 | -58.2 | -67.9 | 134 | 18 |
| 2010-01-04T00:53 | 13156 | 180 | -58.5 | -68.1 | 134 | 18 |
| 2010-01-04T00:53 | 13182 | 179 | -58.7 | -68.5 | 134 | 18 |
| 2010-01-04T00:53 | 13212 | 178 | -59.0 | -68.9 | 133 | 18 |
| 2010-01-04T00:53 | 13241 | 177 | -59.3 | -69.8 | 134 | 18 |
| 2010-01-04T00:53 | 13269 | 177 | -59.6 | -70.5 | 135 | 19 |
| 2010-01-04T00:54 | 13299 | 176 | -59.7 | -71.8 | 136 | 19 |
| 2010-01-04T00:54 | 13328 | 175 | -59.9 | -73.5 | 137 | 19 |
| 2010-01-04T00:54 | 13354 | 174 | -60.1 | -74.8 | 138 | 19 |
| 2010-01-04T00:54 | 13381 | 173 | -60.3 | -75.9 | 139 | 19 |
| 2010-01-04T00:54 | 13409 | 173 | -60.5 | -76.7 | 141 | 20 |
| 2010-01-04T00:54 | 13436 | 172 | -60.5 | -77.4 | 142 | 20 |
| 2010-01-04T00:55 | 13463 | 171 | -60.8 | -78.3 | 144 | 20 |
| 2010-01-04T00:55 | 13488 | 170 | -60.9 | -79.0 | 145 | 20 |
| 2010-01-04T00:55 | 13514 | 170 | -61.2 | -79.7 | 144 | 20 |
| 2010-01-04T00:55 | 13540 | 169 | -61.0 | -80.1 | 141 | 20 |
| 2010-01-04T00:55 | 13566 | 168 | -61.0 | -80.5 | 139 | 20 |
| 2010-01-04T00:55 | 13595 | 167 | -61.2 | -81.3 | 137 | 20 |
| 2010-01-04T00:56 | 13632 | 167 | -61.4 | -81.8 | 135 | 20 |
| 2010-01-04T00:56 | 13663 | 166 | -61.7 | -82.3 | 133 | 19 |
| 2010-01-04T00:56 | 13694 | 165 | -61.9 | -82.8 | 131 | 19 |
| 2010-01-04T00:56 | 13731 | 164 | -62.3 | -83.2 | 129 | 19 |
| 2010-01-04T00:56 | 13774 | 163 | -62.5 | -83.4 | 126 | 19 |
| 2010-01-04T00:56 | 13810 | 162 | -62.8 | -83.5 | 123 | 19 |
| 2010-01-04T00:57 | 13841 | 161 | -62.8 | -83.4 | 121 | 18 |
| 2010-01-04T00:57 | 13869 | 160 | -63.0 | -83.5 | 119 | 18 |
| 2010-01-04T00:57 | 13899 | 159 | -63.4 | -83.8 | 118 | 18 |
| 2010-01-04T00:57 | 13929 | 159 | -63.6 | -83.8 | 116 | 18 |
| 2010-01-04T00:57 | 13957 | 158 | -63.6 | -83.8 | 115 | 18 |
| 2010-01-04T00:57 | 13987 | 157 | -64.0 | -84.0 | 114 | 18 |
| 2010-01-04T00:58 | 14019 | 156 | -64.1 | -84.0 | 113 | 19 |
| 2010-01-04T00:58 | 14049 | 156 | -64.5 | -84.3 | 112 | 19 |
| 2010-01-04T00:58 | 14078 | 155 | -64.7 | -84.4 | 111 | 19 |
| 2010-01-04T00:58 | 14107 | 154 | -65.1 | -84.6 | 110 | 19 |
| 2010-01-04T00:58 | 14141 | 153 | -65.4 | -84.7 | 110 | 19 |
| 2010-01-04T00:58 | 14173 | 152 | -65.7 | -84.8 | 109 | 19 |
| 2010-01-04T00:59 | 14204 | 152 | -66.0 | -84.9 | 108 | 19 |
| 2010-01-04T00:59 | 14237 | 151 | -66.3 | -84.9 | 107 | 20 |
| 2010-01-04T00:59 | 14267 | 150 | -66.5 | -84.9 | 106 | 20 |
| 2010-01-04T00:59 | 14300 | 149 | -66.8 | -84.8 | 105 | 20 |
| 2010-01-04T00:59 | 14334 | 148 | -67.1 | -84.8 | 105 | 20 |
| 2010-01-04T00:59 | 14366 | 148 | -67.3 | -84.8 | 105 | 20 |
| 2010-01-04T01:00 | 14399 | 147 | -67.7 | -85.0 | 104 | 20 |
| 2010-01-04T01:00 | 14432 | 146 | -68.0 | -85.0 | 104 | 20 |
| 2010-01-04T01:00 | 14463 | 145 | -68.2 | -84.8 | 103 | 20 |
| 2010-01-04T01:00 | 14495 | 145 | -68.6 | -85.0 | 103 | 20 |
| 2010-01-04T01:00 | 14528 | 144 | -68.9 | -85.1 | 102 | 20 |
| 2010-01-04T01:00 | 14563 | 143 | -69.2 | -85.1 | 101 | 20 |
| 2010-01-04T01:01 | 14595 | 142 | -69.4 | -85.1 | 101 | 20 |
| 2010-01-04T01:01 | 14629 | 141 | -69.7 | -85.3 | 100 | 20 |
| 2010-01-04T01:01 | 14663 | 141 | -70.0 | -85.4 | 100 | 20 |
| 2010-01-04T01:01 | 14698 | 140 | -70.4 | -85.6 | 99 | 20 |
| 2010-01-04T01:01 | 14734 | 139 | -70.7 | -85.8 | 99 | 20 |
| 2010-01-04T01:01 | 14769 | 138 | -71.1 | -86.0 | 99 | 20 |
| 2010-01-04T01:02 | 14804 | 137 | -71.4 | -86.1 | 98 | 21 |
| 2010-01-04T01:02 | 14837 | 136 | -71.6 | -86.0 | 98 | 21 |
| 2010-01-04T01:02 | 14867 | 136 | -71.9 | -86.1 | 98 | 21 |
| 2010-01-04T01:02 | 14898 | 135 | -72.3 | -86.2 | 97 | 22 |
| 2010-01-04T01:02 | 14931 | 134 | -72.4 | -86.1 | 97 | 22 |
| 2010-01-04T01:02 | 14964 | 134 | -72.8 | -86.1 | 96 | 23 |
| 2010-01-04T01:03 | 14995 | 133 | -73.1 | -86.1 | 96 | 23 |
| 2010-01-04T01:03 | 15027 | 132 | -73.3 | -86.2 | 96 | 23 |
| 2010-01-04T01:03 | 15057 | 131 | -73.7 | -86.2 | 96 | 23 |
| 2010-01-04T01:03 | 15089 | 131 | -74.0 | -86.3 | 95 | 24 |
| 2010-01-04T01:03 | 15122 | 130 | -74.2 | -86.3 | 94 | 25 |
| 2010-01-04T01:03 | 15154 | 129 | -74.6 | -86.3 | 94 | 25 |
| 2010-01-04T01:04 | 15188 | 129 | -74.8 | -86.3 | 94 | 25 |
| 2010-01-04T01:04 | 15222 | 128 | -75.2 | -86.5 | 95 | 25 |
| 2010-01-04T01:04 | 15254 | 127 | -75.4 | -86.5 | 96 | 26 |
| 2010-01-04T01:04 | 15286 | 126 | -75.6 | -86.4 | 97 | 26 |
| 2010-01-04T01:04 | 15316 | 126 | -75.9 | -86.5 | 97 | 26 |
| 2010-01-04T01:04 | 15345 | 125 | -76.1 | -86.6 | 97 | 26 |
| 2010-01-04T01:05 | 15374 | 124 | -76.2 | -86.6 | 97 | 26 |
| 2010-01-04T01:05 | 15405 | 124 | -76.5 | -86.8 | 96 | 27 |
| 2010-01-04T01:05 | 15436 | 123 | -76.7 | -86.9 | 95 | 27 |
| 2010-01-04T01:05 | 15469 | 122 | -77.1 | -87.2 | 94 | 27 |
| 2010-01-04T01:05 | 15503 | 122 | -77.4 | -87.4 | 93 | 27 |
| 2010-01-04T01:05 | 15537 | 121 | -77.6 | -87.5 | 92 | 27 |
| 2010-01-04T01:06 | 15568 | 120 | -77.8 | -87.7 | 92 | 27 |
| 2010-01-04T01:06 | 15600 | 120 | -78.3 | -88.1 | 92 | 27 |
| 2010-01-04T01:06 | 15632 | 119 | -78.6 | -88.4 | 92 | 27 |
| 2010-01-04T01:06 | 15664 | 118 | -78.7 | -88.4 | 91 | 27 |
| 2010-01-04T01:06 | 15697 | 118 | -79.2 | -88.9 | 91 | 27 |
| 2010-01-04T01:06 | 15732 | 117 | -79.5 | -89.2 | 91 | 27 |
| 2010-01-04T01:07 | 15766 | 116 | -79.7 | -89.4 | 91 | 27 |
| 2010-01-04T01:07 | 15799 | 116 | -80.0 | -89.6 | 91 | 26 |
| 2010-01-04T01:07 | 15831 | 115 | -80.4 | -90.0 | 91 | 26 |
| 2010-01-04T01:07 | 15863 | 114 | -80.7 | -90.2 | 91 | 26 |
| 2010-01-04T01:07 | 15896 | 114 | -81.0 | -90.5 | 91 | 26 |
| 2010-01-04T01:07 | 15930 | 113 | -81.4 | -90.8 | 90 | 26 |
| 2010-01-04T01:08 | 15963 | 112 | -81.7 | -91.1 | 90 | 26 |
| 2010-01-04T01:08 | 15998 | 111 | -82.0 | -91.4 | 89 | 26 |
| 2010-01-04T01:08 | 16032 | 111 | -82.3 | -91.6 | 89 | 27 |
| 2010-01-04T01:08 | 16065 | 110 | -82.4 | -91.7 | 89 | 27 |
| 2010-01-04T01:08 | 16098 | 110 | -82.8 | -92.1 | 90 | 27 |
| 2010-01-04T01:08 | 16132 | 109 | -82.9 | -92.1 | 91 | 27 |
| 2010-01-04T01:09 | 16165 | 108 | -83.0 | -92.2 | 92 | 27 |
| 2010-01-04T01:09 | 16198 | 108 | -83.3 | -92.4 | 93 | 27 |
| 2010-01-04T01:09 | 16230 | 107 | -83.6 | -92.6 | 94 | 28 |
| 2010-01-04T01:09 | 16262 | 106 | -83.6 | -92.6 | 95 | 28 |
| 2010-01-04T01:09 | 16294 | 106 | -83.9 | -92.9 | 95 | 28 |
| 2010-01-04T01:09 | 16327 | 105 | -84.0 | -92.9 | 95 | 28 |
| 2010-01-04T01:10 | 16359 | 104 | -84.3 | -93.2 | 95 | 28 |
| 2010-01-04T01:10 | 16391 | 104 | -84.6 | -93.5 | 94 | 28 |
| 2010-01-04T01:10 | 16423 | 103 | -84.7 | -93.7 | 93 | 28 |
| 2010-01-04T01:10 | 16457 | 103 | -84.7 | -93.7 | 92 | 28 |
| 2010-01-04T01:10 | 16491 | 102 | -84.7 | -93.6 | 92 | 28 |
| 2010-01-04T01:10 | 16526 | 101 | -85.0 | -93.9 | 92 | 29 |
| 2010-01-04T01:11 | 16560 | 101 | -84.7 | -93.6 | 94 | 29 |
| 2010-01-04T01:11 | 16595 | 100 | -84.5 | -93.4 | 96 | 29 |
| 2010-01-04T01:11 | 16630 | 99 | -84.4 | -93.3 | 98 | 29 |
| 2010-01-04T01:11 | 16665 | 99 | -84.5 | -93.4 | 99 | 28 |
| 2010-01-04T01:11 | 16700 | 98 | -84.7 | -93.6 | 100 | 28 |
| 2010-01-04T01:11 | 16735 | 98 | -85.0 | -93.9 | 101 | 27 |
| 2010-01-04T01:12 | 16770 | 97 | -85.2 | -94.0 | 102 | 27 |
| 2010-01-04T01:12 | 16805 | 96 | -85.3 | -94.2 | 104 | 27 |
| 2010-01-04T01:12 | 16839 | 96 | -85.8 | -94.6 | 105 | 27 |
| 2010-01-04T01:12 | 16874 | 95 | -86.1 | -94.9 | 106 | 26 |
| 2010-01-04T01:12 | 16907 | 95 | -85.9 | -94.7 | 107 | 25 |
| 2010-01-04T01:12 | 16941 | 94 | -85.6 | -94.4 | 108 | 24 |
| 2010-01-04T01:13 | 16974 | 93 | -85.0 | -93.9 | 107 | 23 |
| 2010-01-04T01:13 | 17006 | 93 | -84.9 | -93.8 | 107 | 22 |
| 2010-01-04T01:13 | 17037 | 92 | -84.8 | -93.8 | 106 | 20 |
| 2010-01-04T01:13 | 17068 | 92 | -84.1 | -93.3 | 106 | 18 |
| 2010-01-04T01:13 | 17098 | 91 | -83.7 | -92.9 | 106 | 17 |
| 2010-01-04T01:13 | 17128 | 91 | -83.4 | -92.7 | 107 | 15 |
| 2010-01-04T01:14 | 17158 | 90 | -83.1 | -92.5 | 107 | 14 |
| 2010-01-04T01:14 | 17188 | 90 | -83.3 | -92.7 | 107 | 13 |
| 2010-01-04T01:14 | 17218 | 89 | -83.4 | -92.8 | 107 | 12 |
| 2010-01-04T01:14 | 17250 | 89 | -83.3 | -92.8 | 106 | 11 |
| 2010-01-04T01:14 | 17281 | 88 | -83.4 | -92.9 | 106 | 11 |
| 2010-01-04T01:14 | 17313 | 88 | -82.6 | -92.3 | 107 | 11 |
| 2010-01-04T01:15 | 17344 | 87 | -82.8 | -92.5 | 108 | 10 |
| 2010-01-04T01:15 | 17377 | 87 | -83.1 | -92.8 | 108 | 8 |
| 2010-01-04T01:15 | 17415 | 86 | -80.6 | -90.9 | 109 | 6 |
| 2010-01-04T01:15 | 17464 | 86 | -78.9 | -89.4 | 118 | 2 |
| 2010-01-04T01:15 | 17504 | 85 | -78.7 | -89.3 | 193 | 1 |
| 2010-01-04T01:15 | 17550 | 84 | -78.2 | -88.9 | 238 | 3 |
| 2010-01-04T01:16 | 17604 | 83 | -78.3 | -89.2 | 248 | 6 |
| 2010-01-04T01:16 | 17659 | 83 | -78.5 | -89.5 | 254 | 8 |
| 2010-01-04T01:16 | 17690 | 82 | -76.3 | -87.9 | 259 | 10 |
| 2010-01-04T01:16 | 17723 | 82 | -76.2 | -87.8 | 262 | 12 |
| 2010-01-04T01:16 | 17755 | 81 | -76.3 | -88.0 | 264 | 13 |
| 2010-01-04T01:16 | 17783 | 81 | -76.2 | -88.1 | 266 | 14 |
| 2010-01-04T01:17 | 17813 | 81 | -76.2 | -88.2 | 268 | 14 |
| 2010-01-04T01:17 | 17843 | 80 | -76.2 | -88.4 | 269 | 15 |
| 2010-01-04T01:17 | 17872 | 80 | -75.6 | -88.2 | 269 | 16 |
| 2010-01-04T01:17 | 17902 | 79 | -75.1 | -88.0 | 269 | 16 |
| 2010-01-04T01:17 | 17933 | 79 | -75.1 | -88.2 | 269 | 16 |
| 2010-01-04T01:17 | 17964 | 78 | -75.2 | -88.4 | 269 | 17 |
| 2010-01-04T01:18 | 17997 | 78 | -75.4 | -88.8 | 269 | 17 |
| 2010-01-04T01:18 | 18032 | 78 | -75.5 | -89.1 | 269 | 17 |
| 2010-01-04T01:18 | 18069 | 77 | -75.7 | -89.5 | 270 | 17 |
| 2010-01-04T01:18 | 18105 | 77 | -75.9 | -89.8 | 271 | 17 |
| 2010-01-04T01:18 | 18141 | 76 | -76.1 | -90.1 | 271 | 17 |
| 2010-01-04T01:18 | 18176 | 76 | -76.1 | -90.3 | 271 | 16 |
| 2010-01-04T01:19 | 18208 | 75 | -76.5 | -90.7 | 272 | 16 |
| 2010-01-04T01:19 | 18241 | 75 | -76.5 | -90.9 | 272 | 16 |
| 2010-01-04T01:19 | 18273 | 74 | -76.9 | -91.3 | 273 | 15 |
| 2010-01-04T01:19 | 18306 | 74 | -76.5 | -91.1 | 273 | 15 |
| 2010-01-04T01:19 | 18339 | 73 | -76.9 | -91.5 | 272 | 15 |
| 2010-01-04T01:19 | 18371 | 73 | -76.8 | -91.4 | 270 | 15 |
| 2010-01-04T01:20 | 18405 | 73 | -76.6 | -91.3 | 267 | 15 |
| 2010-01-04T01:20 | 18438 | 72 | -76.2 | -91.1 | 263 | 14 |
| 2010-01-04T01:20 | 18472 | 72 | -76.0 | -91.1 | 260 | 14 |
| 2010-01-04T01:20 | 18506 | 71 | -75.9 | -91.1 | 259 | 13 |
| 2010-01-04T01:20 | 18541 | 71 | -75.6 | -90.9 | 259 | 12 |
| 2010-01-04T01:20 | 18576 | 71 | -75.4 | -90.8 | 259 | 12 |
| 2010-01-04T01:21 | 18611 | 70 | -75.1 | -90.6 | 260 | 13 |
| 2010-01-04T01:21 | 18646 | 70 | -75.1 | -90.6 | 260 | 12 |
| 2010-01-04T01:21 | 18683 | 69 | -75.3 | -90.8 | 259 | 12 |
| 2010-01-04T01:21 | 18719 | 69 | -75.1 | -90.8 | 258 | 11 |
| 2010-01-04T01:21 | 18754 | 68 | -75.2 | -91.0 | 258 | 11 |
| 2010-01-04T01:21 | 18790 | 68 | -74.7 | -90.7 | 260 | 11 |
| 2010-01-04T01:22 | 18825 | 68 | -74.5 | -90.6 | 263 | 11 |
| 2010-01-04T01:22 | 18859 | 67 | -74.0 | -90.3 | 268 | 11 |
| 2010-01-04T01:22 | 18892 | 67 | -73.7 | -90.2 | 272 | 11 |
| 2010-01-04T01:22 | 18926 | 66 | -73.5 | -90.0 | 276 | 11 |
| 2010-01-04T01:22 | 18959 | 66 | -73.4 | -90.2 | 278 | 11 |
| 2010-01-04T01:22 | 18993 | 66 | -73.7 | -90.5 | 280 | 12 |
| 2010-01-04T01:23 | 19026 | 65 | -73.4 | -90.4 | 280 | 12 |
| 2010-01-04T01:23 | 19057 | 65 | -73.6 | -90.6 | 280 | 13 |
| 2010-01-04T01:23 | 19090 | 65 | -73.0 | -90.3 | 280 | 13 |
| 2010-01-04T01:23 | 19121 | 64 | -73.1 | -90.4 | 280 | 13 |
| 2010-01-04T01:23 | 19154 | 64 | -73.1 | -90.6 | 281 | 13 |
| 2010-01-04T01:23 | 19185 | 64 | -73.1 | -90.6 | 282 | 13 |
| 2010-01-04T01:24 | 19217 | 63 | -72.8 | -90.4 | 282 | 13 |
| 2010-01-04T01:24 | 19249 | 63 | -72.8 | -90.6 | 282 | 12 |
| 2010-01-04T01:24 | 19282 | 62 | -72.6 | -90.4 | 283 | 12 |
| 2010-01-04T01:24 | 19315 | 62 | -72.8 | -90.7 | 286 | 11 |
| 2010-01-04T01:24 | 19347 | 62 | -72.9 | -90.8 | 288 | 11 |
| 2010-01-04T01:24 | 19379 | 61 | -73.3 | -91.2 | 287 | 11 |
| 2010-01-04T01:25 | 19413 | 61 | -73.2 | -91.4 | 283 | 10 |
| 2010-01-04T01:25 | 19447 | 61 | -72.9 | -91.2 | 277 | 10 |
| 2010-01-04T01:25 | 19481 | 60 | -72.7 | -91.1 | 270 | 9 |
| 2010-01-04T01:25 | 19514 | 60 | -72.4 | -91.0 | 263 | 9 |
| 2010-01-04T01:25 | 19547 | 60 | -72.4 | -90.9 | 257 | 9 |
| 2010-01-04T01:25 | 19580 | 59 | -72.7 | -91.2 | 252 | 9 |
| 2010-01-04T01:26 | 19616 | 59 | -72.8 | -91.3 | 248 | 10 |
| 2010-01-04T01:26 | 19650 | 59 | -72.9 | -91.6 | 245 | 10 |
| 2010-01-04T01:26 | 19685 | 58 | -73.3 | -91.9 | 242 | 11 |
| 2010-01-04T01:26 | 19719 | 58 | -73.2 | -92.0 | 241 | 12 |
| 2010-01-04T01:26 | 19752 | 58 | -73.2 | -92.0 | 242 | 12 |
| 2010-01-04T01:26 | 19788 | 57 | -73.4 | -92.1 | 243 | 12 |
| 2010-01-04T01:27 | 19822 | 57 | -73.6 | -92.2 | 244 | 12 |
| 2010-01-04T01:27 | 19857 | 57 | -73.6 | -92.3 | 243 | 12 |
| 2010-01-04T01:27 | 19892 | 56 | -73.9 | -92.5 | 242 | 12 |
| 2010-01-04T01:27 | 19927 | 56 | -73.8 | -92.5 | 240 | 12 |
| 2010-01-04T01:27 | 19961 | 56 | -74.2 | -92.8 | 238 | 12 |
| 2010-01-04T01:27 | 19995 | 55 | -74.2 | -92.8 | 237 | 12 |
| 2010-01-04T01:28 | 20029 | 55 | -74.4 | -93.0 | 236 | 12 |
| 2010-01-04T01:28 | 20064 | 55 | -74.5 | -93.1 | 236 | 12 |
| 2010-01-04T01:28 | 20099 | 54 | -74.5 | -93.0 | 235 | 11 |
| 2010-01-04T01:28 | 20133 | 54 | -74.6 | -93.1 | 234 | 10 |
| 2010-01-04T01:28 | 20168 | 54 | -74.5 | -93.0 | 232 | 9 |
| 2010-01-04T01:28 | 20203 | 53 | -74.6 | -93.0 | 232 | 9 |
| 2010-01-04T01:29 | 20237 | 53 | -74.4 | -92.9 | 236 | 8 |
| 2010-01-04T01:29 | 20271 | 53 | -74.0 | -92.7 | 243 | 7 |
| 2010-01-04T01:29 | 20307 | 52 | -73.1 | -92.1 | 250 | 6 |
| 2010-01-04T01:29 | 20342 | 52 | -72.3 | -91.5 | 257 | 7 |
| 2010-01-04T01:29 | 20376 | 52 | -71.7 | -91.1 | 265 | 7 |
| 2010-01-04T01:29 | 20410 | 52 | -71.4 | -90.8 | 272 | 6 |
| 2010-01-04T01:30 | 20445 | 51 | -71.2 | -90.9 | 277 | 6 |
| 2010-01-04T01:30 | 20479 | 51 | -71.2 | -90.9 | 280 | 6 |
| 2010-01-04T01:30 | 20515 | 51 | -71.3 | -91.1 | 280 | 5 |
| 2010-01-04T01:30 | 20548 | 50 | -71.1 | -91.1 | 278 | 5 |
| 2010-01-04T01:30 | 20584 | 50 | -71.3 | -91.4 | 278 | 5 |
| 2010-01-04T01:30 | 20619 | 50 | -71.6 | -91.8 | 281 | 4 |
| 2010-01-04T01:31 | 20654 | 49 | -71.8 | -92.0 | 287 | 4 |
| 2010-01-04T01:31 | 20688 | 49 | -72.1 | -92.1 | 296 | 4 |
| 2010-01-04T01:31 | 20725 | 49 | -72.0 | -92.3 | 306 | 3 |
| 2010-01-04T01:31 | 20761 | 49 | -71.2 | -91.9 | 314 | 3 |
| 2010-01-04T01:31 | 20796 | 48 | -70.0 | -91.3 | 323 | 2 |
| 2010-01-04T01:31 | 20831 | 48 | -69.9 | -91.2 | 334 | 1 |
| 2010-01-04T01:32 | 20866 | 48 | -69.7 | -91.2 | 339 | 1 |
| 2010-01-04T01:32 | 20901 | 47 | -69.6 | -91.2 | 337 | 2 |
| 2010-01-04T01:32 | 20936 | 47 | -69.4 | -91.1 | 334 | 2 |
| 2010-01-04T01:32 | 20969 | 47 | -69.3 | -91.1 | 329 | 2 |
| 2010-01-04T01:32 | 21004 | 47 | -69.3 | -91.2 | 323 | 2 |
| 2010-01-04T01:32 | 21038 | 46 | -69.1 | -91.2 | 324 | 2 |
| 2010-01-04T01:33 | 21073 | 46 | -69.0 | -91.2 | 330 | 3 |
| 2010-01-04T01:33 | 21108 | 46 | -69.1 | -91.4 | 341 | 3 |
| 2010-01-04T01:33 | 21143 | 46 | -69.0 | -91.5 | 355 | 2 |
| 2010-01-04T01:33 | 21178 | 45 | -69.0 | -91.5 | 9 | 3 |
| 2010-01-04T01:33 | 21210 | 45 | -69.1 | -91.7 | 17 | 3 |
| 2010-01-04T01:33 | 21246 | 45 | -69.1 | -91.9 | 20 | 3 |
| 2010-01-04T01:34 | 21278 | 45 | -69.2 | -92.0 | 23 | 3 |
| 2010-01-04T01:34 | 21313 | 44 | -68.7 | -91.7 | 29 | 4 |
| 2010-01-04T01:34 | 21349 | 44 | -68.3 | -91.3 | 36 | 4 |
| 2010-01-04T01:34 | 21381 | 44 | -68.2 | -91.0 | 39 | 5 |
| 2010-01-04T01:34 | 21416 | 44 | -68.0 | -91.1 | 40 | 4 |
| 2010-01-04T01:34 | 21451 | 43 | -68.4 | -91.3 | 42 | 4 |
| 2010-01-04T01:35 | 21486 | 43 | -68.5 | -91.4 | 45 | 3 |
| 2010-01-04T01:35 | 21521 | 43 | -68.8 | -91.6 | 54 | 2 |
| 2010-01-04T01:35 | 21557 | 43 | -68.8 | -91.9 | 72 | 2 |
| 2010-01-04T01:35 | 21591 | 42 | -69.0 | -92.2 | 89 | 3 |
| 2010-01-04T01:35 | 21626 | 42 | -68.4 | -91.9 | 99 | 5 |
| 2010-01-04T01:35 | 21661 | 42 | -66.7 | -90.9 | 105 | 7 |
| 2010-01-04T01:36 | 21696 | 42 | -66.5 | -90.8 | 107 | 8 |
| 2010-01-04T01:36 | 21732 | 41 | -66.4 | -90.7 | 108 | 8 |
| 2010-01-04T01:36 | 21767 | 41 | -66.8 | -91.0 | 108 | 9 |
| 2010-01-04T01:36 | 21801 | 41 | -67.1 | -91.2 | 108 | 9 |
| 2010-01-04T01:36 | 21835 | 41 | -67.2 | -91.3 | 108 | 9 |
| 2010-01-04T01:36 | 21870 | 40 | -67.3 | -91.3 | 108 | 9 |
| 2010-01-04T01:37 | 21904 | 40 | -67.6 | -91.5 | 108 | 9 |
| 2010-01-04T01:37 | 21937 | 40 | -67.9 | -91.6 | 106 | 10 |
| 2010-01-04T01:37 | 21970 | 40 | -67.8 | -91.5 | 105 | 10 |
| 2010-01-04T01:37 | 22002 | 39 | -68.1 | -91.6 | 102 | 11 |
| 2010-01-04T01:37 | 22036 | 39 | -68.0 | -91.8 | 100 | 11 |
| 2010-01-04T01:37 | 22068 | 39 | -68.1 | -91.9 | 99 | 11 |
| 2010-01-04T01:38 | 22102 | 39 | -68.2 | -92.0 | 98 | 12 |
| 2010-01-04T01:38 | 22135 | 39 | -68.0 | -92.1 | 97 | 14 |
| 2010-01-04T01:38 | 22168 | 38 | -67.4 | -91.5 | 96 | 15 |
| 2010-01-04T01:38 | 22203 | 38 | -67.4 | -91.7 | 95 | 16 |
| 2010-01-04T01:38 | 22238 | 38 | -67.0 | -91.3 | 96 | 18 |
| 2010-01-04T01:38 | 22273 | 38 | -66.8 | -91.3 | 98 | 19 |
| 2010-01-04T01:39 | 22309 | 38 | -65.9 | -91.1 | 101 | 20 |
| 2010-01-04T01:39 | 22345 | 37 | -65.2 | -90.8 | 105 | 20 |
| 2010-01-04T01:39 | 22381 | 37 | -65.4 | -90.6 | 108 | 20 |
| 2010-01-04T01:39 | 22416 | 37 | -65.4 | -90.6 | 110 | 20 |
| 2010-01-04T01:39 | 22453 | 37 | -65.4 | -90.6 | 111 | 20 |
| 2010-01-04T01:39 | 22490 | 36 | -65.6 | -90.5 | 111 | 20 |
| 2010-01-04T01:40 | 22526 | 36 | -65.8 | -90.6 | 109 | 20 |
| 2010-01-04T01:40 | 22564 | 36 | -65.8 | -90.8 | 105 | 20 |
| 2010-01-04T01:40 | 22602 | 36 | -65.0 | -90.5 | 101 | 20 |
| 2010-01-04T01:40 | 22642 | 36 | -64.4 | -90.2 | 97 | 21 |
| 2010-01-04T01:40 | 22678 | 35 | -63.9 | -89.9 | 94 | 21 |
| 2010-01-04T01:40 | 22716 | 35 | -63.7 | -89.8 | 94 | 21 |
| 2010-01-04T01:41 | 22754 | 35 | -63.4 | -89.6 | 94 | 22 |
| 2010-01-04T01:41 | 22790 | 35 | -63.0 | -89.4 | 94 | 23 |
| 2010-01-04T01:41 | 22826 | 34 | -63.0 | -89.2 | 94 | 24 |
| 2010-01-04T01:41 | 22861 | 34 | -62.8 | -89.2 | 93 | 24 |
| 2010-01-04T01:41 | 22896 | 34 | -63.0 | -89.1 | 93 | 25 |
| 2010-01-04T01:41 | 22932 | 34 | -63.0 | -89.2 | 91 | 25 |
| 2010-01-04T01:42 | 22966 | 34 | -62.9 | -89.1 | 90 | 26 |
| 2010-01-04T01:42 | 23000 | 34 | -62.5 | -89.0 | 87 | 27 |
| 2010-01-04T01:42 | 23035 | 33 | -62.4 | -89.0 | 85 | 28 |
| 2010-01-04T01:42 | 23067 | 33 | -62.7 | -88.9 | 83 | 29 |
| 2010-01-04T01:42 | 23101 | 33 | -62.5 | -88.9 | 82 | 29 |
| 2010-01-04T01:42 | 23135 | 33 | -62.8 | -89.2 | 81 | 29 |
| 2010-01-04T01:43 | 23167 | 33 | -63.0 | -89.3 | 81 | 28 |
| 2010-01-04T01:43 | 23202 | 32 | -63.1 | -89.4 | 81 | 28 |
| 2010-01-04T01:43 | 23235 | 32 | -63.2 | -89.4 | 81 | 27 |
| 2010-01-04T01:43 | 23269 | 32 | -63.3 | -89.5 | 79 | 25 |
| 2010-01-04T01:43 | 23304 | 32 | -62.9 | -89.4 | 78 | 25 |
| 2010-01-04T01:43 | 23337 | 32 | -62.5 | -89.3 | 77 | 24 |
| 2010-01-04T01:44 | 23373 | 32 | -62.7 | -89.2 | 78 | 25 |
| 2010-01-04T01:44 | 23408 | 31 | -62.6 | -89.2 | 80 | 25 |
| 2010-01-04T01:44 | 23445 | 31 | -62.4 | -89.0 | 82 | 26 |
| 2010-01-04T01:44 | 23480 | 31 | -62.4 | -88.9 | 83 | 26 |
| 2010-01-04T01:44 | 23518 | 31 | -62.0 | -88.8 | 84 | 25 |
| 2010-01-04T01:44 | 23552 | 31 | -61.7 | -88.7 | 87 | 24 |
| 2010-01-04T01:45 | 23591 | 30 | -61.2 | -88.5 | 90 | 24 |
| 2010-01-04T01:45 | 23626 | 30 | -61.1 | -88.3 | 92 | 24 |
| 2010-01-04T01:45 | 23664 | 30 | -61.1 | -88.3 | 92 | 24 |
| 2010-01-04T01:45 | 23700 | 30 | -60.9 | -88.1 | 92 | 24 |
| 2010-01-04T01:45 | 23734 | 30 | -60.6 | -88.0 | 91 | 25 |
| 2010-01-04T01:45 | 23769 | 30 | -60.1 | -87.7 | 88 | 25 |
| 2010-01-04T01:46 | 23801 | 29 | -58.6 | -87.0 | 86 | 25 |
| 2010-01-04T01:46 | 23834 | 29 | -57.5 | -86.5 | 83 | 24 |
| 2010-01-04T01:46 | 23867 | 29 | -57.2 | -86.2 | 82 | 24 |
| 2010-01-04T01:46 | 23898 | 29 | -56.9 | -85.7 | 81 | 23 |
| 2010-01-04T01:46 | 23932 | 29 | -56.1 | -85.2 | 81 | 23 |
| 2010-01-04T01:46 | 23965 | 29 | -56.3 | -85.1 | 81 | 22 |
| 2010-01-04T01:47 | 23997 | 29 | -56.1 | -84.8 | 81 | 22 |
| 2010-01-04T01:47 | 24030 | 28 | -56.0 | -84.7 | 81 | 22 |
| 2010-01-04T01:47 | 24061 | 28 | -55.8 | -84.5 | 82 | 22 |
| 2010-01-04T01:47 | 24095 | 28 | -55.8 | -84.3 | 82 | 22 |
| 2010-01-04T01:47 | 24131 | 28 | -55.8 | -84.4 | 82 | 23 |
| 2010-01-04T01:47 | 24164 | 28 | -55.8 | -84.5 | 82 | 23 |
| 2010-01-04T01:48 | 24198 | 28 | -55.6 | -84.3 | 82 | 23 |
| 2010-01-04T01:48 | 24236 | 27 | -55.5 | -84.2 | 82 | 23 |
| 2010-01-04T01:48 | 24270 | 27 | -55.3 | -84.1 | 83 | 22 |
| 2010-01-04T01:48 | 24307 | 27 | -55.2 | -83.9 | 83 | 22 |
| 2010-01-04T01:48 | 24344 | 27 | -55.2 | -83.8 | 83 | 22 |
| 2010-01-04T01:48 | 24382 | 27 | -55.1 | -83.8 | 83 | 22 |
| 2010-01-04T01:49 | 24420 | 27 | -55.2 | -84.0 | 83 | 22 |
| 2010-01-04T01:49 | 24457 | 27 | -55.2 | -84.0 | 84 | 22 |
| 2010-01-04T01:49 | 24493 | 26 | -55.0 | -83.9 | 84 | 22 |
| 2010-01-04T01:49 | 24532 | 26 | -54.9 | -83.8 | 84 | 23 |
| 2010-01-04T01:49 | 24571 | 26 | -54.9 | -83.8 | 83 | 23 |
| 2010-01-04T01:49 | 24607 | 26 | -54.9 | -83.8 | 83 | 23 |
| 2010-01-04T01:50 | 24643 | 26 | -55.0 | -83.8 | 82 | 23 |
| 2010-01-04T01:50 | 24680 | 26 | -55.0 | -83.9 | 82 | 24 |
| 2010-01-04T01:50 | 24714 | 26 | -54.9 | -83.7 | 82 | 24 |
| 2010-01-04T01:50 | 24749 | 25 | -54.4 | -83.6 | 81 | 24 |
| 2010-01-04T01:50 | 24782 | 25 | -53.6 | -83.2 | 81 | 24 |
| 2010-01-04T01:50 | 24815 | 25 | -53.4 | -83.1 | 81 | 24 |
| 2010-01-04T01:51 | 24847 | 25 | -53.3 | -82.9 | 82 | 25 |
| 2010-01-04T01:51 | 24878 | 25 | -53.3 | -82.9 | 82 | 25 |
| 2010-01-04T01:51 | 24912 | 25 | -53.2 | -82.9 | 80 | 25 |
| 2010-01-04T01:51 | 24943 | 25 | -52.8 | -82.6 | 80 | 26 |
| 2010-01-04T01:51 | 24974 | 24 | -52.7 | -82.5 | 80 | 26 |
| 2010-01-04T01:51 | 25008 | 24 | -52.6 | -82.4 | 81 | 26 |
| 2010-01-04T01:52 | 25037 | 24 | -52.6 | -82.3 | 82 | 26 |
| 2010-01-04T01:52 | 25071 | 24 | -52.5 | -82.2 | 83 | 26 |
| 2010-01-04T01:52 | 25103 | 24 | -52.5 | -82.2 | 83 | 26 |
| 2010-01-04T01:52 | 25138 | 24 | -52.5 | -82.3 | 83 | 26 |
| 2010-01-04T01:52 | 25174 | 24 | -52.6 | -82.4 | 83 | 27 |
| 2010-01-04T01:52 | 25206 | 24 | -52.8 | -82.5 | 84 | 27 |
| 2010-01-04T01:53 | 25241 | 23 | -52.9 | -82.6 | 85 | 27 |
| 2010-01-04T01:53 | 25278 | 23 | -53.0 | -82.6 | 86 | 27 |
| 2010-01-04T01:53 | 25313 | 23 | -53.0 | -82.6 | 86 | 27 |
| 2010-01-04T01:53 | 25350 | 23 | -52.9 | -82.5 | 85 | 27 |
| 2010-01-04T01:53 | 25384 | 23 | -53.0 | -82.5 | 83 | 27 |
| 2010-01-04T01:53 | 25422 | 23 | -52.8 | -82.6 | 82 | 27 |
| 2010-01-04T01:54 | 25457 | 23 | -52.6 | -82.6 | 82 | 27 |
| 2010-01-04T01:54 | 25493 | 23 | -52.6 | -82.6 | 81 | 28 |
| 2010-01-04T01:54 | 25527 | 22 | -52.6 | -82.6 | 80 | 28 |
| 2010-01-04T01:54 | 25564 | 22 | -52.5 | -82.5 | 79 | 28 |
| 2010-01-04T01:54 | 25598 | 22 | -52.2 | -82.4 | 78 | 27 |
| 2010-01-04T01:54 | 25633 | 22 | -51.4 | -82.0 | 77 | 27 |
| 2010-01-04T01:55 | 25669 | 22 | -51.0 | -81.7 | 77 | 28 |
| 2010-01-04T01:55 | 25704 | 22 | -51.1 | -81.7 | 78 | 28 |
| 2010-01-04T01:55 | 25740 | 22 | -51.2 | -81.8 | 78 | 28 |
| 2010-01-04T01:55 | 25776 | 22 | -51.4 | -81.8 | 78 | 28 |
| 2010-01-04T01:55 | 25810 | 22 | -51.6 | -81.8 | 78 | 28 |
| 2010-01-04T01:55 | 25845 | 21 | -51.8 | -82.0 | 78 | 28 |
| 2010-01-04T01:56 | 25877 | 21 | -52.0 | -82.1 | 77 | 28 |
| 2010-01-04T01:56 | 25912 | 21 | -52.2 | -82.2 | 76 | 28 |
| 2010-01-04T01:56 | 25950 | 21 | -52.3 | -82.2 | 76 | 28 |
| 2010-01-04T01:56 | 25986 | 21 | -52.3 | -82.3 | 76 | 28 |
| 2010-01-04T01:56 | 26022 | 21 | -52.3 | -82.3 | 76 | 29 |
| 2010-01-04T01:56 | 26059 | 21 | -52.5 | -82.4 | 77 | 30 |
| 2010-01-04T01:57 | 26098 | 21 | -52.3 | -82.4 | 77 | 30 |
| 2010-01-04T01:57 | 26131 | 20 | -51.9 | -82.2 | 76 | 30 |
| 2010-01-04T01:57 | 26170 | 20 | -51.9 | -82.2 | 76 | 31 |
| 2010-01-04T01:57 | 26207 | 20 | -51.8 | -82.2 | 76 | 31 |
| 2010-01-04T01:57 | 26244 | 20 | -51.9 | -82.2 | 76 | 31 |
| 2010-01-04T01:57 | 26284 | 20 | -52.2 | -82.3 | 76 | 31 |
| 2010-01-04T01:58 | 26323 | 20 | -52.4 | -82.4 | 76 | 31 |
| 2010-01-04T01:58 | 26365 | 20 | -52.8 | -82.6 | 76 | 31 |
| 2010-01-04T01:58 | 26398 | 20 | -53.0 | -82.7 | 76 | 31 |
| 2010-01-04T01:58 | 26438 | 20 | -53.1 | -82.8 | 76 | 32 |
| 2010-01-04T01:58 | 26475 | 19 | -52.8 | -82.7 | 77 | 34 |
| 2010-01-04T01:58 | 26515 | 19 | -53.0 | -82.8 | 77 | 34 |
| 2010-01-04T01:59 | 26552 | 19 | -52.9 | -82.8 | 76 | 34 |
| 2010-01-04T01:59 | 26591 | 19 | -51.7 | -82.3 | 73 | 33 |
| 2010-01-04T01:59 | 26626 | 19 | -51.0 | -81.9 | 71 | 33 |
| 2010-01-04T01:59 | 26661 | 19 | -50.9 | -81.8 | 69 | 33 |
| 2010-01-04T01:59 | 26697 | 19 | -50.9 | -81.7 | 68 | 34 |
| 2010-01-04T01:59 | 26727 | 19 | -50.8 | -81.7 | 68 | 34 |
| 2010-01-04T02:00 | 26766 | 19 | -51.0 | -81.7 | 69 | 34 |
| 2010-01-04T02:00 | 26797 | 18 | -51.2 | -81.8 | 70 | 33 |
| 2010-01-04T02:00 | 26830 | 18 | -51.4 | -81.8 | 72 | 33 |
| 2010-01-04T02:00 | 26863 | 18 | -51.5 | -81.9 | 74 | 32 |
| 2010-01-04T02:00 | 26900 | 18 | -51.6 | -81.9 | 76 | 31 |
| 2010-01-04T02:00 | 26932 | 18 | -51.5 | -82.1 | 78 | 30 |
| 2010-01-04T02:01 | 26970 | 18 | -51.1 | -81.8 | 79 | 30 |
| 2010-01-04T02:01 | 27002 | 18 | -51.3 | -81.8 | 80 | 29 |
| 2010-01-04T02:01 | 27038 | 18 | -51.6 | -81.8 | 81 | 29 |
| 2010-01-04T02:01 | 27072 | 18 | -52.0 | -82.1 | 82 | 29 |
| 2010-01-04T02:01 | 27109 | 18 | -52.3 | -82.2 | 83 | 29 |
| 2010-01-04T02:01 | 27144 | 18 | -52.5 | -82.3 | 83 | 30 |
| 2010-01-04T02:02 | 27179 | 17 | -52.6 | -82.7 | 83 | 30 |
| 2010-01-04T02:02 | 27219 | 17 | -52.9 | -82.7 | 83 | 30 |
| 2010-01-04T02:02 | 27253 | 17 | -53.1 | -82.8 | 83 | 30 |
| 2010-01-04T02:02 | 27289 | 17 | -53.3 | -83.0 | 84 | 29 |
| 2010-01-04T02:02 | 27324 | 17 | -53.3 | -82.7 | 85 | 28 |
| 2010-01-04T02:02 | 27356 | 17 | -53.2 | -83.0 | 85 | 27 |
| 2010-01-04T02:03 | 27396 | 17 | -53.0 | -83.0 | 86 | 27 |
| 2010-01-04T02:03 | 27429 | 17 | -53.2 | -83.0 | 86 | 28 |
| 2010-01-04T02:03 | 27462 | 17 | -53.2 | -83.1 | 86 | 28 |
| 2010-01-04T02:03 | 27497 | 17 | -53.4 | -83.2 | 86 | 28 |
| 2010-01-04T02:03 | 27527 | 17 | -53.4 | -83.2 | 86 | 29 |
| 2010-01-04T02:03 | 27561 | 16 | -53.5 | -83.0 | 86 | 29 |
| 2010-01-04T02:04 | 27590 | 16 | -53.7 | -83.2 | 86 | 29 |
| 2010-01-04T02:04 | 27625 | 16 | -53.8 | -83.1 | 85 | 29 |
| 2010-01-04T02:04 | 27657 | 16 | -53.5 | -83.2 | 85 | 29 |
| 2010-01-04T02:04 | 27686 | 16 | -53.5 | -83.2 | 84 | 29 |
| 2010-01-04T02:04 | 27718 | 16 | -53.2 | -83.0 | 84 | 28 |
| 2010-01-04T02:04 | 27749 | 16 | -53.3 | -83.1 | 84 | 28 |
| 2010-01-04T02:05 | 27781 | 16 | -53.6 | -83.0 | 84 | 28 |
| 2010-01-04T02:05 | 27810 | 16 | -53.2 | -83.0 | 84 | 29 |
| 2010-01-04T02:05 | 27842 | 16 | -53.3 | -82.8 | 85 | 30 |
| 2010-01-04T02:05 | 27875 | 16 | -53.5 | -83.0 | 85 | 32 |
| 2010-01-04T02:05 | 27904 | 16 | -53.2 | -82.9 | 85 | 33 |
| 2010-01-04T02:05 | 27934 | 15 | -52.8 | -83.1 | 86 | 34 |
| 2010-01-04T02:06 | 27963 | 15 | -52.8 | -83.0 | 88 | 35 |
| 2010-01-04T02:06 | 27993 | 15 | -52.9 | -82.8 | 88 | 36 |
| 2010-01-04T02:06 | 28025 | 15 | -52.7 | -82.8 | 88 | 36 |
| 2010-01-04T02:06 | 28053 | 15 | -52.7 | -82.5 | 88 | 37 |
| 2010-01-04T02:06 | 28088 | 15 | -52.7 | -82.8 | 88 | 37 |
| 2010-01-04T02:06 | 28118 | 15 | -52.6 | -82.6 | 88 | 37 |
| 2010-01-04T02:07 | 28150 | 15 | -52.5 | -82.4 | 88 | 37 |
| 2010-01-04T02:07 | 28177 | 15 | -52.4 | -82.5 | 88 | 36 |
| 2010-01-04T02:07 | 28215 | 15 | -51.7 | -82.3 | 88 | 36 |
| 2010-01-04T02:07 | 28245 | 15 | -51.9 | -82.2 | 88 | 36 |
| 2010-01-04T02:07 | 28279 | 15 | -51.8 | -82.3 | 88 | 35 |
| 2010-01-04T02:07 | 28311 | 15 | -51.9 | -82.1 | 88 | 34 |
| 2010-01-04T02:08 | 28341 | 15 | -51.8 | -82.4 | 88 | 34 |
| 2010-01-04T02:08 | 28378 | 14 | -51.8 | -81.8 | 88 | 34 |
| 2010-01-04T02:08 | 28411 | 14 | -50.6 | -81.4 | 89 | 34 |
| 2010-01-04T02:08 | 28447 | 14 | -50.9 | -81.5 | 89 | 34 |
| 2010-01-04T02:08 | 28476 | 14 | -50.8 | -81.3 | 90 | 35 |
| 2010-01-04T02:08 | 28512 | 14 | -50.6 | -81.1 | 90 | 36 |
| 2010-01-04T02:09 | 28548 | 14 | -50.7 | -81.4 | 90 | 36 |
| 2010-01-04T02:09 | 28577 | 14 | -50.3 | -81.0 | 90 | 36 |
| 2010-01-04T02:09 | 28614 | 14 | -50.2 | -81.0 | 90 | 36 |
| 2010-01-04T02:09 | 28640 | 14 | -50.1 | -81.0 | 90 | 36 |
| 2010-01-04T02:09 | 28671 | 14 | -49.5 | -80.8 | 90 | 36 |
| 2010-01-04T02:09 | 28704 | 14 | -49.6 | -80.6 | 89 | 36 |
| 2010-01-04T02:10 | 28732 | 14 | -49.5 | -80.9 | 89 | 37 |
| 2010-01-04T02:10 | 28764 | 14 | -49.6 | -80.5 | 88 | 38 |
| 2010-01-04T02:10 | 28801 | 14 | -49.5 | -80.5 | 88 | 39 |
| 2010-01-04T02:10 | 28829 | 13 | -49.4 | -80.4 | 88 | 39 |
| 2010-01-04T02:10 | 28860 | 13 | -49.4 | -80.6 | 88 | 39 |
| 2010-01-04T02:10 | 28887 | 13 | -49.2 | -80.3 | 88 | 39 |
| 2010-01-04T02:11 | 28919 | 13 | -49.3 | -80.3 | 87 | 39 |
| 2010-01-04T02:11 | 28945 | 13 | -49.0 | -80.4 | 86 | 38 |
| 2010-01-04T02:11 | 28978 | 13 | -48.8 | -80.1 | 86 | 37 |
| 2010-01-04T02:11 | 29006 | 13 | -48.3 | -79.9 | 86 | 35 |
| 2010-01-04T02:11 | 29031 | 13 | -47.9 | -79.7 | 85 | 33 |
| 2010-01-04T02:11 | 29058 | 13 | -47.8 | -79.6 | 85 | 32 |
| 2010-01-04T02:12 | 29085 | 13 | -47.5 | -79.4 | 85 | 30 |
| 2010-01-04T02:12 | 29111 | 13 | -47.3 | -79.3 | 85 | 29 |
| 2010-01-04T02:12 | 29138 | 13 | -47.1 | -79.2 | 85 | 30 |
| 2010-01-04T23:37 | 4 | 1006 | 31.9 | 25.0 | 170 | 3 |
| 2010-01-04T23:37 | 16 | 1005 | 29.2 | 22.7 | 204 | 1 |
| 2010-01-04T23:37 | 27 | 1004 | 28.6 | 22.7 | 207 | 1 |
| 2010-01-04T23:37 | 37 | 1003 | 28.5 | 23.0 | 203 | 1 |
| 2010-01-04T23:37 | 48 | 1001 | 28.4 | 23.4 | 202 | 1 |
| 2010-01-04T23:37 | 60 | 1000 | 28.4 | 23.6 | 201 | 1 |
| 2010-01-04T23:37 | 70 | 999 | 28.2 | 23.6 | 201 | 1 |
| 2010-01-04T23:37 | 82 | 998 | 28.0 | 23.5 | 200 | 1 |
| 2010-01-04T23:37 | 94 | 996 | 27.9 | 23.5 | 200 | 2 |
| 2010-01-04T23:37 | 107 | 995 | 27.8 | 23.5 | 200 | 2 |
| 2010-01-04T23:37 | 118 | 994 | 27.7 | 23.6 | 201 | 2 |
| 2010-01-04T23:37 | 128 | 992 | 27.6 | 23.7 | 203 | 2 |
| 2010-01-04T23:37 | 139 | 991 | 27.5 | 23.6 | 205 | 2 |
| 2010-01-04T23:37 | 149 | 990 | 27.4 | 23.6 | 207 | 2 |
| 2010-01-04T23:37 | 160 | 989 | 27.3 | 23.6 | 210 | 2 |
| 2010-01-04T23:37 | 172 | 987 | 27.1 | 23.7 | 214 | 2 |
| 2010-01-04T23:37 | 185 | 986 | 27.0 | 23.6 | 219 | 2 |
| 2010-01-04T23:37 | 198 | 985 | 26.9 | 23.6 | 223 | 2 |
| 2010-01-04T23:37 | 211 | 983 | 26.8 | 23.5 | 229 | 2 |
| 2010-01-04T23:37 | 223 | 982 | 26.6 | 23.5 | 234 | 2 |
| 2010-01-04T23:37 | 234 | 981 | 26.5 | 23.5 | 239 | 2 |
| 2010-01-04T23:37 | 245 | 979 | 26.4 | 23.5 | 243 | 2 |
| 2010-01-04T23:37 | 257 | 978 | 26.3 | 23.5 | 248 | 2 |
| 2010-01-04T23:37 | 269 | 977 | 26.3 | 23.5 | 252 | 3 |
| 2010-01-04T23:37 | 280 | 976 | 26.2 | 23.5 | 255 | 3 |
| 2010-01-04T23:37 | 291 | 974 | 26.1 | 23.5 | 258 | 3 |
| 2010-01-04T23:37 | 304 | 973 | 26.0 | 23.5 | 261 | 3 |
| 2010-01-04T23:37 | 317 | 972 | 26.0 | 23.4 | 263 | 3 |
| 2010-01-04T23:37 | 329 | 970 | 25.9 | 23.3 | 265 | 3 |
| 2010-01-04T23:37 | 341 | 969 | 25.8 | 23.2 | 267 | 2 |
| 2010-01-04T23:38 | 353 | 968 | 25.6 | 23.2 | 268 | 2 |
| 2010-01-04T23:38 | 364 | 966 | 25.6 | 23.1 | 270 | 2 |
| 2010-01-04T23:38 | 374 | 965 | 25.5 | 23.0 | 271 | 2 |
| 2010-01-04T23:38 | 385 | 964 | 25.3 | 23.0 | 272 | 2 |
| 2010-01-04T23:38 | 396 | 963 | 25.3 | 22.9 | 273 | 2 |
| 2010-01-04T23:38 | 407 | 962 | 25.2 | 22.9 | 273 | 2 |
| 2010-01-04T23:38 | 418 | 960 | 25.1 | 22.8 | 273 | 2 |
| 2010-01-04T23:38 | 429 | 959 | 25.0 | 22.8 | 272 | 2 |
| 2010-01-04T23:38 | 441 | 958 | 24.9 | 22.8 | 272 | 2 |
| 2010-01-04T23:38 | 452 | 957 | 24.8 | 22.8 | 270 | 2 |
| 2010-01-04T23:38 | 464 | 955 | 24.7 | 22.7 | 268 | 2 |
| 2010-01-04T23:38 | 477 | 954 | 24.8 | 22.4 | 266 | 2 |
| 2010-01-04T23:38 | 489 | 953 | 24.7 | 22.2 | 264 | 3 |
| 2010-01-04T23:38 | 501 | 951 | 24.6 | 22.0 | 262 | 3 |
| 2010-01-04T23:38 | 514 | 950 | 24.5 | 22.0 | 261 | 3 |
| 2010-01-04T23:38 | 528 | 949 | 24.4 | 21.9 | 259 | 3 |
| 2010-01-04T23:38 | 541 | 947 | 24.3 | 21.8 | 257 | 3 |
| 2010-01-04T23:38 | 553 | 946 | 24.1 | 21.9 | 256 | 4 |
| 2010-01-04T23:38 | 565 | 945 | 24.0 | 21.9 | 255 | 4 |
| 2010-01-04T23:38 | 578 | 943 | 23.9 | 21.8 | 254 | 4 |
| 2010-01-04T23:38 | 591 | 942 | 23.8 | 21.7 | 254 | 4 |
| 2010-01-04T23:38 | 604 | 940 | 23.7 | 21.6 | 254 | 4 |
| 2010-01-04T23:38 | 616 | 939 | 23.6 | 21.6 | 254 | 4 |
| 2010-01-04T23:38 | 629 | 938 | 23.5 | 21.6 | 255 | 4 |
| 2010-01-04T23:38 | 643 | 936 | 23.3 | 21.5 | 256 | 4 |
| 2010-01-04T23:38 | 655 | 935 | 23.3 | 21.5 | 257 | 4 |
| 2010-01-04T23:38 | 667 | 934 | 23.3 | 21.4 | 258 | 4 |
| 2010-01-04T23:38 | 678 | 932 | 23.2 | 21.2 | 259 | 4 |
| 2010-01-04T23:38 | 690 | 931 | 23.2 | 21.0 | 261 | 4 |
| 2010-01-04T23:38 | 702 | 930 | 23.2 | 20.9 | 262 | 4 |
| 2010-01-04T23:39 | 714 | 929 | 23.2 | 20.8 | 264 | 5 |
| 2010-01-04T23:39 | 726 | 927 | 23.2 | 20.6 | 265 | 5 |
| 2010-01-04T23:39 | 737 | 926 | 23.1 | 20.5 | 266 | 5 |
| 2010-01-04T23:39 | 750 | 925 | 23.1 | 20.3 | 267 | 5 |
| 2010-01-04T23:39 | 762 | 924 | 23.0 | 20.2 | 268 | 5 |
| 2010-01-04T23:39 | 774 | 922 | 22.9 | 20.1 | 269 | 5 |
| 2010-01-04T23:39 | 787 | 921 | 22.8 | 20.0 | 270 | 5 |
| 2010-01-04T23:39 | 799 | 920 | 22.7 | 19.9 | 270 | 5 |
| 2010-01-04T23:39 | 813 | 918 | 22.6 | 19.9 | 271 | 5 |
| 2010-01-04T23:39 | 826 | 917 | 22.4 | 19.8 | 271 | 5 |
| 2010-01-04T23:39 | 838 | 916 | 22.3 | 19.8 | 271 | 5 |
| 2010-01-04T23:39 | 850 | 914 | 22.2 | 19.7 | 271 | 5 |
| 2010-01-04T23:39 | 863 | 913 | 22.1 | 19.6 | 271 | 5 |
| 2010-01-04T23:39 | 874 | 912 | 22.0 | 19.5 | 271 | 5 |
| 2010-01-04T23:39 | 885 | 911 | 22.0 | 19.4 | 270 | 4 |
| 2010-01-04T23:39 | 897 | 909 | 21.9 | 19.3 | 270 | 4 |
| 2010-01-04T23:39 | 909 | 908 | 21.7 | 19.3 | 269 | 4 |
| 2010-01-04T23:39 | 920 | 907 | 21.6 | 19.2 | 269 | 4 |
| 2010-01-04T23:39 | 932 | 906 | 21.5 | 19.2 | 268 | 4 |
| 2010-01-04T23:39 | 943 | 905 | 21.4 | 19.2 | 267 | 4 |
| 2010-01-04T23:39 | 954 | 904 | 21.4 | 19.2 | 266 | 4 |
| 2010-01-04T23:39 | 965 | 902 | 21.4 | 19.1 | 265 | 4 |
| 2010-01-04T23:39 | 977 | 901 | 21.4 | 18.8 | 264 | 4 |
| 2010-01-04T23:39 | 990 | 900 | 21.5 | 18.7 | 263 | 4 |
| 2010-01-04T23:39 | 1004 | 898 | 21.4 | 18.4 | 262 | 4 |
| 2010-01-04T23:39 | 1017 | 897 | 21.4 | 18.0 | 261 | 4 |
| 2010-01-04T23:39 | 1028 | 896 | 21.5 | 17.7 | 260 | 4 |
| 2010-01-04T23:39 | 1039 | 895 | 21.5 | 17.6 | 259 | 4 |
| 2010-01-04T23:39 | 1050 | 894 | 21.5 | 17.4 | 258 | 4 |
| 2010-01-04T23:39 | 1063 | 892 | 21.5 | 17.1 | 257 | 4 |
| 2010-01-04T23:40 | 1076 | 891 | 21.5 | 16.7 | 256 | 5 |
| 2010-01-04T23:40 | 1087 | 890 | 21.5 | 16.6 | 255 | 5 |
| 2010-01-04T23:40 | 1098 | 889 | 21.5 | 16.7 | 254 | 5 |
| 2010-01-04T23:40 | 1110 | 887 | 21.4 | 16.8 | 254 | 5 |
| 2010-01-04T23:40 | 1122 | 886 | 21.3 | 16.7 | 253 | 5 |
| 2010-01-04T23:40 | 1135 | 885 | 21.3 | 16.4 | 253 | 5 |
| 2010-01-04T23:40 | 1147 | 884 | 21.3 | 16.0 | 253 | 5 |
| 2010-01-04T23:40 | 1159 | 882 | 21.3 | 15.9 | 253 | 5 |
| 2010-01-04T23:40 | 1173 | 881 | 21.2 | 15.8 | 253 | 5 |
| 2010-01-04T23:40 | 1185 | 880 | 21.2 | 15.7 | 253 | 5 |
| 2010-01-04T23:40 | 1196 | 879 | 21.1 | 15.6 | 253 | 5 |
| 2010-01-04T23:40 | 1207 | 878 | 21.0 | 15.6 | 253 | 5 |
| 2010-01-04T23:40 | 1219 | 876 | 21.0 | 15.4 | 253 | 5 |
| 2010-01-04T23:40 | 1230 | 875 | 20.9 | 15.4 | 253 | 6 |
| 2010-01-04T23:40 | 1241 | 874 | 20.9 | 15.5 | 253 | 6 |
| 2010-01-04T23:40 | 1253 | 873 | 20.9 | 15.5 | 253 | 6 |
| 2010-01-04T23:40 | 1264 | 872 | 20.9 | 15.4 | 253 | 6 |
| 2010-01-04T23:40 | 1276 | 871 | 20.9 | 15.3 | 253 | 6 |
| 2010-01-04T23:40 | 1287 | 870 | 20.8 | 15.2 | 252 | 6 |
| 2010-01-04T23:40 | 1299 | 868 | 20.7 | 15.2 | 252 | 6 |
| 2010-01-04T23:40 | 1312 | 867 | 20.6 | 15.5 | 252 | 6 |
| 2010-01-04T23:40 | 1325 | 866 | 20.6 | 15.7 | 251 | 6 |
| 2010-01-04T23:40 | 1337 | 865 | 20.5 | 15.6 | 251 | 7 |
| 2010-01-04T23:40 | 1348 | 863 | 20.4 | 15.4 | 250 | 7 |
| 2010-01-04T23:40 | 1360 | 862 | 20.4 | 15.3 | 250 | 7 |
| 2010-01-04T23:40 | 1372 | 861 | 20.3 | 15.2 | 249 | 7 |
| 2010-01-04T23:40 | 1385 | 860 | 20.2 | 15.1 | 249 | 7 |
| 2010-01-04T23:40 | 1397 | 859 | 20.2 | 14.9 | 249 | 7 |
| 2010-01-04T23:40 | 1410 | 857 | 20.2 | 14.7 | 248 | 6 |
| 2010-01-04T23:40 | 1422 | 856 | 20.2 | 14.6 | 248 | 6 |
| 2010-01-04T23:41 | 1433 | 855 | 20.2 | 14.5 | 248 | 6 |
| 2010-01-04T23:41 | 1446 | 854 | 20.2 | 14.5 | 248 | 6 |
| 2010-01-04T23:41 | 1459 | 852 | 20.2 | 14.3 | 248 | 6 |
| 2010-01-04T23:41 | 1473 | 851 | 20.3 | 13.6 | 248 | 6 |
| 2010-01-04T23:41 | 1487 | 850 | 20.2 | 13.2 | 248 | 6 |
| 2010-01-04T23:41 | 1498 | 849 | 20.1 | 13.1 | 248 | 6 |
| 2010-01-04T23:41 | 1508 | 848 | 20.0 | 12.9 | 248 | 6 |
| 2010-01-04T23:41 | 1520 | 846 | 20.0 | 12.5 | 248 | 6 |
| 2010-01-04T23:41 | 1533 | 845 | 20.0 | 12.3 | 248 | 6 |
| 2010-01-04T23:41 | 1547 | 844 | 19.9 | 12.2 | 248 | 6 |
| 2010-01-04T23:41 | 1560 | 842 | 19.8 | 11.9 | 248 | 7 |
| 2010-01-04T23:41 | 1574 | 841 | 19.7 | 11.6 | 248 | 7 |
| 2010-01-04T23:41 | 1586 | 840 | 19.7 | 11.1 | 248 | 7 |
| 2010-01-04T23:41 | 1597 | 839 | 19.6 | 10.7 | 247 | 7 |
| 2010-01-04T23:41 | 1609 | 838 | 19.5 | 10.4 | 247 | 7 |
| 2010-01-04T23:41 | 1621 | 837 | 19.5 | 10.2 | 247 | 7 |
| 2010-01-04T23:41 | 1632 | 835 | 19.4 | 10.0 | 246 | 7 |
| 2010-01-04T23:41 | 1644 | 834 | 19.3 | 10.1 | 246 | 7 |
| 2010-01-04T23:41 | 1657 | 833 | 19.2 | 10.0 | 245 | 7 |
| 2010-01-04T23:41 | 1668 | 832 | 19.1 | 9.9 | 245 | 7 |
| 2010-01-04T23:41 | 1680 | 831 | 19.1 | 9.8 | 244 | 7 |
| 2010-01-04T23:41 | 1693 | 830 | 19.0 | 9.6 | 244 | 7 |
| 2010-01-04T23:41 | 1708 | 828 | 19.0 | 9.6 | 243 | 7 |
| 2010-01-04T23:41 | 1720 | 827 | 18.9 | 9.8 | 243 | 7 |
| 2010-01-04T23:41 | 1732 | 826 | 18.8 | 10.0 | 243 | 7 |
| 2010-01-04T23:41 | 1745 | 825 | 18.7 | 10.0 | 242 | 7 |
| 2010-01-04T23:41 | 1757 | 823 | 18.6 | 10.0 | 242 | 7 |
| 2010-01-04T23:41 | 1767 | 822 | 18.5 | 10.2 | 241 | 7 |
| 2010-01-04T23:41 | 1779 | 821 | 18.4 | 10.6 | 241 | 7 |
| 2010-01-04T23:41 | 1791 | 820 | 18.3 | 10.9 | 241 | 7 |
| 2010-01-04T23:42 | 1804 | 819 | 18.1 | 11.2 | 241 | 7 |
| 2010-01-04T23:42 | 1816 | 818 | 18.0 | 11.5 | 241 | 7 |
| 2010-01-04T23:42 | 1827 | 817 | 17.8 | 11.9 | 240 | 6 |
| 2010-01-04T23:42 | 1840 | 816 | 17.7 | 12.3 | 240 | 6 |
| 2010-01-04T23:42 | 1852 | 814 | 17.6 | 12.8 | 240 | 6 |
| 2010-01-04T23:42 | 1865 | 813 | 17.4 | 13.1 | 239 | 6 |
| 2010-01-04T23:42 | 1877 | 812 | 17.3 | 13.4 | 239 | 6 |
| 2010-01-04T23:42 | 1889 | 811 | 17.2 | 13.5 | 238 | 6 |
| 2010-01-04T23:42 | 1901 | 810 | 17.2 | 13.6 | 237 | 5 |
| 2010-01-04T23:42 | 1913 | 809 | 17.2 | 13.6 | 236 | 5 |
| 2010-01-04T23:42 | 1924 | 808 | 17.1 | 13.6 | 235 | 5 |
| 2010-01-04T23:42 | 1936 | 806 | 17.1 | 13.6 | 234 | 5 |
| 2010-01-04T23:42 | 1948 | 805 | 17.1 | 13.5 | 234 | 5 |
| 2010-01-04T23:42 | 1961 | 804 | 17.1 | 13.3 | 233 | 5 |
| 2010-01-04T23:42 | 1974 | 803 | 17.0 | 13.2 | 232 | 5 |
| 2010-01-04T23:42 | 1985 | 802 | 17.0 | 12.9 | 232 | 5 |
| 2010-01-04T23:42 | 1997 | 801 | 17.0 | 12.6 | 232 | 5 |
| 2010-01-04T23:42 | 2033 | 797 | 16.8 | 12.2 | 234 | 4 |
| 2010-01-04T23:42 | 2076 | 793 | 16.6 | 12.4 | 239 | 4 |
| 2010-01-04T23:43 | 2135 | 788 | 16.3 | 12.5 | 239 | 4 |
| 2010-01-04T23:43 | 2183 | 783 | 16.0 | 12.3 | 237 | 3 |
| 2010-01-04T23:43 | 2240 | 778 | 15.5 | 12.1 | 238 | 3 |
| 2010-01-04T23:43 | 2296 | 773 | 15.2 | 11.8 | 240 | 4 |
| 2010-01-04T23:43 | 2359 | 767 | 14.9 | 11.4 | 241 | 4 |
| 2010-01-04T23:43 | 2421 | 762 | 14.8 | 11.3 | 247 | 4 |
| 2010-01-04T23:44 | 2474 | 757 | 14.5 | 10.6 | 255 | 3 |
| 2010-01-04T23:44 | 2512 | 754 | 14.4 | 10.3 | 259 | 3 |
| 2010-01-04T23:44 | 2552 | 750 | 14.3 | 10.0 | 260 | 3 |
| 2010-01-04T23:44 | 2591 | 747 | 14.2 | 9.8 | 261 | 3 |
| 2010-01-04T23:44 | 2634 | 743 | 14.0 | 9.6 | 262 | 3 |
| 2010-01-04T23:44 | 2674 | 739 | 13.8 | 9.2 | 264 | 3 |
| 2010-01-04T23:45 | 2713 | 736 | 13.6 | 9.3 | 269 | 3 |
| 2010-01-04T23:45 | 2752 | 733 | 13.4 | 8.9 | 274 | 4 |
| 2010-01-04T23:45 | 2791 | 729 | 13.2 | 8.5 | 277 | 4 |
| 2010-01-04T23:45 | 2832 | 726 | 13.1 | 7.9 | 277 | 4 |
| 2010-01-04T23:45 | 2878 | 722 | 12.7 | 7.7 | 279 | 4 |
| 2010-01-04T23:45 | 2926 | 718 | 12.4 | 7.6 | 280 | 4 |
| 2010-01-04T23:46 | 2977 | 713 | 12.0 | 7.7 | 280 | 4 |
| 2010-01-04T23:46 | 3027 | 709 | 11.7 | 7.3 | 281 | 5 |
| 2010-01-04T23:46 | 3067 | 706 | 11.4 | 6.8 | 284 | 5 |
| 2010-01-04T23:46 | 3109 | 702 | 11.1 | 7.1 | 286 | 5 |
Only the first 2000 rows were shown. To view the complete dataset, download it as tab-delimited text. You can still view the full matrix in your browser, but be aware that this may crash the browser due to the huge size.
